<?xml version="1.0" encoding="UTF-8" standalone="no" ?>
<gpx xmlns="http://www.topografix.com/GPX/1/1" xmlns:xsi="http://www.w3.org/2001/XMLSchema-instance" xsi:schemaLocation="http://www.topografix.com/GPX/1/1 http://www.topografix.com/GPX/1/1/gpx.xsd" version="1.1" creator="VisuGPX - https://www.visugpx.com">
  <metadata>
    <name>Plérimond Aups par la Croix des Pins</name>
    <desc><![CDATA[A partir du gîte équestre de Plérimond randonnée en étoile en passant par la Croix des Pins, vue dominante et piste agréable jusqu\'à Aups et retour au gîte]]></desc>
  </metadata>
  <trk>
    <name><![CDATA[AUPSCROIXDESPINSM]]></name>
    <trkseg>
      <trkpt lat="43.59912" lon="6.24897">
        <ele>414.47</ele>
        <time>2015-02-18T17:05:23Z</time>
      </trkpt>
      <trkpt lat="43.59912" lon="6.24896">
        <ele>414.47</ele>
        <time>2015-02-18T17:05:41Z</time>
      </trkpt>
      <trkpt lat="43.59911" lon="6.24896">
        <ele>414.95</ele>
        <time>2015-02-18T17:06:01Z</time>
      </trkpt>
      <trkpt lat="43.59911" lon="6.24896">
        <ele>414.95</ele>
        <time>2015-02-18T17:06:23Z</time>
      </trkpt>
      <trkpt lat="43.59911" lon="6.24896">
        <ele>415.43</ele>
        <time>2015-02-18T17:06:41Z</time>
      </trkpt>
      <trkpt lat="43.5991" lon="6.24895">
        <ele>415.91</ele>
        <time>2015-02-18T17:06:58Z</time>
      </trkpt>
      <trkpt lat="43.59911" lon="6.24897">
        <ele>415.91</ele>
        <time>2015-02-18T17:07:14Z</time>
      </trkpt>
      <trkpt lat="43.59912" lon="6.24904">
        <ele>415.91</ele>
        <time>2015-02-18T17:07:19Z</time>
      </trkpt>
      <trkpt lat="43.59909" lon="6.24912">
        <ele>416.39</ele>
        <time>2015-02-18T17:07:24Z</time>
      </trkpt>
      <trkpt lat="43.59909" lon="6.24916">
        <ele>417.35</ele>
        <time>2015-02-18T17:07:36Z</time>
      </trkpt>
      <trkpt lat="43.59909" lon="6.24916">
        <ele>416.87</ele>
        <time>2015-02-18T17:07:48Z</time>
      </trkpt>
      <trkpt lat="43.59909" lon="6.24916">
        <ele>416.87</ele>
        <time>2015-02-18T17:07:53Z</time>
      </trkpt>
      <trkpt lat="43.59905" lon="6.24915">
        <ele>417.35</ele>
        <time>2015-02-18T17:08:10Z</time>
      </trkpt>
      <trkpt lat="43.59907" lon="6.24918">
        <ele>417.35</ele>
        <time>2015-02-18T17:08:14Z</time>
      </trkpt>
      <trkpt lat="43.59907" lon="6.24914">
        <ele>418.31</ele>
        <time>2015-02-18T17:08:29Z</time>
      </trkpt>
      <trkpt lat="43.5991" lon="6.24915">
        <ele>418.31</ele>
        <time>2015-02-18T17:08:42Z</time>
      </trkpt>
      <trkpt lat="43.59909" lon="6.24917">
        <ele>417.35</ele>
        <time>2015-02-18T17:08:54Z</time>
      </trkpt>
      <trkpt lat="43.59909" lon="6.24916">
        <ele>418.31</ele>
        <time>2015-02-18T17:08:59Z</time>
      </trkpt>
      <trkpt lat="43.59918" lon="6.24906">
        <ele>417.83</ele>
        <time>2015-02-18T17:09:14Z</time>
      </trkpt>
      <trkpt lat="43.59919" lon="6.24905">
        <ele>418.31</ele>
        <time>2015-02-18T17:09:19Z</time>
      </trkpt>
      <trkpt lat="43.59924" lon="6.24905">
        <ele>418.31</ele>
        <time>2015-02-18T17:09:23Z</time>
      </trkpt>
      <trkpt lat="43.5993" lon="6.24909">
        <ele>418.79</ele>
        <time>2015-02-18T17:09:37Z</time>
      </trkpt>
      <trkpt lat="43.59932" lon="6.24912">
        <ele>418.79</ele>
        <time>2015-02-18T17:09:44Z</time>
      </trkpt>
      <trkpt lat="43.59936" lon="6.24919">
        <ele>419.27</ele>
        <time>2015-02-18T17:09:49Z</time>
      </trkpt>
      <trkpt lat="43.59951" lon="6.24933">
        <ele>421.19</ele>
        <time>2015-02-18T17:10:04Z</time>
      </trkpt>
      <trkpt lat="43.5995" lon="6.24933">
        <ele>421.19</ele>
        <time>2015-02-18T17:10:10Z</time>
      </trkpt>
      <trkpt lat="43.59946" lon="6.24928">
        <ele>420.71</ele>
        <time>2015-02-18T17:10:23Z</time>
      </trkpt>
      <trkpt lat="43.59946" lon="6.24928">
        <ele>420.71</ele>
        <time>2015-02-18T17:10:25Z</time>
      </trkpt>
      <trkpt lat="43.59949" lon="6.24933">
        <ele>420.71</ele>
        <time>2015-02-18T17:10:38Z</time>
      </trkpt>
      <trkpt lat="43.59949" lon="6.24929">
        <ele>421.19</ele>
        <time>2015-02-18T17:10:45Z</time>
      </trkpt>
      <trkpt lat="43.59949" lon="6.24919">
        <ele>420.71</ele>
        <time>2015-02-18T17:10:50Z</time>
      </trkpt>
      <trkpt lat="43.59946" lon="6.24893">
        <ele>419.75</ele>
        <time>2015-02-18T17:11:04Z</time>
      </trkpt>
      <trkpt lat="43.59946" lon="6.2489">
        <ele>420.23</ele>
        <time>2015-02-18T17:11:19Z</time>
      </trkpt>
      <trkpt lat="43.59948" lon="6.24887">
        <ele>419.75</ele>
        <time>2015-02-18T17:11:31Z</time>
      </trkpt>
      <trkpt lat="43.59947" lon="6.24886">
        <ele>420.23</ele>
        <time>2015-02-18T17:11:41Z</time>
      </trkpt>
      <trkpt lat="43.59945" lon="6.24885">
        <ele>419.75</ele>
        <time>2015-02-18T17:11:43Z</time>
      </trkpt>
      <trkpt lat="43.59941" lon="6.24884">
        <ele>419.75</ele>
        <time>2015-02-18T17:11:46Z</time>
      </trkpt>
      <trkpt lat="43.59935" lon="6.24885">
        <ele>419.75</ele>
        <time>2015-02-18T17:11:52Z</time>
      </trkpt>
      <trkpt lat="43.59935" lon="6.24881">
        <ele>420.23</ele>
        <time>2015-02-18T17:11:54Z</time>
      </trkpt>
      <trkpt lat="43.59934" lon="6.24879">
        <ele>419.75</ele>
        <time>2015-02-18T17:12:07Z</time>
      </trkpt>
      <trkpt lat="43.59935" lon="6.24884">
        <ele>420.23</ele>
        <time>2015-02-18T17:12:20Z</time>
      </trkpt>
      <trkpt lat="43.59935" lon="6.24885">
        <ele>420.23</ele>
        <time>2015-02-18T17:12:32Z</time>
      </trkpt>
      <trkpt lat="43.59935" lon="6.24883">
        <ele>420.71</ele>
        <time>2015-02-18T17:12:36Z</time>
      </trkpt>
      <trkpt lat="43.59931" lon="6.24876">
        <ele>420.23</ele>
        <time>2015-02-18T17:12:42Z</time>
      </trkpt>
      <trkpt lat="43.59928" lon="6.24869">
        <ele>420.71</ele>
        <time>2015-02-18T17:12:54Z</time>
      </trkpt>
      <trkpt lat="43.59928" lon="6.24869">
        <ele>420.23</ele>
        <time>2015-02-18T17:12:56Z</time>
      </trkpt>
      <trkpt lat="43.59928" lon="6.24865">
        <ele>420.23</ele>
        <time>2015-02-18T17:13:04Z</time>
      </trkpt>
      <trkpt lat="43.5993" lon="6.24857">
        <ele>420.23</ele>
        <time>2015-02-18T17:13:16Z</time>
      </trkpt>
      <trkpt lat="43.59931" lon="6.24855">
        <ele>420.71</ele>
        <time>2015-02-18T17:13:18Z</time>
      </trkpt>
      <trkpt lat="43.59935" lon="6.24843">
        <ele>419.75</ele>
        <time>2015-02-18T17:13:25Z</time>
      </trkpt>
      <trkpt lat="43.59937" lon="6.2484">
        <ele>420.23</ele>
        <time>2015-02-18T17:13:38Z</time>
      </trkpt>
      <trkpt lat="43.59937" lon="6.2484">
        <ele>420.71</ele>
        <time>2015-02-18T17:13:50Z</time>
      </trkpt>
      <trkpt lat="43.59936" lon="6.24843">
        <ele>420.23</ele>
        <time>2015-02-18T17:13:52Z</time>
      </trkpt>
      <trkpt lat="43.59934" lon="6.24845">
        <ele>420.23</ele>
        <time>2015-02-18T17:14:05Z</time>
      </trkpt>
      <trkpt lat="43.59934" lon="6.24845">
        <ele>420.23</ele>
        <time>2015-02-18T17:14:07Z</time>
      </trkpt>
      <trkpt lat="43.59931" lon="6.24854">
        <ele>421.19</ele>
        <time>2015-02-18T17:14:22Z</time>
      </trkpt>
      <trkpt lat="43.59929" lon="6.24861">
        <ele>421.68</ele>
        <time>2015-02-18T17:14:34Z</time>
      </trkpt>
      <trkpt lat="43.59929" lon="6.24861">
        <ele>421.68</ele>
        <time>2015-02-18T17:14:41Z</time>
      </trkpt>
      <trkpt lat="43.59931" lon="6.24856">
        <ele>421.68</ele>
        <time>2015-02-18T17:14:52Z</time>
      </trkpt>
      <trkpt lat="43.59932" lon="6.24852">
        <ele>421.68</ele>
        <time>2015-02-18T17:14:56Z</time>
      </trkpt>
      <trkpt lat="43.59935" lon="6.24847">
        <ele>421.68</ele>
        <time>2015-02-18T17:15:04Z</time>
      </trkpt>
      <trkpt lat="43.59932" lon="6.24856">
        <ele>422.16</ele>
        <time>2015-02-18T17:15:18Z</time>
      </trkpt>
      <trkpt lat="43.59934" lon="6.24856">
        <ele>422.16</ele>
        <time>2015-02-18T17:15:29Z</time>
      </trkpt>
      <trkpt lat="43.59934" lon="6.24857">
        <ele>422.16</ele>
        <time>2015-02-18T17:15:41Z</time>
      </trkpt>
      <trkpt lat="43.59937" lon="6.24854">
        <ele>422.16</ele>
        <time>2015-02-18T17:15:51Z</time>
      </trkpt>
      <trkpt lat="43.5994" lon="6.24852">
        <ele>422.16</ele>
        <time>2015-02-18T17:16:00Z</time>
      </trkpt>
      <trkpt lat="43.59942" lon="6.24855">
        <ele>422.16</ele>
        <time>2015-02-18T17:16:03Z</time>
      </trkpt>
      <trkpt lat="43.59944" lon="6.24858">
        <ele>422.64</ele>
        <time>2015-02-18T17:16:05Z</time>
      </trkpt>
      <trkpt lat="43.59946" lon="6.24866">
        <ele>423.12</ele>
        <time>2015-02-18T17:16:19Z</time>
      </trkpt>
      <trkpt lat="43.59942" lon="6.24867">
        <ele>423.12</ele>
        <time>2015-02-18T17:16:33Z</time>
      </trkpt>
      <trkpt lat="43.59942" lon="6.24867">
        <ele>423.12</ele>
        <time>2015-02-18T17:16:35Z</time>
      </trkpt>
      <trkpt lat="43.59939" lon="6.24877">
        <ele>424.08</ele>
        <time>2015-02-18T17:16:41Z</time>
      </trkpt>
      <trkpt lat="43.59935" lon="6.24883">
        <ele>423.6</ele>
        <time>2015-02-18T17:16:47Z</time>
      </trkpt>
      <trkpt lat="43.59932" lon="6.24881">
        <ele>424.08</ele>
        <time>2015-02-18T17:16:50Z</time>
      </trkpt>
      <trkpt lat="43.59932" lon="6.24878">
        <ele>424.08</ele>
        <time>2015-02-18T17:16:52Z</time>
      </trkpt>
      <trkpt lat="43.59931" lon="6.24871">
        <ele>423.6</ele>
        <time>2015-02-18T17:16:56Z</time>
      </trkpt>
      <trkpt lat="43.59934" lon="6.24862">
        <ele>423.6</ele>
        <time>2015-02-18T17:17:02Z</time>
      </trkpt>
      <trkpt lat="43.59935" lon="6.24854">
        <ele>423.12</ele>
        <time>2015-02-18T17:17:14Z</time>
      </trkpt>
      <trkpt lat="43.59935" lon="6.24855">
        <ele>423.6</ele>
        <time>2015-02-18T17:17:24Z</time>
      </trkpt>
      <trkpt lat="43.59939" lon="6.24851">
        <ele>423.6</ele>
        <time>2015-02-18T17:17:37Z</time>
      </trkpt>
      <trkpt lat="43.59938" lon="6.24852">
        <ele>423.12</ele>
        <time>2015-02-18T17:17:38Z</time>
      </trkpt>
      <trkpt lat="43.59937" lon="6.24854">
        <ele>423.6</ele>
        <time>2015-02-18T17:17:40Z</time>
      </trkpt>
      <trkpt lat="43.59935" lon="6.24862">
        <ele>423.6</ele>
        <time>2015-02-18T17:17:45Z</time>
      </trkpt>
      <trkpt lat="43.59929" lon="6.24866">
        <ele>424.56</ele>
        <time>2015-02-18T17:17:58Z</time>
      </trkpt>
      <trkpt lat="43.59924" lon="6.24872">
        <ele>424.56</ele>
        <time>2015-02-18T17:18:08Z</time>
      </trkpt>
      <trkpt lat="43.59922" lon="6.24881">
        <ele>425.04</ele>
        <time>2015-02-18T17:18:17Z</time>
      </trkpt>
      <trkpt lat="43.59917" lon="6.24891">
        <ele>425.52</ele>
        <time>2015-02-18T17:18:25Z</time>
      </trkpt>
      <trkpt lat="43.59914" lon="6.24902">
        <ele>425.52</ele>
        <time>2015-02-18T17:18:33Z</time>
      </trkpt>
      <trkpt lat="43.59912" lon="6.24905">
        <ele>426</ele>
        <time>2015-02-18T17:18:36Z</time>
      </trkpt>
      <trkpt lat="43.59909" lon="6.24916">
        <ele>425.52</ele>
        <time>2015-02-18T17:18:48Z</time>
      </trkpt>
      <trkpt lat="43.5991" lon="6.24919">
        <ele>426.96</ele>
        <time>2015-02-18T17:18:58Z</time>
      </trkpt>
      <trkpt lat="43.59908" lon="6.24922">
        <ele>426.96</ele>
        <time>2015-02-18T17:19:11Z</time>
      </trkpt>
      <trkpt lat="43.59907" lon="6.24924">
        <ele>426.96</ele>
        <time>2015-02-18T17:19:15Z</time>
      </trkpt>
      <trkpt lat="43.59906" lon="6.24928">
        <ele>426.96</ele>
        <time>2015-02-18T17:19:28Z</time>
      </trkpt>
      <trkpt lat="43.59907" lon="6.24927">
        <ele>426</ele>
        <time>2015-02-18T17:19:39Z</time>
      </trkpt>
      <trkpt lat="43.59907" lon="6.24925">
        <ele>427.44</ele>
        <time>2015-02-18T17:19:49Z</time>
      </trkpt>
      <trkpt lat="43.59906" lon="6.24925">
        <ele>427.92</ele>
        <time>2015-02-18T17:20:04Z</time>
      </trkpt>
      <trkpt lat="43.59905" lon="6.24925">
        <ele>427.92</ele>
        <time>2015-02-18T17:20:16Z</time>
      </trkpt>
      <trkpt lat="43.59905" lon="6.24928">
        <ele>427.92</ele>
        <time>2015-02-18T17:20:26Z</time>
      </trkpt>
      <trkpt lat="43.59907" lon="6.24929">
        <ele>427.92</ele>
        <time>2015-02-18T17:20:38Z</time>
      </trkpt>
      <trkpt lat="43.59908" lon="6.24925">
        <ele>426.96</ele>
        <time>2015-02-18T17:20:53Z</time>
      </trkpt>
      <trkpt lat="43.59908" lon="6.24923">
        <ele>427.92</ele>
        <time>2015-02-18T17:21:11Z</time>
      </trkpt>
      <trkpt lat="43.59906" lon="6.24927">
        <ele>428.4</ele>
        <time>2015-02-18T17:21:21Z</time>
      </trkpt>
      <trkpt lat="43.59907" lon="6.2493">
        <ele>428.4</ele>
        <time>2015-02-18T17:21:31Z</time>
      </trkpt>
      <trkpt lat="43.59907" lon="6.2493">
        <ele>428.4</ele>
        <time>2015-02-18T17:21:49Z</time>
      </trkpt>
      <trkpt lat="43.59905" lon="6.24927">
        <ele>429.85</ele>
        <time>2015-02-18T17:21:57Z</time>
      </trkpt>
      <trkpt lat="43.59907" lon="6.24919">
        <ele>427.92</ele>
        <time>2015-02-18T17:22:08Z</time>
      </trkpt>
      <trkpt lat="43.59908" lon="6.24919">
        <ele>428.89</ele>
        <time>2015-02-18T17:22:24Z</time>
      </trkpt>
      <trkpt lat="43.59908" lon="6.24919">
        <ele>428.89</ele>
        <time>2015-02-18T17:22:25Z</time>
      </trkpt>
      <trkpt lat="43.59912" lon="6.24915">
        <ele>428.89</ele>
        <time>2015-02-18T17:22:29Z</time>
      </trkpt>
      <trkpt lat="43.59922" lon="6.24909">
        <ele>428.89</ele>
        <time>2015-02-18T17:22:42Z</time>
      </trkpt>
      <trkpt lat="43.59921" lon="6.24908">
        <ele>428.89</ele>
        <time>2015-02-18T17:22:44Z</time>
      </trkpt>
      <trkpt lat="43.59916" lon="6.24904">
        <ele>428.4</ele>
        <time>2015-02-18T17:22:53Z</time>
      </trkpt>
      <trkpt lat="43.59918" lon="6.24907">
        <ele>428.89</ele>
        <time>2015-02-18T17:22:57Z</time>
      </trkpt>
      <trkpt lat="43.59917" lon="6.24911">
        <ele>428.89</ele>
        <time>2015-02-18T17:23:00Z</time>
      </trkpt>
      <trkpt lat="43.59908" lon="6.24929">
        <ele>429.37</ele>
        <time>2015-02-18T17:23:14Z</time>
      </trkpt>
      <trkpt lat="43.59903" lon="6.24939">
        <ele>429.37</ele>
        <time>2015-02-18T17:23:27Z</time>
      </trkpt>
      <trkpt lat="43.59902" lon="6.24934">
        <ele>429.85</ele>
        <time>2015-02-18T17:23:36Z</time>
      </trkpt>
      <trkpt lat="43.59902" lon="6.24935">
        <ele>429.85</ele>
        <time>2015-02-18T17:23:37Z</time>
      </trkpt>
      <trkpt lat="43.59903" lon="6.24931">
        <ele>430.33</ele>
        <time>2015-02-18T17:23:48Z</time>
      </trkpt>
      <trkpt lat="43.59898" lon="6.2494">
        <ele>429.85</ele>
        <time>2015-02-18T17:24:00Z</time>
      </trkpt>
      <trkpt lat="43.59899" lon="6.24942">
        <ele>430.33</ele>
        <time>2015-02-18T17:24:10Z</time>
      </trkpt>
      <trkpt lat="43.59898" lon="6.24948">
        <ele>430.33</ele>
        <time>2015-02-18T17:24:19Z</time>
      </trkpt>
      <trkpt lat="43.59896" lon="6.24948">
        <ele>429.85</ele>
        <time>2015-02-18T17:24:31Z</time>
      </trkpt>
      <trkpt lat="43.59897" lon="6.24947">
        <ele>430.33</ele>
        <time>2015-02-18T17:24:41Z</time>
      </trkpt>
      <trkpt lat="43.59896" lon="6.24947">
        <ele>430.33</ele>
        <time>2015-02-18T17:24:49Z</time>
      </trkpt>
      <trkpt lat="43.599" lon="6.24933">
        <ele>430.33</ele>
        <time>2015-02-18T17:25:01Z</time>
      </trkpt>
      <trkpt lat="43.59902" lon="6.24939">
        <ele>430.81</ele>
        <time>2015-02-18T17:25:13Z</time>
      </trkpt>
      <trkpt lat="43.59902" lon="6.24937">
        <ele>430.33</ele>
        <time>2015-02-18T17:25:16Z</time>
      </trkpt>
      <trkpt lat="43.59902" lon="6.24935">
        <ele>430.81</ele>
        <time>2015-02-18T17:25:18Z</time>
      </trkpt>
      <trkpt lat="43.59902" lon="6.24932">
        <ele>430.81</ele>
        <time>2015-02-18T17:25:20Z</time>
      </trkpt>
      <trkpt lat="43.59901" lon="6.2493">
        <ele>430.33</ele>
        <time>2015-02-18T17:25:22Z</time>
      </trkpt>
      <trkpt lat="43.59904" lon="6.24932">
        <ele>430.33</ele>
        <time>2015-02-18T17:25:33Z</time>
      </trkpt>
      <trkpt lat="43.59907" lon="6.24932">
        <ele>430.81</ele>
        <time>2015-02-18T17:25:44Z</time>
      </trkpt>
      <trkpt lat="43.59906" lon="6.24929">
        <ele>430.81</ele>
        <time>2015-02-18T17:25:54Z</time>
      </trkpt>
      <trkpt lat="43.59921" lon="6.24943">
        <ele>431.77</ele>
        <time>2015-02-18T17:26:08Z</time>
      </trkpt>
      <trkpt lat="43.59925" lon="6.24944">
        <ele>431.77</ele>
        <time>2015-02-18T17:26:11Z</time>
      </trkpt>
      <trkpt lat="43.59928" lon="6.24948">
        <ele>432.25</ele>
        <time>2015-02-18T17:26:18Z</time>
      </trkpt>
      <trkpt lat="43.59932" lon="6.24949">
        <ele>432.25</ele>
        <time>2015-02-18T17:26:22Z</time>
      </trkpt>
      <trkpt lat="43.59942" lon="6.24951">
        <ele>433.21</ele>
        <time>2015-02-18T17:26:30Z</time>
      </trkpt>
      <trkpt lat="43.59964" lon="6.24947">
        <ele>434.17</ele>
        <time>2015-02-18T17:26:48Z</time>
      </trkpt>
      <trkpt lat="43.59975" lon="6.24948">
        <ele>435.61</ele>
        <time>2015-02-18T17:27:02Z</time>
      </trkpt>
      <trkpt lat="43.59978" lon="6.24952">
        <ele>437.54</ele>
        <time>2015-02-18T17:27:13Z</time>
      </trkpt>
      <trkpt lat="43.59982" lon="6.24954">
        <ele>438.5</ele>
        <time>2015-02-18T17:27:24Z</time>
      </trkpt>
      <trkpt lat="43.59985" lon="6.24956">
        <ele>438.98</ele>
        <time>2015-02-18T17:27:39Z</time>
      </trkpt>
      <trkpt lat="43.59985" lon="6.24956">
        <ele>435.13</ele>
        <time>2015-02-18T17:27:41Z</time>
      </trkpt>
      <trkpt lat="43.59985" lon="6.24956">
        <ele>441.38</ele>
        <time>2015-02-18T17:27:42Z</time>
      </trkpt>
      <trkpt lat="43.59986" lon="6.24956">
        <ele>437.54</ele>
        <time>2015-02-18T17:27:43Z</time>
      </trkpt>
      <trkpt lat="43.59986" lon="6.24956">
        <ele>443.31</ele>
        <time>2015-02-18T17:27:45Z</time>
      </trkpt>
      <trkpt lat="43.59986" lon="6.24956">
        <ele>439.46</ele>
        <time>2015-02-18T17:27:46Z</time>
      </trkpt>
      <trkpt lat="43.59987" lon="6.24957">
        <ele>440.42</ele>
        <time>2015-02-18T17:27:52Z</time>
      </trkpt>
      <trkpt lat="43.59988" lon="6.2496">
        <ele>439.46</ele>
        <time>2015-02-18T17:28:07Z</time>
      </trkpt>
      <trkpt lat="43.59989" lon="6.24961">
        <ele>439.46</ele>
        <time>2015-02-18T17:28:29Z</time>
      </trkpt>
      <trkpt lat="43.59989" lon="6.24962">
        <ele>439.94</ele>
        <time>2015-02-18T17:28:56Z</time>
      </trkpt>
      <trkpt lat="43.59987" lon="6.24963">
        <ele>439.94</ele>
        <time>2015-02-18T17:29:10Z</time>
      </trkpt>
      <trkpt lat="43.59989" lon="6.24962">
        <ele>439.94</ele>
        <time>2015-02-18T17:29:14Z</time>
      </trkpt>
      <trkpt lat="43.59994" lon="6.24957">
        <ele>439.94</ele>
        <time>2015-02-18T17:29:28Z</time>
      </trkpt>
      <trkpt lat="43.59995" lon="6.24959">
        <ele>440.42</ele>
        <time>2015-02-18T17:29:46Z</time>
      </trkpt>
      <trkpt lat="43.59995" lon="6.24959">
        <ele>440.42</ele>
        <time>2015-02-18T17:30:05Z</time>
      </trkpt>
      <trkpt lat="43.59989" lon="6.24961">
        <ele>440.42</ele>
        <time>2015-02-18T17:30:17Z</time>
      </trkpt>
      <trkpt lat="43.59989" lon="6.24961">
        <ele>446.19</ele>
        <time>2015-02-18T17:30:20Z</time>
      </trkpt>
      <trkpt lat="43.59989" lon="6.24961">
        <ele>440.9</ele>
        <time>2015-02-18T17:30:21Z</time>
      </trkpt>
      <trkpt lat="43.59992" lon="6.24959">
        <ele>440.42</ele>
        <time>2015-02-18T17:30:34Z</time>
      </trkpt>
      <trkpt lat="43.59993" lon="6.24958">
        <ele>440.9</ele>
        <time>2015-02-18T17:30:51Z</time>
      </trkpt>
      <trkpt lat="43.59992" lon="6.24958">
        <ele>440.9</ele>
        <time>2015-02-18T17:31:12Z</time>
      </trkpt>
      <trkpt lat="43.59992" lon="6.2496">
        <ele>440.9</ele>
        <time>2015-02-18T17:31:29Z</time>
      </trkpt>
      <trkpt lat="43.5999" lon="6.2496">
        <ele>441.38</ele>
        <time>2015-02-18T17:31:46Z</time>
      </trkpt>
      <trkpt lat="43.5999" lon="6.24958">
        <ele>441.86</ele>
        <time>2015-02-18T17:32:14Z</time>
      </trkpt>
      <trkpt lat="43.59991" lon="6.24961">
        <ele>441.38</ele>
        <time>2015-02-18T17:32:22Z</time>
      </trkpt>
      <trkpt lat="43.59991" lon="6.24973">
        <ele>441.38</ele>
        <time>2015-02-18T17:32:33Z</time>
      </trkpt>
      <trkpt lat="43.59989" lon="6.24976">
        <ele>441.86</ele>
        <time>2015-02-18T17:32:49Z</time>
      </trkpt>
      <trkpt lat="43.59987" lon="6.24977">
        <ele>441.86</ele>
        <time>2015-02-18T17:33:08Z</time>
      </trkpt>
      <trkpt lat="43.59982" lon="6.24973">
        <ele>441.86</ele>
        <time>2015-02-18T17:33:20Z</time>
      </trkpt>
      <trkpt lat="43.59983" lon="6.24979">
        <ele>442.34</ele>
        <time>2015-02-18T17:33:32Z</time>
      </trkpt>
      <trkpt lat="43.59982" lon="6.24977">
        <ele>442.34</ele>
        <time>2015-02-18T17:33:45Z</time>
      </trkpt>
      <trkpt lat="43.59983" lon="6.24976">
        <ele>442.82</ele>
        <time>2015-02-18T17:34:07Z</time>
      </trkpt>
      <trkpt lat="43.59983" lon="6.24975">
        <ele>442.82</ele>
        <time>2015-02-18T17:34:33Z</time>
      </trkpt>
      <trkpt lat="43.59983" lon="6.24975">
        <ele>443.31</ele>
        <time>2015-02-18T17:35:01Z</time>
      </trkpt>
      <trkpt lat="43.59983" lon="6.24974">
        <ele>443.31</ele>
        <time>2015-02-18T17:35:38Z</time>
      </trkpt>
      <trkpt lat="43.59983" lon="6.24974">
        <ele>443.79</ele>
        <time>2015-02-18T17:36:09Z</time>
      </trkpt>
      <trkpt lat="43.59983" lon="6.24975">
        <ele>443.79</ele>
        <time>2015-02-18T17:36:43Z</time>
      </trkpt>
      <trkpt lat="43.59984" lon="6.24975">
        <ele>443.79</ele>
        <time>2015-02-18T17:37:13Z</time>
      </trkpt>
      <trkpt lat="43.59984" lon="6.24975">
        <ele>444.27</ele>
        <time>2015-02-18T17:37:45Z</time>
      </trkpt>
      <trkpt lat="43.59984" lon="6.24976">
        <ele>444.27</ele>
        <time>2015-02-18T17:38:24Z</time>
      </trkpt>
      <trkpt lat="43.59981" lon="6.24978">
        <ele>444.75</ele>
        <time>2015-02-18T17:38:51Z</time>
      </trkpt>
      <trkpt lat="43.59983" lon="6.24977">
        <ele>444.75</ele>
        <time>2015-02-18T17:39:21Z</time>
      </trkpt>
      <trkpt lat="43.59984" lon="6.24978">
        <ele>444.75</ele>
        <time>2015-02-18T17:39:47Z</time>
      </trkpt>
      <trkpt lat="43.59988" lon="6.24977">
        <ele>444.75</ele>
        <time>2015-02-18T17:40:10Z</time>
      </trkpt>
      <trkpt lat="43.59988" lon="6.24975">
        <ele>444.75</ele>
        <time>2015-02-18T17:40:31Z</time>
      </trkpt>
      <trkpt lat="43.59987" lon="6.24975">
        <ele>444.75</ele>
        <time>2015-02-18T17:40:59Z</time>
      </trkpt>
      <trkpt lat="43.59986" lon="6.24976">
        <ele>445.23</ele>
        <time>2015-02-18T17:41:28Z</time>
      </trkpt>
      <trkpt lat="43.59986" lon="6.24976">
        <ele>445.23</ele>
        <time>2015-02-18T17:42:02Z</time>
      </trkpt>
      <trkpt lat="43.59986" lon="6.24977">
        <ele>445.23</ele>
        <time>2015-02-18T17:42:44Z</time>
      </trkpt>
      <trkpt lat="43.59986" lon="6.24976">
        <ele>445.71</ele>
        <time>2015-02-18T17:43:18Z</time>
      </trkpt>
      <trkpt lat="43.59984" lon="6.2498">
        <ele>445.71</ele>
        <time>2015-02-18T17:43:47Z</time>
      </trkpt>
      <trkpt lat="43.59985" lon="6.24978">
        <ele>445.71</ele>
        <time>2015-02-18T17:44:18Z</time>
      </trkpt>
      <trkpt lat="43.59986" lon="6.24976">
        <ele>445.71</ele>
        <time>2015-02-18T17:44:42Z</time>
      </trkpt>
      <trkpt lat="43.59986" lon="6.24975">
        <ele>446.19</ele>
        <time>2015-02-18T17:45:09Z</time>
      </trkpt>
      <trkpt lat="43.59985" lon="6.24976">
        <ele>446.19</ele>
        <time>2015-02-18T17:45:39Z</time>
      </trkpt>
      <trkpt lat="43.59977" lon="6.24989">
        <ele>446.67</ele>
        <time>2015-02-18T17:46:04Z</time>
      </trkpt>
      <trkpt lat="43.59982" lon="6.24983">
        <ele>446.67</ele>
        <time>2015-02-18T17:46:30Z</time>
      </trkpt>
      <trkpt lat="43.59983" lon="6.24982">
        <ele>447.15</ele>
        <time>2015-02-18T17:46:57Z</time>
      </trkpt>
      <trkpt lat="43.59983" lon="6.24984">
        <ele>447.15</ele>
        <time>2015-02-18T17:47:21Z</time>
      </trkpt>
      <trkpt lat="43.59982" lon="6.24988">
        <ele>447.15</ele>
        <time>2015-02-18T17:47:46Z</time>
      </trkpt>
      <trkpt lat="43.5998" lon="6.24994">
        <ele>447.63</ele>
        <time>2015-02-18T17:48:18Z</time>
      </trkpt>
      <trkpt lat="43.59985" lon="6.24984">
        <ele>448.11</ele>
        <time>2015-02-18T17:48:48Z</time>
      </trkpt>
      <trkpt lat="43.59986" lon="6.2498">
        <ele>449.07</ele>
        <time>2015-02-18T17:49:30Z</time>
      </trkpt>
      <trkpt lat="43.59985" lon="6.24979">
        <ele>448.59</ele>
        <time>2015-02-18T17:50:09Z</time>
      </trkpt>
      <trkpt lat="43.59985" lon="6.2498">
        <ele>449.07</ele>
        <time>2015-02-18T17:50:48Z</time>
      </trkpt>
      <trkpt lat="43.59985" lon="6.2498">
        <ele>449.55</ele>
        <time>2015-02-18T17:51:28Z</time>
      </trkpt>
      <trkpt lat="43.59985" lon="6.24979">
        <ele>449.55</ele>
        <time>2015-02-18T17:51:59Z</time>
      </trkpt>
      <trkpt lat="43.59985" lon="6.24979">
        <ele>450.03</ele>
        <time>2015-02-18T17:52:25Z</time>
      </trkpt>
      <trkpt lat="43.59985" lon="6.24978">
        <ele>450.03</ele>
        <time>2015-02-18T17:52:53Z</time>
      </trkpt>
      <trkpt lat="43.59982" lon="6.24983">
        <ele>450.52</ele>
        <time>2015-02-18T17:53:16Z</time>
      </trkpt>
      <trkpt lat="43.5998" lon="6.24981">
        <ele>451</ele>
        <time>2015-02-18T17:53:45Z</time>
      </trkpt>
      <trkpt lat="43.59979" lon="6.24981">
        <ele>451</ele>
        <time>2015-02-18T17:54:07Z</time>
      </trkpt>
      <trkpt lat="43.5998" lon="6.24977">
        <ele>451</ele>
        <time>2015-02-18T17:54:27Z</time>
      </trkpt>
      <trkpt lat="43.5998" lon="6.24976">
        <ele>451</ele>
        <time>2015-02-18T17:54:28Z</time>
      </trkpt>
      <trkpt lat="43.59984" lon="6.2497">
        <ele>451</ele>
        <time>2015-02-18T17:54:48Z</time>
      </trkpt>
      <trkpt lat="43.59986" lon="6.24965">
        <ele>451.48</ele>
        <time>2015-02-18T17:54:55Z</time>
      </trkpt>
      <trkpt lat="43.59986" lon="6.24965">
        <ele>451.48</ele>
        <time>2015-02-18T17:55:20Z</time>
      </trkpt>
      <trkpt lat="43.59993" lon="6.24945">
        <ele>451.48</ele>
        <time>2015-02-18T17:55:46Z</time>
      </trkpt>
      <trkpt lat="43.59999" lon="6.24938">
        <ele>451.48</ele>
        <time>2015-02-18T17:56:11Z</time>
      </trkpt>
      <trkpt lat="43.59989" lon="6.24962">
        <ele>451.48</ele>
        <time>2015-02-18T17:56:43Z</time>
      </trkpt>
      <trkpt lat="43.5999" lon="6.24962">
        <ele>451.96</ele>
        <time>2015-02-18T17:57:07Z</time>
      </trkpt>
      <trkpt lat="43.59992" lon="6.24957">
        <ele>451.96</ele>
        <time>2015-02-18T17:57:28Z</time>
      </trkpt>
      <trkpt lat="43.59995" lon="6.24948">
        <ele>451.96</ele>
        <time>2015-02-18T17:57:57Z</time>
      </trkpt>
      <trkpt lat="43.59993" lon="6.24956">
        <ele>451.96</ele>
        <time>2015-02-18T17:58:22Z</time>
      </trkpt>
      <trkpt lat="43.59987" lon="6.2497">
        <ele>451.96</ele>
        <time>2015-02-18T17:58:50Z</time>
      </trkpt>
      <trkpt lat="43.59983" lon="6.24977">
        <ele>451.96</ele>
        <time>2015-02-18T17:59:15Z</time>
      </trkpt>
      <trkpt lat="43.5998" lon="6.24981">
        <ele>452.44</ele>
        <time>2015-02-18T17:59:40Z</time>
      </trkpt>
      <trkpt lat="43.5998" lon="6.24981">
        <ele>452.44</ele>
        <time>2015-02-18T18:00:06Z</time>
      </trkpt>
      <trkpt lat="43.59981" lon="6.2498">
        <ele>452.44</ele>
        <time>2015-02-18T18:00:34Z</time>
      </trkpt>
      <trkpt lat="43.59981" lon="6.2498">
        <ele>452.44</ele>
        <time>2015-02-18T18:01:01Z</time>
      </trkpt>
      <trkpt lat="43.59982" lon="6.2498">
        <ele>452.92</ele>
        <time>2015-02-18T18:01:24Z</time>
      </trkpt>
      <trkpt lat="43.59981" lon="6.24982">
        <ele>452.92</ele>
        <time>2015-02-18T18:01:47Z</time>
      </trkpt>
      <trkpt lat="43.59986" lon="6.24973">
        <ele>452.92</ele>
        <time>2015-02-18T18:02:16Z</time>
      </trkpt>
      <trkpt lat="43.59984" lon="6.24974">
        <ele>452.92</ele>
        <time>2015-02-18T18:02:46Z</time>
      </trkpt>
      <trkpt lat="43.59983" lon="6.24975">
        <ele>452.92</ele>
        <time>2015-02-18T18:03:08Z</time>
      </trkpt>
      <trkpt lat="43.59981" lon="6.24973">
        <ele>452.92</ele>
        <time>2015-02-18T18:03:32Z</time>
      </trkpt>
      <trkpt lat="43.5998" lon="6.24975">
        <ele>452.92</ele>
        <time>2015-02-18T18:03:57Z</time>
      </trkpt>
      <trkpt lat="43.59982" lon="6.24978">
        <ele>452.92</ele>
        <time>2015-02-18T18:04:26Z</time>
      </trkpt>
      <trkpt lat="43.59985" lon="6.24976">
        <ele>452.92</ele>
        <time>2015-02-18T18:04:47Z</time>
      </trkpt>
      <trkpt lat="43.59984" lon="6.2498">
        <ele>452.92</ele>
        <time>2015-02-18T18:05:09Z</time>
      </trkpt>
      <trkpt lat="43.59986" lon="6.24971">
        <ele>452.92</ele>
        <time>2015-02-18T18:05:35Z</time>
      </trkpt>
      <trkpt lat="43.59984" lon="6.24967">
        <ele>452.92</ele>
        <time>2015-02-18T18:06:04Z</time>
      </trkpt>
      <trkpt lat="43.59983" lon="6.24972">
        <ele>452.92</ele>
        <time>2015-02-18T18:06:27Z</time>
      </trkpt>
      <trkpt lat="43.59982" lon="6.24978">
        <ele>452.92</ele>
        <time>2015-02-18T18:06:51Z</time>
      </trkpt>
      <trkpt lat="43.59982" lon="6.24978">
        <ele>453.4</ele>
        <time>2015-02-18T18:07:16Z</time>
      </trkpt>
      <trkpt lat="43.59981" lon="6.24982">
        <ele>452.92</ele>
        <time>2015-02-18T18:07:38Z</time>
      </trkpt>
      <trkpt lat="43.59982" lon="6.24975">
        <ele>452.92</ele>
        <time>2015-02-18T18:08:08Z</time>
      </trkpt>
      <trkpt lat="43.59982" lon="6.24974">
        <ele>453.4</ele>
        <time>2015-02-18T18:08:37Z</time>
      </trkpt>
      <trkpt lat="43.59981" lon="6.24979">
        <ele>452.92</ele>
        <time>2015-02-18T18:09:03Z</time>
      </trkpt>
      <trkpt lat="43.59982" lon="6.2498">
        <ele>454.36</ele>
        <time>2015-02-18T18:09:32Z</time>
      </trkpt>
      <trkpt lat="43.59982" lon="6.2498">
        <ele>453.4</ele>
        <time>2015-02-18T18:09:58Z</time>
      </trkpt>
      <trkpt lat="43.59977" lon="6.24986">
        <ele>453.4</ele>
        <time>2015-02-18T18:10:22Z</time>
      </trkpt>
      <trkpt lat="43.59976" lon="6.24985">
        <ele>453.4</ele>
        <time>2015-02-18T18:10:45Z</time>
      </trkpt>
      <trkpt lat="43.5998" lon="6.24979">
        <ele>453.4</ele>
        <time>2015-02-18T18:11:08Z</time>
      </trkpt>
      <trkpt lat="43.59981" lon="6.24979">
        <ele>453.4</ele>
        <time>2015-02-18T18:11:33Z</time>
      </trkpt>
      <trkpt lat="43.5998" lon="6.2498">
        <ele>453.4</ele>
        <time>2015-02-18T18:11:38Z</time>
      </trkpt>
      <trkpt lat="43.59977" lon="6.24987">
        <ele>453.4</ele>
        <time>2015-02-18T18:12:06Z</time>
      </trkpt>
      <trkpt lat="43.59982" lon="6.24983">
        <ele>453.4</ele>
        <time>2015-02-18T18:12:27Z</time>
      </trkpt>
      <trkpt lat="43.59987" lon="6.24978">
        <ele>453.4</ele>
        <time>2015-02-18T18:12:57Z</time>
      </trkpt>
      <trkpt lat="43.59987" lon="6.24976">
        <ele>453.4</ele>
        <time>2015-02-18T18:13:28Z</time>
      </trkpt>
      <trkpt lat="43.59991" lon="6.24967">
        <ele>453.4</ele>
        <time>2015-02-18T18:13:42Z</time>
      </trkpt>
      <trkpt lat="43.59993" lon="6.24965">
        <ele>453.4</ele>
        <time>2015-02-18T18:14:07Z</time>
      </trkpt>
      <trkpt lat="43.5999" lon="6.2497">
        <ele>453.4</ele>
        <time>2015-02-18T18:14:34Z</time>
      </trkpt>
      <trkpt lat="43.5999" lon="6.24971">
        <ele>452.92</ele>
        <time>2015-02-18T18:15:03Z</time>
      </trkpt>
      <trkpt lat="43.59989" lon="6.24973">
        <ele>452.92</ele>
        <time>2015-02-18T18:15:34Z</time>
      </trkpt>
      <trkpt lat="43.59988" lon="6.24973">
        <ele>452.92</ele>
        <time>2015-02-18T18:16:03Z</time>
      </trkpt>
      <trkpt lat="43.59987" lon="6.24973">
        <ele>452.92</ele>
        <time>2015-02-18T18:16:29Z</time>
      </trkpt>
      <trkpt lat="43.59985" lon="6.24976">
        <ele>453.4</ele>
        <time>2015-02-18T18:16:54Z</time>
      </trkpt>
      <trkpt lat="43.59988" lon="6.24966">
        <ele>452.92</ele>
        <time>2015-02-18T18:17:16Z</time>
      </trkpt>
      <trkpt lat="43.59986" lon="6.24967">
        <ele>452.92</ele>
        <time>2015-02-18T18:17:50Z</time>
      </trkpt>
      <trkpt lat="43.5998" lon="6.24968">
        <ele>452.92</ele>
        <time>2015-02-18T18:18:12Z</time>
      </trkpt>
      <trkpt lat="43.59981" lon="6.2497">
        <ele>452.92</ele>
        <time>2015-02-18T18:18:32Z</time>
      </trkpt>
      <trkpt lat="43.59988" lon="6.24973">
        <ele>452.92</ele>
        <time>2015-02-18T18:18:55Z</time>
      </trkpt>
      <trkpt lat="43.59987" lon="6.24968">
        <ele>452.92</ele>
        <time>2015-02-18T18:19:18Z</time>
      </trkpt>
      <trkpt lat="43.59983" lon="6.24967">
        <ele>453.4</ele>
        <time>2015-02-18T18:19:38Z</time>
      </trkpt>
      <trkpt lat="43.5998" lon="6.24976">
        <ele>453.4</ele>
        <time>2015-02-18T18:19:49Z</time>
      </trkpt>
      <trkpt lat="43.59977" lon="6.24989">
        <ele>453.4</ele>
        <time>2015-02-18T18:20:10Z</time>
      </trkpt>
      <trkpt lat="43.5998" lon="6.24983">
        <ele>453.4</ele>
        <time>2015-02-18T18:20:39Z</time>
      </trkpt>
      <trkpt lat="43.59982" lon="6.2498">
        <ele>453.4</ele>
        <time>2015-02-18T18:21:04Z</time>
      </trkpt>
      <trkpt lat="43.59992" lon="6.24982">
        <ele>453.4</ele>
        <time>2015-02-18T18:21:27Z</time>
      </trkpt>
      <trkpt lat="43.59994" lon="6.24986">
        <ele>453.4</ele>
        <time>2015-02-18T18:21:54Z</time>
      </trkpt>
      <trkpt lat="43.59994" lon="6.24992">
        <ele>453.4</ele>
        <time>2015-02-18T18:22:20Z</time>
      </trkpt>
      <trkpt lat="43.59989" lon="6.2499">
        <ele>453.4</ele>
        <time>2015-02-18T18:22:53Z</time>
      </trkpt>
      <trkpt lat="43.59983" lon="6.24998">
        <ele>453.4</ele>
        <time>2015-02-18T18:23:23Z</time>
      </trkpt>
      <trkpt lat="43.59983" lon="6.2499">
        <ele>452.92</ele>
        <time>2015-02-18T18:23:48Z</time>
      </trkpt>
      <trkpt lat="43.59982" lon="6.24983">
        <ele>452.92</ele>
        <time>2015-02-18T18:24:14Z</time>
      </trkpt>
      <trkpt lat="43.59981" lon="6.24984">
        <ele>452.92</ele>
        <time>2015-02-18T18:24:15Z</time>
      </trkpt>
      <trkpt lat="43.59977" lon="6.25008">
        <ele>452.92</ele>
        <time>2015-02-18T18:24:39Z</time>
      </trkpt>
      <trkpt lat="43.59975" lon="6.25008">
        <ele>452.92</ele>
        <time>2015-02-18T18:24:58Z</time>
      </trkpt>
      <trkpt lat="43.59977" lon="6.25032">
        <ele>452.92</ele>
        <time>2015-02-18T18:25:20Z</time>
      </trkpt>
      <trkpt lat="43.59979" lon="6.25034">
        <ele>452.92</ele>
        <time>2015-02-18T18:25:42Z</time>
      </trkpt>
      <trkpt lat="43.59983" lon="6.25022">
        <ele>452.92</ele>
        <time>2015-02-18T18:26:03Z</time>
      </trkpt>
      <trkpt lat="43.59984" lon="6.24998">
        <ele>452.92</ele>
        <time>2015-02-18T18:26:23Z</time>
      </trkpt>
      <trkpt lat="43.59981" lon="6.2499">
        <ele>453.4</ele>
        <time>2015-02-18T18:26:42Z</time>
      </trkpt>
      <trkpt lat="43.5998" lon="6.24981">
        <ele>453.4</ele>
        <time>2015-02-18T18:27:05Z</time>
      </trkpt>
      <trkpt lat="43.59989" lon="6.24982">
        <ele>453.4</ele>
        <time>2015-02-18T18:27:24Z</time>
      </trkpt>
      <trkpt lat="43.59984" lon="6.24976">
        <ele>453.4</ele>
        <time>2015-02-18T18:27:47Z</time>
      </trkpt>
      <trkpt lat="43.5997" lon="6.2496">
        <ele>453.4</ele>
        <time>2015-02-18T18:28:10Z</time>
      </trkpt>
      <trkpt lat="43.59973" lon="6.24968">
        <ele>453.88</ele>
        <time>2015-02-18T18:28:34Z</time>
      </trkpt>
      <trkpt lat="43.59978" lon="6.24983">
        <ele>453.88</ele>
        <time>2015-02-18T18:28:58Z</time>
      </trkpt>
      <trkpt lat="43.59981" lon="6.2498">
        <ele>454.36</ele>
        <time>2015-02-18T18:29:21Z</time>
      </trkpt>
      <trkpt lat="43.59981" lon="6.24978">
        <ele>454.36</ele>
        <time>2015-02-18T18:29:47Z</time>
      </trkpt>
      <trkpt lat="43.5998" lon="6.24971">
        <ele>454.36</ele>
        <time>2015-02-18T18:30:10Z</time>
      </trkpt>
      <trkpt lat="43.59981" lon="6.24964">
        <ele>454.36</ele>
        <time>2015-02-18T18:30:39Z</time>
      </trkpt>
      <trkpt lat="43.59981" lon="6.24963">
        <ele>454.36</ele>
        <time>2015-02-18T18:31:03Z</time>
      </trkpt>
      <trkpt lat="43.5998" lon="6.24974">
        <ele>454.36</ele>
        <time>2015-02-18T18:31:23Z</time>
      </trkpt>
      <trkpt lat="43.59979" lon="6.24972">
        <ele>454.36</ele>
        <time>2015-02-18T18:31:47Z</time>
      </trkpt>
      <trkpt lat="43.59979" lon="6.2497">
        <ele>454.36</ele>
        <time>2015-02-18T18:32:17Z</time>
      </trkpt>
      <trkpt lat="43.5998" lon="6.24968">
        <ele>454.84</ele>
        <time>2015-02-18T18:32:39Z</time>
      </trkpt>
      <trkpt lat="43.5998" lon="6.24972">
        <ele>454.84</ele>
        <time>2015-02-18T18:33:09Z</time>
      </trkpt>
      <trkpt lat="43.59981" lon="6.24975">
        <ele>455.32</ele>
        <time>2015-02-18T18:33:39Z</time>
      </trkpt>
      <trkpt lat="43.59981" lon="6.24984">
        <ele>455.32</ele>
        <time>2015-02-18T18:33:58Z</time>
      </trkpt>
      <trkpt lat="43.5998" lon="6.24995">
        <ele>455.32</ele>
        <time>2015-02-18T18:34:07Z</time>
      </trkpt>
      <trkpt lat="43.59967" lon="6.2482">
        <ele>268.83</ele>
        <time>2015-02-19T11:39:29Z</time>
      </trkpt>
      <trkpt lat="43.59964" lon="6.24816">
        <ele>268.35</ele>
        <time>2015-02-19T11:39:44Z</time>
      </trkpt>
      <trkpt lat="43.59964" lon="6.24819">
        <ele>268.35</ele>
        <time>2015-02-19T11:40:05Z</time>
      </trkpt>
      <trkpt lat="43.59965" lon="6.24818">
        <ele>274.59</ele>
        <time>2015-02-19T11:40:21Z</time>
      </trkpt>
      <trkpt lat="43.59965" lon="6.24818">
        <ele>280.36</ele>
        <time>2015-02-19T11:40:22Z</time>
      </trkpt>
      <trkpt lat="43.59965" lon="6.24818">
        <ele>286.13</ele>
        <time>2015-02-19T11:40:23Z</time>
      </trkpt>
      <trkpt lat="43.59965" lon="6.24818">
        <ele>291.9</ele>
        <time>2015-02-19T11:40:24Z</time>
      </trkpt>
      <trkpt lat="43.59965" lon="6.24818">
        <ele>297.18</ele>
        <time>2015-02-19T11:40:25Z</time>
      </trkpt>
      <trkpt lat="43.59964" lon="6.24816">
        <ele>307.76</ele>
        <time>2015-02-19T11:40:27Z</time>
      </trkpt>
      <trkpt lat="43.59964" lon="6.24814">
        <ele>312.57</ele>
        <time>2015-02-19T11:40:28Z</time>
      </trkpt>
      <trkpt lat="43.59963" lon="6.2481">
        <ele>321.7</ele>
        <time>2015-02-19T11:40:30Z</time>
      </trkpt>
      <trkpt lat="43.59962" lon="6.24808">
        <ele>326.02</ele>
        <time>2015-02-19T11:40:31Z</time>
      </trkpt>
      <trkpt lat="43.59962" lon="6.24806">
        <ele>329.87</ele>
        <time>2015-02-19T11:40:32Z</time>
      </trkpt>
      <trkpt lat="43.59962" lon="6.24804">
        <ele>334.2</ele>
        <time>2015-02-19T11:40:33Z</time>
      </trkpt>
      <trkpt lat="43.59962" lon="6.24802">
        <ele>338.04</ele>
        <time>2015-02-19T11:40:34Z</time>
      </trkpt>
      <trkpt lat="43.59962" lon="6.24799">
        <ele>341.89</ele>
        <time>2015-02-19T11:40:35Z</time>
      </trkpt>
      <trkpt lat="43.59963" lon="6.24796">
        <ele>345.25</ele>
        <time>2015-02-19T11:40:36Z</time>
      </trkpt>
      <trkpt lat="43.59964" lon="6.24795">
        <ele>348.62</ele>
        <time>2015-02-19T11:40:37Z</time>
      </trkpt>
      <trkpt lat="43.59964" lon="6.24793">
        <ele>351.98</ele>
        <time>2015-02-19T11:40:38Z</time>
      </trkpt>
      <trkpt lat="43.59965" lon="6.24791">
        <ele>355.34</ele>
        <time>2015-02-19T11:40:39Z</time>
      </trkpt>
      <trkpt lat="43.59965" lon="6.24789">
        <ele>358.23</ele>
        <time>2015-02-19T11:40:40Z</time>
      </trkpt>
      <trkpt lat="43.59966" lon="6.24787">
        <ele>361.59</ele>
        <time>2015-02-19T11:40:41Z</time>
      </trkpt>
      <trkpt lat="43.59966" lon="6.24785">
        <ele>364.96</ele>
        <time>2015-02-19T11:40:42Z</time>
      </trkpt>
      <trkpt lat="43.59967" lon="6.2478">
        <ele>370.73</ele>
        <time>2015-02-19T11:40:44Z</time>
      </trkpt>
      <trkpt lat="43.5997" lon="6.24775">
        <ele>375.53</ele>
        <time>2015-02-19T11:40:46Z</time>
      </trkpt>
      <trkpt lat="43.59972" lon="6.2477">
        <ele>380.82</ele>
        <time>2015-02-19T11:40:48Z</time>
      </trkpt>
      <trkpt lat="43.59973" lon="6.24769">
        <ele>384.66</ele>
        <time>2015-02-19T11:40:49Z</time>
      </trkpt>
      <trkpt lat="43.59975" lon="6.24766">
        <ele>388.03</ele>
        <time>2015-02-19T11:40:51Z</time>
      </trkpt>
      <trkpt lat="43.59977" lon="6.24763">
        <ele>391.87</ele>
        <time>2015-02-19T11:40:53Z</time>
      </trkpt>
      <trkpt lat="43.59978" lon="6.24759">
        <ele>395.72</ele>
        <time>2015-02-19T11:40:55Z</time>
      </trkpt>
      <trkpt lat="43.5998" lon="6.24755">
        <ele>399.57</ele>
        <time>2015-02-19T11:40:57Z</time>
      </trkpt>
      <trkpt lat="43.59982" lon="6.24751">
        <ele>403.41</ele>
        <time>2015-02-19T11:40:59Z</time>
      </trkpt>
      <trkpt lat="43.59983" lon="6.24747">
        <ele>406.29</ele>
        <time>2015-02-19T11:41:01Z</time>
      </trkpt>
      <trkpt lat="43.59985" lon="6.24743">
        <ele>409.18</ele>
        <time>2015-02-19T11:41:03Z</time>
      </trkpt>
      <trkpt lat="43.59988" lon="6.24738">
        <ele>413.5</ele>
        <time>2015-02-19T11:41:06Z</time>
      </trkpt>
      <trkpt lat="43.5999" lon="6.24731">
        <ele>417.35</ele>
        <time>2015-02-19T11:41:09Z</time>
      </trkpt>
      <trkpt lat="43.59993" lon="6.24725">
        <ele>420.23</ele>
        <time>2015-02-19T11:41:12Z</time>
      </trkpt>
      <trkpt lat="43.59995" lon="6.2472">
        <ele>423.6</ele>
        <time>2015-02-19T11:41:15Z</time>
      </trkpt>
      <trkpt lat="43.59997" lon="6.24712">
        <ele>426.96</ele>
        <time>2015-02-19T11:41:19Z</time>
      </trkpt>
      <trkpt lat="43.60002" lon="6.24709">
        <ele>430.33</ele>
        <time>2015-02-19T11:41:24Z</time>
      </trkpt>
      <trkpt lat="43.60007" lon="6.24694">
        <ele>433.69</ele>
        <time>2015-02-19T11:41:32Z</time>
      </trkpt>
      <trkpt lat="43.60014" lon="6.2468">
        <ele>436.58</ele>
        <time>2015-02-19T11:41:42Z</time>
      </trkpt>
      <trkpt lat="43.60024" lon="6.24659">
        <ele>439.94</ele>
        <time>2015-02-19T11:41:55Z</time>
      </trkpt>
      <trkpt lat="43.60031" lon="6.2464">
        <ele>441.38</ele>
        <time>2015-02-19T11:42:07Z</time>
      </trkpt>
      <trkpt lat="43.60033" lon="6.24633">
        <ele>441.86</ele>
        <time>2015-02-19T11:42:11Z</time>
      </trkpt>
      <trkpt lat="43.60037" lon="6.2461">
        <ele>442.82</ele>
        <time>2015-02-19T11:42:25Z</time>
      </trkpt>
      <trkpt lat="43.60033" lon="6.24585">
        <ele>441.86</ele>
        <time>2015-02-19T11:42:38Z</time>
      </trkpt>
      <trkpt lat="43.60029" lon="6.2456">
        <ele>440.9</ele>
        <time>2015-02-19T11:42:50Z</time>
      </trkpt>
      <trkpt lat="43.60026" lon="6.24538">
        <ele>440.42</ele>
        <time>2015-02-19T11:43:03Z</time>
      </trkpt>
      <trkpt lat="43.60028" lon="6.24518">
        <ele>439.46</ele>
        <time>2015-02-19T11:43:16Z</time>
      </trkpt>
      <trkpt lat="43.6003" lon="6.24511">
        <ele>438.98</ele>
        <time>2015-02-19T11:43:28Z</time>
      </trkpt>
      <trkpt lat="43.60039" lon="6.24494">
        <ele>437.54</ele>
        <time>2015-02-19T11:43:41Z</time>
      </trkpt>
      <trkpt lat="43.60041" lon="6.24488">
        <ele>437.06</ele>
        <time>2015-02-19T11:43:46Z</time>
      </trkpt>
      <trkpt lat="43.60047" lon="6.2447">
        <ele>436.58</ele>
        <time>2015-02-19T11:43:58Z</time>
      </trkpt>
      <trkpt lat="43.60054" lon="6.24461">
        <ele>435.61</ele>
        <time>2015-02-19T11:44:05Z</time>
      </trkpt>
      <trkpt lat="43.60064" lon="6.24439">
        <ele>435.13</ele>
        <time>2015-02-19T11:44:20Z</time>
      </trkpt>
      <trkpt lat="43.60074" lon="6.24422">
        <ele>434.65</ele>
        <time>2015-02-19T11:44:35Z</time>
      </trkpt>
      <trkpt lat="43.60075" lon="6.24421">
        <ele>434.65</ele>
        <time>2015-02-19T11:44:38Z</time>
      </trkpt>
      <trkpt lat="43.60084" lon="6.24401">
        <ele>434.17</ele>
        <time>2015-02-19T11:44:54Z</time>
      </trkpt>
      <trkpt lat="43.60094" lon="6.24381">
        <ele>434.17</ele>
        <time>2015-02-19T11:45:09Z</time>
      </trkpt>
      <trkpt lat="43.60104" lon="6.2436">
        <ele>434.17</ele>
        <time>2015-02-19T11:45:24Z</time>
      </trkpt>
      <trkpt lat="43.60113" lon="6.24339">
        <ele>434.17</ele>
        <time>2015-02-19T11:45:38Z</time>
      </trkpt>
      <trkpt lat="43.6012" lon="6.2432">
        <ele>434.17</ele>
        <time>2015-02-19T11:45:51Z</time>
      </trkpt>
      <trkpt lat="43.60126" lon="6.24298">
        <ele>434.65</ele>
        <time>2015-02-19T11:46:04Z</time>
      </trkpt>
      <trkpt lat="43.6013" lon="6.2428">
        <ele>434.65</ele>
        <time>2015-02-19T11:46:15Z</time>
      </trkpt>
      <trkpt lat="43.60135" lon="6.2426">
        <ele>434.65</ele>
        <time>2015-02-19T11:46:26Z</time>
      </trkpt>
      <trkpt lat="43.60135" lon="6.24258">
        <ele>434.65</ele>
        <time>2015-02-19T11:46:27Z</time>
      </trkpt>
      <trkpt lat="43.60137" lon="6.24249">
        <ele>435.13</ele>
        <time>2015-02-19T11:46:32Z</time>
      </trkpt>
      <trkpt lat="43.60144" lon="6.24228">
        <ele>435.61</ele>
        <time>2015-02-19T11:46:45Z</time>
      </trkpt>
      <trkpt lat="43.60149" lon="6.24206">
        <ele>436.1</ele>
        <time>2015-02-19T11:46:58Z</time>
      </trkpt>
      <trkpt lat="43.60157" lon="6.24192">
        <ele>436.1</ele>
        <time>2015-02-19T11:47:09Z</time>
      </trkpt>
      <trkpt lat="43.60169" lon="6.24171">
        <ele>437.06</ele>
        <time>2015-02-19T11:47:26Z</time>
      </trkpt>
      <trkpt lat="43.60172" lon="6.24167">
        <ele>436.1</ele>
        <time>2015-02-19T11:47:29Z</time>
      </trkpt>
      <trkpt lat="43.6018" lon="6.24148">
        <ele>435.61</ele>
        <time>2015-02-19T11:47:41Z</time>
      </trkpt>
      <trkpt lat="43.60191" lon="6.24131">
        <ele>435.61</ele>
        <time>2015-02-19T11:47:53Z</time>
      </trkpt>
      <trkpt lat="43.60196" lon="6.24125">
        <ele>435.61</ele>
        <time>2015-02-19T11:47:59Z</time>
      </trkpt>
      <trkpt lat="43.60205" lon="6.24116">
        <ele>435.61</ele>
        <time>2015-02-19T11:48:09Z</time>
      </trkpt>
      <trkpt lat="43.60214" lon="6.24094">
        <ele>435.61</ele>
        <time>2015-02-19T11:48:24Z</time>
      </trkpt>
      <trkpt lat="43.60226" lon="6.24079">
        <ele>436.1</ele>
        <time>2015-02-19T11:48:36Z</time>
      </trkpt>
      <trkpt lat="43.60234" lon="6.24062">
        <ele>436.1</ele>
        <time>2015-02-19T11:48:48Z</time>
      </trkpt>
      <trkpt lat="43.60237" lon="6.24055">
        <ele>436.1</ele>
        <time>2015-02-19T11:48:53Z</time>
      </trkpt>
      <trkpt lat="43.6024" lon="6.24051">
        <ele>436.1</ele>
        <time>2015-02-19T11:48:56Z</time>
      </trkpt>
      <trkpt lat="43.60243" lon="6.24043">
        <ele>436.58</ele>
        <time>2015-02-19T11:49:02Z</time>
      </trkpt>
      <trkpt lat="43.60253" lon="6.24026">
        <ele>437.54</ele>
        <time>2015-02-19T11:49:14Z</time>
      </trkpt>
      <trkpt lat="43.60258" lon="6.24017">
        <ele>438.5</ele>
        <time>2015-02-19T11:49:21Z</time>
      </trkpt>
      <trkpt lat="43.60259" lon="6.24011">
        <ele>438.98</ele>
        <time>2015-02-19T11:49:24Z</time>
      </trkpt>
      <trkpt lat="43.60261" lon="6.24007">
        <ele>438.98</ele>
        <time>2015-02-19T11:49:27Z</time>
      </trkpt>
      <trkpt lat="43.60271" lon="6.2399">
        <ele>439.94</ele>
        <time>2015-02-19T11:49:39Z</time>
      </trkpt>
      <trkpt lat="43.60277" lon="6.2398">
        <ele>440.42</ele>
        <time>2015-02-19T11:49:46Z</time>
      </trkpt>
      <trkpt lat="43.60288" lon="6.23963">
        <ele>441.38</ele>
        <time>2015-02-19T11:50:02Z</time>
      </trkpt>
      <trkpt lat="43.60289" lon="6.23962">
        <ele>441.38</ele>
        <time>2015-02-19T11:50:03Z</time>
      </trkpt>
      <trkpt lat="43.60306" lon="6.2396">
        <ele>441.86</ele>
        <time>2015-02-19T11:50:16Z</time>
      </trkpt>
      <trkpt lat="43.60308" lon="6.23956">
        <ele>441.86</ele>
        <time>2015-02-19T11:50:19Z</time>
      </trkpt>
      <trkpt lat="43.60312" lon="6.23945">
        <ele>440.42</ele>
        <time>2015-02-19T11:50:26Z</time>
      </trkpt>
      <trkpt lat="43.60317" lon="6.23938">
        <ele>439.94</ele>
        <time>2015-02-19T11:50:31Z</time>
      </trkpt>
      <trkpt lat="43.60321" lon="6.23931">
        <ele>439.94</ele>
        <time>2015-02-19T11:50:38Z</time>
      </trkpt>
      <trkpt lat="43.60323" lon="6.23929">
        <ele>439.46</ele>
        <time>2015-02-19T11:50:43Z</time>
      </trkpt>
      <trkpt lat="43.60328" lon="6.23926">
        <ele>439.46</ele>
        <time>2015-02-19T11:50:48Z</time>
      </trkpt>
      <trkpt lat="43.60333" lon="6.23923">
        <ele>439.46</ele>
        <time>2015-02-19T11:50:54Z</time>
      </trkpt>
      <trkpt lat="43.60348" lon="6.23919">
        <ele>440.42</ele>
        <time>2015-02-19T11:51:06Z</time>
      </trkpt>
      <trkpt lat="43.60365" lon="6.23925">
        <ele>440.9</ele>
        <time>2015-02-19T11:51:18Z</time>
      </trkpt>
      <trkpt lat="43.60372" lon="6.23929">
        <ele>440.9</ele>
        <time>2015-02-19T11:51:25Z</time>
      </trkpt>
      <trkpt lat="43.60382" lon="6.23943">
        <ele>441.86</ele>
        <time>2015-02-19T11:51:37Z</time>
      </trkpt>
      <trkpt lat="43.60384" lon="6.23946">
        <ele>441.86</ele>
        <time>2015-02-19T11:51:39Z</time>
      </trkpt>
      <trkpt lat="43.60386" lon="6.23953">
        <ele>442.34</ele>
        <time>2015-02-19T11:51:46Z</time>
      </trkpt>
      <trkpt lat="43.60391" lon="6.23964">
        <ele>441.86</ele>
        <time>2015-02-19T11:51:51Z</time>
      </trkpt>
      <trkpt lat="43.60406" lon="6.23984">
        <ele>442.82</ele>
        <time>2015-02-19T11:52:04Z</time>
      </trkpt>
      <trkpt lat="43.60409" lon="6.2399">
        <ele>443.31</ele>
        <time>2015-02-19T11:52:09Z</time>
      </trkpt>
      <trkpt lat="43.60412" lon="6.23992">
        <ele>443.31</ele>
        <time>2015-02-19T11:52:11Z</time>
      </trkpt>
      <trkpt lat="43.60419" lon="6.23997">
        <ele>444.27</ele>
        <time>2015-02-19T11:52:19Z</time>
      </trkpt>
      <trkpt lat="43.60427" lon="6.24002">
        <ele>445.23</ele>
        <time>2015-02-19T11:52:27Z</time>
      </trkpt>
      <trkpt lat="43.60436" lon="6.24006">
        <ele>445.23</ele>
        <time>2015-02-19T11:52:33Z</time>
      </trkpt>
      <trkpt lat="43.60451" lon="6.24008">
        <ele>445.71</ele>
        <time>2015-02-19T11:52:43Z</time>
      </trkpt>
      <trkpt lat="43.60465" lon="6.24012">
        <ele>447.63</ele>
        <time>2015-02-19T11:52:56Z</time>
      </trkpt>
      <trkpt lat="43.60467" lon="6.24013">
        <ele>447.63</ele>
        <time>2015-02-19T11:52:58Z</time>
      </trkpt>
      <trkpt lat="43.60478" lon="6.24026">
        <ele>450.03</ele>
        <time>2015-02-19T11:53:11Z</time>
      </trkpt>
      <trkpt lat="43.60482" lon="6.2403">
        <ele>450.52</ele>
        <time>2015-02-19T11:53:15Z</time>
      </trkpt>
      <trkpt lat="43.60489" lon="6.24042">
        <ele>451.96</ele>
        <time>2015-02-19T11:53:28Z</time>
      </trkpt>
      <trkpt lat="43.60485" lon="6.24054">
        <ele>452.44</ele>
        <time>2015-02-19T11:53:34Z</time>
      </trkpt>
      <trkpt lat="43.60479" lon="6.24066">
        <ele>452.92</ele>
        <time>2015-02-19T11:53:40Z</time>
      </trkpt>
      <trkpt lat="43.60474" lon="6.24074">
        <ele>452.92</ele>
        <time>2015-02-19T11:53:45Z</time>
      </trkpt>
      <trkpt lat="43.60468" lon="6.24086">
        <ele>452.92</ele>
        <time>2015-02-19T11:53:52Z</time>
      </trkpt>
      <trkpt lat="43.60457" lon="6.2409">
        <ele>453.88</ele>
        <time>2015-02-19T11:54:01Z</time>
      </trkpt>
      <trkpt lat="43.60442" lon="6.24105">
        <ele>453.88</ele>
        <time>2015-02-19T11:54:15Z</time>
      </trkpt>
      <trkpt lat="43.60443" lon="6.24106">
        <ele>454.36</ele>
        <time>2015-02-19T11:54:16Z</time>
      </trkpt>
      <trkpt lat="43.60454" lon="6.24128">
        <ele>455.32</ele>
        <time>2015-02-19T11:54:30Z</time>
      </trkpt>
      <trkpt lat="43.60467" lon="6.24148">
        <ele>455.8</ele>
        <time>2015-02-19T11:54:44Z</time>
      </trkpt>
      <trkpt lat="43.60476" lon="6.24156">
        <ele>456.28</ele>
        <time>2015-02-19T11:54:53Z</time>
      </trkpt>
      <trkpt lat="43.60477" lon="6.2416">
        <ele>456.76</ele>
        <time>2015-02-19T11:54:57Z</time>
      </trkpt>
      <trkpt lat="43.60475" lon="6.24167">
        <ele>458.69</ele>
        <time>2015-02-19T11:55:01Z</time>
      </trkpt>
      <trkpt lat="43.60476" lon="6.24173">
        <ele>459.65</ele>
        <time>2015-02-19T11:55:06Z</time>
      </trkpt>
      <trkpt lat="43.60481" lon="6.24178">
        <ele>459.65</ele>
        <time>2015-02-19T11:55:12Z</time>
      </trkpt>
      <trkpt lat="43.60489" lon="6.24186">
        <ele>460.13</ele>
        <time>2015-02-19T11:55:19Z</time>
      </trkpt>
      <trkpt lat="43.60494" lon="6.24201">
        <ele>462.05</ele>
        <time>2015-02-19T11:55:27Z</time>
      </trkpt>
      <trkpt lat="43.60495" lon="6.24205">
        <ele>463.01</ele>
        <time>2015-02-19T11:55:29Z</time>
      </trkpt>
      <trkpt lat="43.60494" lon="6.24216">
        <ele>463.49</ele>
        <time>2015-02-19T11:55:35Z</time>
      </trkpt>
      <trkpt lat="43.605" lon="6.24221">
        <ele>463.49</ele>
        <time>2015-02-19T11:55:40Z</time>
      </trkpt>
      <trkpt lat="43.60501" lon="6.24226">
        <ele>463.49</ele>
        <time>2015-02-19T11:55:43Z</time>
      </trkpt>
      <trkpt lat="43.60507" lon="6.24253">
        <ele>463.49</ele>
        <time>2015-02-19T11:55:58Z</time>
      </trkpt>
      <trkpt lat="43.60508" lon="6.24255">
        <ele>463.49</ele>
        <time>2015-02-19T11:56:00Z</time>
      </trkpt>
      <trkpt lat="43.60522" lon="6.24267">
        <ele>464.45</ele>
        <time>2015-02-19T11:56:11Z</time>
      </trkpt>
      <trkpt lat="43.60528" lon="6.24279">
        <ele>464.93</ele>
        <time>2015-02-19T11:56:19Z</time>
      </trkpt>
      <trkpt lat="43.60531" lon="6.24287">
        <ele>465.42</ele>
        <time>2015-02-19T11:56:24Z</time>
      </trkpt>
      <trkpt lat="43.60534" lon="6.24311">
        <ele>466.38</ele>
        <time>2015-02-19T11:56:38Z</time>
      </trkpt>
      <trkpt lat="43.60533" lon="6.24326">
        <ele>465.9</ele>
        <time>2015-02-19T11:56:46Z</time>
      </trkpt>
      <trkpt lat="43.60535" lon="6.24345">
        <ele>465.42</ele>
        <time>2015-02-19T11:56:55Z</time>
      </trkpt>
      <trkpt lat="43.60538" lon="6.24351">
        <ele>465.9</ele>
        <time>2015-02-19T11:57:00Z</time>
      </trkpt>
      <trkpt lat="43.60555" lon="6.24366">
        <ele>467.82</ele>
        <time>2015-02-19T11:57:18Z</time>
      </trkpt>
      <trkpt lat="43.60569" lon="6.24374">
        <ele>468.78</ele>
        <time>2015-02-19T11:57:32Z</time>
      </trkpt>
      <trkpt lat="43.60582" lon="6.2438">
        <ele>469.74</ele>
        <time>2015-02-19T11:57:45Z</time>
      </trkpt>
      <trkpt lat="43.6059" lon="6.24384">
        <ele>470.7</ele>
        <time>2015-02-19T11:57:53Z</time>
      </trkpt>
      <trkpt lat="43.60606" lon="6.24375">
        <ele>473.11</ele>
        <time>2015-02-19T11:58:08Z</time>
      </trkpt>
      <trkpt lat="43.60621" lon="6.24367">
        <ele>472.14</ele>
        <time>2015-02-19T11:58:22Z</time>
      </trkpt>
      <trkpt lat="43.60641" lon="6.24369">
        <ele>470.7</ele>
        <time>2015-02-19T11:58:37Z</time>
      </trkpt>
      <trkpt lat="43.6066" lon="6.24369">
        <ele>469.74</ele>
        <time>2015-02-19T11:58:51Z</time>
      </trkpt>
      <trkpt lat="43.60678" lon="6.24368">
        <ele>468.3</ele>
        <time>2015-02-19T11:59:04Z</time>
      </trkpt>
      <trkpt lat="43.60695" lon="6.2437">
        <ele>467.82</ele>
        <time>2015-02-19T11:59:16Z</time>
      </trkpt>
      <trkpt lat="43.60698" lon="6.2437">
        <ele>467.34</ele>
        <time>2015-02-19T11:59:18Z</time>
      </trkpt>
      <trkpt lat="43.60715" lon="6.24367">
        <ele>467.34</ele>
        <time>2015-02-19T11:59:31Z</time>
      </trkpt>
      <trkpt lat="43.60731" lon="6.24372">
        <ele>467.82</ele>
        <time>2015-02-19T11:59:43Z</time>
      </trkpt>
      <trkpt lat="43.60747" lon="6.24379">
        <ele>468.78</ele>
        <time>2015-02-19T11:59:56Z</time>
      </trkpt>
      <trkpt lat="43.60755" lon="6.24384">
        <ele>468.78</ele>
        <time>2015-02-19T12:00:02Z</time>
      </trkpt>
      <trkpt lat="43.60768" lon="6.24391">
        <ele>469.26</ele>
        <time>2015-02-19T12:00:13Z</time>
      </trkpt>
      <trkpt lat="43.60775" lon="6.24399">
        <ele>469.74</ele>
        <time>2015-02-19T12:00:20Z</time>
      </trkpt>
      <trkpt lat="43.60791" lon="6.24413">
        <ele>470.7</ele>
        <time>2015-02-19T12:00:34Z</time>
      </trkpt>
      <trkpt lat="43.60801" lon="6.24431">
        <ele>471.18</ele>
        <time>2015-02-19T12:00:46Z</time>
      </trkpt>
      <trkpt lat="43.60813" lon="6.2445">
        <ele>472.14</ele>
        <time>2015-02-19T12:00:58Z</time>
      </trkpt>
      <trkpt lat="43.60826" lon="6.24468">
        <ele>471.18</ele>
        <time>2015-02-19T12:01:10Z</time>
      </trkpt>
      <trkpt lat="43.60839" lon="6.24501">
        <ele>473.59</ele>
        <time>2015-02-19T12:01:18Z</time>
      </trkpt>
      <trkpt lat="43.60844" lon="6.24517">
        <ele>475.03</ele>
        <time>2015-02-19T12:01:21Z</time>
      </trkpt>
      <trkpt lat="43.60846" lon="6.24521">
        <ele>475.51</ele>
        <time>2015-02-19T12:01:22Z</time>
      </trkpt>
      <trkpt lat="43.6085" lon="6.24524">
        <ele>475.99</ele>
        <time>2015-02-19T12:01:23Z</time>
      </trkpt>
      <trkpt lat="43.60867" lon="6.24539">
        <ele>479.35</ele>
        <time>2015-02-19T12:01:27Z</time>
      </trkpt>
      <trkpt lat="43.60871" lon="6.24543">
        <ele>479.84</ele>
        <time>2015-02-19T12:01:28Z</time>
      </trkpt>
      <trkpt lat="43.60875" lon="6.24547">
        <ele>480.8</ele>
        <time>2015-02-19T12:01:29Z</time>
      </trkpt>
      <trkpt lat="43.60878" lon="6.24552">
        <ele>481.76</ele>
        <time>2015-02-19T12:01:30Z</time>
      </trkpt>
      <trkpt lat="43.6088" lon="6.24557">
        <ele>483.68</ele>
        <time>2015-02-19T12:01:31Z</time>
      </trkpt>
      <trkpt lat="43.60882" lon="6.24564">
        <ele>484.16</ele>
        <time>2015-02-19T12:01:32Z</time>
      </trkpt>
      <trkpt lat="43.60883" lon="6.24571">
        <ele>484.64</ele>
        <time>2015-02-19T12:01:33Z</time>
      </trkpt>
      <trkpt lat="43.60883" lon="6.24578">
        <ele>485.12</ele>
        <time>2015-02-19T12:01:34Z</time>
      </trkpt>
      <trkpt lat="43.60886" lon="6.24605">
        <ele>486.56</ele>
        <time>2015-02-19T12:01:38Z</time>
      </trkpt>
      <trkpt lat="43.60886" lon="6.24619">
        <ele>487.05</ele>
        <time>2015-02-19T12:01:40Z</time>
      </trkpt>
      <trkpt lat="43.60887" lon="6.24627">
        <ele>486.56</ele>
        <time>2015-02-19T12:01:41Z</time>
      </trkpt>
      <trkpt lat="43.60888" lon="6.24646">
        <ele>487.05</ele>
        <time>2015-02-19T12:01:43Z</time>
      </trkpt>
      <trkpt lat="43.60891" lon="6.24656">
        <ele>487.53</ele>
        <time>2015-02-19T12:01:44Z</time>
      </trkpt>
      <trkpt lat="43.60896" lon="6.24681">
        <ele>489.45</ele>
        <time>2015-02-19T12:01:47Z</time>
      </trkpt>
      <trkpt lat="43.60902" lon="6.24708">
        <ele>489.93</ele>
        <time>2015-02-19T12:01:51Z</time>
      </trkpt>
      <trkpt lat="43.60903" lon="6.24716">
        <ele>490.41</ele>
        <time>2015-02-19T12:01:52Z</time>
      </trkpt>
      <trkpt lat="43.60904" lon="6.24724">
        <ele>489.93</ele>
        <time>2015-02-19T12:01:53Z</time>
      </trkpt>
      <trkpt lat="43.60904" lon="6.24731">
        <ele>490.41</ele>
        <time>2015-02-19T12:01:54Z</time>
      </trkpt>
      <trkpt lat="43.60904" lon="6.24738">
        <ele>490.89</ele>
        <time>2015-02-19T12:01:55Z</time>
      </trkpt>
      <trkpt lat="43.60904" lon="6.24744">
        <ele>491.37</ele>
        <time>2015-02-19T12:01:56Z</time>
      </trkpt>
      <trkpt lat="43.60903" lon="6.24751">
        <ele>491.85</ele>
        <time>2015-02-19T12:01:57Z</time>
      </trkpt>
      <trkpt lat="43.60902" lon="6.24758">
        <ele>493.29</ele>
        <time>2015-02-19T12:01:58Z</time>
      </trkpt>
      <trkpt lat="43.60902" lon="6.24765">
        <ele>493.29</ele>
        <time>2015-02-19T12:01:59Z</time>
      </trkpt>
      <trkpt lat="43.60901" lon="6.24778">
        <ele>493.77</ele>
        <time>2015-02-19T12:02:01Z</time>
      </trkpt>
      <trkpt lat="43.60902" lon="6.24785">
        <ele>494.74</ele>
        <time>2015-02-19T12:02:02Z</time>
      </trkpt>
      <trkpt lat="43.60905" lon="6.24807">
        <ele>496.18</ele>
        <time>2015-02-19T12:02:05Z</time>
      </trkpt>
      <trkpt lat="43.60905" lon="6.24816">
        <ele>496.18</ele>
        <time>2015-02-19T12:02:06Z</time>
      </trkpt>
      <trkpt lat="43.60907" lon="6.24849">
        <ele>497.62</ele>
        <time>2015-02-19T12:02:10Z</time>
      </trkpt>
      <trkpt lat="43.60906" lon="6.24857">
        <ele>498.1</ele>
        <time>2015-02-19T12:02:11Z</time>
      </trkpt>
      <trkpt lat="43.60902" lon="6.24874">
        <ele>499.06</ele>
        <time>2015-02-19T12:02:13Z</time>
      </trkpt>
      <trkpt lat="43.60899" lon="6.24881">
        <ele>499.54</ele>
        <time>2015-02-19T12:02:14Z</time>
      </trkpt>
      <trkpt lat="43.60895" lon="6.24886">
        <ele>500.02</ele>
        <time>2015-02-19T12:02:15Z</time>
      </trkpt>
      <trkpt lat="43.60877" lon="6.24912">
        <ele>501.95</ele>
        <time>2015-02-19T12:02:20Z</time>
      </trkpt>
      <trkpt lat="43.60872" lon="6.24925">
        <ele>502.91</ele>
        <time>2015-02-19T12:02:22Z</time>
      </trkpt>
      <trkpt lat="43.60869" lon="6.2493">
        <ele>503.39</ele>
        <time>2015-02-19T12:02:23Z</time>
      </trkpt>
      <trkpt lat="43.60867" lon="6.24934">
        <ele>502.91</ele>
        <time>2015-02-19T12:02:24Z</time>
      </trkpt>
      <trkpt lat="43.60866" lon="6.24938">
        <ele>502.43</ele>
        <time>2015-02-19T12:02:25Z</time>
      </trkpt>
      <trkpt lat="43.60865" lon="6.24942">
        <ele>502.91</ele>
        <time>2015-02-19T12:02:26Z</time>
      </trkpt>
      <trkpt lat="43.60861" lon="6.24958">
        <ele>500.98</ele>
        <time>2015-02-19T12:02:34Z</time>
      </trkpt>
      <trkpt lat="43.60859" lon="6.24962">
        <ele>500.98</ele>
        <time>2015-02-19T12:02:38Z</time>
      </trkpt>
      <trkpt lat="43.60859" lon="6.24964">
        <ele>500.98</ele>
        <time>2015-02-19T12:02:39Z</time>
      </trkpt>
      <trkpt lat="43.60851" lon="6.24997">
        <ele>500.02</ele>
        <time>2015-02-19T12:02:51Z</time>
      </trkpt>
      <trkpt lat="43.60838" lon="6.25032">
        <ele>498.1</ele>
        <time>2015-02-19T12:03:03Z</time>
      </trkpt>
      <trkpt lat="43.60836" lon="6.25036">
        <ele>498.1</ele>
        <time>2015-02-19T12:03:05Z</time>
      </trkpt>
      <trkpt lat="43.60835" lon="6.2504">
        <ele>498.1</ele>
        <time>2015-02-19T12:03:17Z</time>
      </trkpt>
      <trkpt lat="43.60835" lon="6.2504">
        <ele>497.62</ele>
        <time>2015-02-19T12:03:18Z</time>
      </trkpt>
      <trkpt lat="43.60833" lon="6.25043">
        <ele>498.1</ele>
        <time>2015-02-19T12:03:25Z</time>
      </trkpt>
      <trkpt lat="43.60835" lon="6.25041">
        <ele>498.1</ele>
        <time>2015-02-19T12:03:27Z</time>
      </trkpt>
      <trkpt lat="43.60848" lon="6.25043">
        <ele>498.58</ele>
        <time>2015-02-19T12:03:40Z</time>
      </trkpt>
      <trkpt lat="43.60855" lon="6.25045">
        <ele>499.06</ele>
        <time>2015-02-19T12:03:47Z</time>
      </trkpt>
      <trkpt lat="43.60858" lon="6.25047">
        <ele>499.06</ele>
        <time>2015-02-19T12:03:49Z</time>
      </trkpt>
      <trkpt lat="43.60889" lon="6.25053">
        <ele>499.06</ele>
        <time>2015-02-19T12:04:02Z</time>
      </trkpt>
      <trkpt lat="43.60893" lon="6.25053">
        <ele>499.06</ele>
        <time>2015-02-19T12:04:04Z</time>
      </trkpt>
      <trkpt lat="43.60902" lon="6.25057">
        <ele>500.02</ele>
        <time>2015-02-19T12:04:08Z</time>
      </trkpt>
      <trkpt lat="43.60928" lon="6.25086">
        <ele>501.95</ele>
        <time>2015-02-19T12:04:19Z</time>
      </trkpt>
      <trkpt lat="43.60942" lon="6.25128">
        <ele>503.39</ele>
        <time>2015-02-19T12:04:29Z</time>
      </trkpt>
      <trkpt lat="43.60941" lon="6.25168">
        <ele>504.83</ele>
        <time>2015-02-19T12:04:38Z</time>
      </trkpt>
      <trkpt lat="43.60932" lon="6.25218">
        <ele>505.31</ele>
        <time>2015-02-19T12:04:49Z</time>
      </trkpt>
      <trkpt lat="43.60933" lon="6.25255">
        <ele>507.71</ele>
        <time>2015-02-19T12:04:57Z</time>
      </trkpt>
      <trkpt lat="43.60943" lon="6.25295">
        <ele>510.6</ele>
        <time>2015-02-19T12:05:06Z</time>
      </trkpt>
      <trkpt lat="43.60953" lon="6.25309">
        <ele>511.56</ele>
        <time>2015-02-19T12:05:11Z</time>
      </trkpt>
      <trkpt lat="43.60969" lon="6.25327">
        <ele>514.44</ele>
        <time>2015-02-19T12:05:18Z</time>
      </trkpt>
      <trkpt lat="43.60976" lon="6.25336">
        <ele>515.88</ele>
        <time>2015-02-19T12:05:21Z</time>
      </trkpt>
      <trkpt lat="43.60984" lon="6.25382">
        <ele>519.25</ele>
        <time>2015-02-19T12:05:32Z</time>
      </trkpt>
      <trkpt lat="43.60981" lon="6.25412">
        <ele>521.65</ele>
        <time>2015-02-19T12:05:39Z</time>
      </trkpt>
      <trkpt lat="43.60976" lon="6.25435">
        <ele>524.54</ele>
        <time>2015-02-19T12:05:45Z</time>
      </trkpt>
      <trkpt lat="43.60975" lon="6.25443">
        <ele>525.5</ele>
        <time>2015-02-19T12:05:47Z</time>
      </trkpt>
      <trkpt lat="43.60966" lon="6.25459">
        <ele>527.42</ele>
        <time>2015-02-19T12:05:52Z</time>
      </trkpt>
      <trkpt lat="43.60962" lon="6.25468">
        <ele>529.34</ele>
        <time>2015-02-19T12:05:55Z</time>
      </trkpt>
      <trkpt lat="43.60958" lon="6.25509">
        <ele>532.71</ele>
        <time>2015-02-19T12:06:06Z</time>
      </trkpt>
      <trkpt lat="43.60957" lon="6.25524">
        <ele>534.63</ele>
        <time>2015-02-19T12:06:10Z</time>
      </trkpt>
      <trkpt lat="43.60964" lon="6.25543">
        <ele>536.55</ele>
        <time>2015-02-19T12:06:15Z</time>
      </trkpt>
      <trkpt lat="43.60967" lon="6.25572">
        <ele>539.92</ele>
        <time>2015-02-19T12:06:24Z</time>
      </trkpt>
      <trkpt lat="43.60968" lon="6.2558">
        <ele>540.4</ele>
        <time>2015-02-19T12:06:29Z</time>
      </trkpt>
      <trkpt lat="43.60964" lon="6.256">
        <ele>541.84</ele>
        <time>2015-02-19T12:06:43Z</time>
      </trkpt>
      <trkpt lat="43.60961" lon="6.25608">
        <ele>542.32</ele>
        <time>2015-02-19T12:06:48Z</time>
      </trkpt>
      <trkpt lat="43.60955" lon="6.25629">
        <ele>542.8</ele>
        <time>2015-02-19T12:07:02Z</time>
      </trkpt>
      <trkpt lat="43.60954" lon="6.25635">
        <ele>543.28</ele>
        <time>2015-02-19T12:07:06Z</time>
      </trkpt>
      <trkpt lat="43.6095" lon="6.25646">
        <ele>542.8</ele>
        <time>2015-02-19T12:07:13Z</time>
      </trkpt>
      <trkpt lat="43.60947" lon="6.25658">
        <ele>542.32</ele>
        <time>2015-02-19T12:07:19Z</time>
      </trkpt>
      <trkpt lat="43.60941" lon="6.2568">
        <ele>541.36</ele>
        <time>2015-02-19T12:07:29Z</time>
      </trkpt>
      <trkpt lat="43.60937" lon="6.25706">
        <ele>539.92</ele>
        <time>2015-02-19T12:07:42Z</time>
      </trkpt>
      <trkpt lat="43.60937" lon="6.25708">
        <ele>539.92</ele>
        <time>2015-02-19T12:07:43Z</time>
      </trkpt>
      <trkpt lat="43.60935" lon="6.25716">
        <ele>539.44</ele>
        <time>2015-02-19T12:07:48Z</time>
      </trkpt>
      <trkpt lat="43.60935" lon="6.25724">
        <ele>538.96</ele>
        <time>2015-02-19T12:07:51Z</time>
      </trkpt>
      <trkpt lat="43.60932" lon="6.25752">
        <ele>537.99</ele>
        <time>2015-02-19T12:08:05Z</time>
      </trkpt>
      <trkpt lat="43.60932" lon="6.25755">
        <ele>537.99</ele>
        <time>2015-02-19T12:08:07Z</time>
      </trkpt>
      <trkpt lat="43.6093" lon="6.25778">
        <ele>537.51</ele>
        <time>2015-02-19T12:08:20Z</time>
      </trkpt>
      <trkpt lat="43.60928" lon="6.25782">
        <ele>537.51</ele>
        <time>2015-02-19T12:08:23Z</time>
      </trkpt>
      <trkpt lat="43.60928" lon="6.25789">
        <ele>537.51</ele>
        <time>2015-02-19T12:08:29Z</time>
      </trkpt>
      <trkpt lat="43.60929" lon="6.25792">
        <ele>537.03</ele>
        <time>2015-02-19T12:08:32Z</time>
      </trkpt>
      <trkpt lat="43.60931" lon="6.258">
        <ele>537.51</ele>
        <time>2015-02-19T12:08:37Z</time>
      </trkpt>
      <trkpt lat="43.60933" lon="6.25806">
        <ele>537.03</ele>
        <time>2015-02-19T12:08:41Z</time>
      </trkpt>
      <trkpt lat="43.60936" lon="6.25808">
        <ele>537.51</ele>
        <time>2015-02-19T12:08:44Z</time>
      </trkpt>
      <trkpt lat="43.60944" lon="6.25818">
        <ele>537.99</ele>
        <time>2015-02-19T12:08:57Z</time>
      </trkpt>
      <trkpt lat="43.60944" lon="6.25819">
        <ele>537.51</ele>
        <time>2015-02-19T12:08:58Z</time>
      </trkpt>
      <trkpt lat="43.60946" lon="6.25823">
        <ele>537.99</ele>
        <time>2015-02-19T12:09:00Z</time>
      </trkpt>
      <trkpt lat="43.60957" lon="6.25846">
        <ele>538.48</ele>
        <time>2015-02-19T12:09:15Z</time>
      </trkpt>
      <trkpt lat="43.60966" lon="6.25863">
        <ele>538.96</ele>
        <time>2015-02-19T12:09:28Z</time>
      </trkpt>
      <trkpt lat="43.60972" lon="6.25881">
        <ele>539.92</ele>
        <time>2015-02-19T12:09:41Z</time>
      </trkpt>
      <trkpt lat="43.6098" lon="6.25905">
        <ele>540.88</ele>
        <time>2015-02-19T12:09:56Z</time>
      </trkpt>
      <trkpt lat="43.60992" lon="6.25927">
        <ele>542.32</ele>
        <time>2015-02-19T12:10:11Z</time>
      </trkpt>
      <trkpt lat="43.61002" lon="6.25945">
        <ele>542.8</ele>
        <time>2015-02-19T12:10:23Z</time>
      </trkpt>
      <trkpt lat="43.61012" lon="6.25967">
        <ele>542.32</ele>
        <time>2015-02-19T12:10:34Z</time>
      </trkpt>
      <trkpt lat="43.61024" lon="6.25987">
        <ele>541.36</ele>
        <time>2015-02-19T12:10:46Z</time>
      </trkpt>
      <trkpt lat="43.61034" lon="6.26001">
        <ele>540.88</ele>
        <time>2015-02-19T12:10:57Z</time>
      </trkpt>
      <trkpt lat="43.61048" lon="6.26016">
        <ele>540.88</ele>
        <time>2015-02-19T12:11:10Z</time>
      </trkpt>
      <trkpt lat="43.61056" lon="6.26031">
        <ele>541.84</ele>
        <time>2015-02-19T12:11:22Z</time>
      </trkpt>
      <trkpt lat="43.61061" lon="6.26049">
        <ele>542.8</ele>
        <time>2015-02-19T12:11:32Z</time>
      </trkpt>
      <trkpt lat="43.61063" lon="6.26055">
        <ele>543.28</ele>
        <time>2015-02-19T12:11:36Z</time>
      </trkpt>
      <trkpt lat="43.61079" lon="6.26075">
        <ele>542.8</ele>
        <time>2015-02-19T12:11:52Z</time>
      </trkpt>
      <trkpt lat="43.61092" lon="6.26089">
        <ele>543.28</ele>
        <time>2015-02-19T12:12:06Z</time>
      </trkpt>
      <trkpt lat="43.61105" lon="6.26095">
        <ele>543.28</ele>
        <time>2015-02-19T12:12:17Z</time>
      </trkpt>
      <trkpt lat="43.61122" lon="6.26093">
        <ele>544.24</ele>
        <time>2015-02-19T12:12:31Z</time>
      </trkpt>
      <trkpt lat="43.61126" lon="6.26093">
        <ele>544.24</ele>
        <time>2015-02-19T12:12:35Z</time>
      </trkpt>
      <trkpt lat="43.61129" lon="6.26092">
        <ele>544.24</ele>
        <time>2015-02-19T12:12:38Z</time>
      </trkpt>
      <trkpt lat="43.61139" lon="6.26095">
        <ele>543.76</ele>
        <time>2015-02-19T12:12:46Z</time>
      </trkpt>
      <trkpt lat="43.61158" lon="6.26112">
        <ele>542.32</ele>
        <time>2015-02-19T12:13:00Z</time>
      </trkpt>
      <trkpt lat="43.61159" lon="6.26112">
        <ele>542.32</ele>
        <time>2015-02-19T12:13:01Z</time>
      </trkpt>
      <trkpt lat="43.61169" lon="6.26113">
        <ele>542.32</ele>
        <time>2015-02-19T12:13:09Z</time>
      </trkpt>
      <trkpt lat="43.6119" lon="6.26105">
        <ele>541.84</ele>
        <time>2015-02-19T12:13:25Z</time>
      </trkpt>
      <trkpt lat="43.6121" lon="6.26097">
        <ele>541.36</ele>
        <time>2015-02-19T12:13:42Z</time>
      </trkpt>
      <trkpt lat="43.61226" lon="6.26089">
        <ele>541.84</ele>
        <time>2015-02-19T12:13:55Z</time>
      </trkpt>
      <trkpt lat="43.6124" lon="6.2608">
        <ele>541.84</ele>
        <time>2015-02-19T12:14:06Z</time>
      </trkpt>
      <trkpt lat="43.6125" lon="6.26074">
        <ele>541.84</ele>
        <time>2015-02-19T12:14:17Z</time>
      </trkpt>
      <trkpt lat="43.61254" lon="6.26075">
        <ele>541.84</ele>
        <time>2015-02-19T12:14:20Z</time>
      </trkpt>
      <trkpt lat="43.61267" lon="6.26079">
        <ele>541.84</ele>
        <time>2015-02-19T12:14:27Z</time>
      </trkpt>
      <trkpt lat="43.61274" lon="6.26082">
        <ele>542.32</ele>
        <time>2015-02-19T12:14:40Z</time>
      </trkpt>
      <trkpt lat="43.6127" lon="6.26079">
        <ele>542.32</ele>
        <time>2015-02-19T12:14:52Z</time>
      </trkpt>
      <trkpt lat="43.61265" lon="6.2608">
        <ele>542.32</ele>
        <time>2015-02-19T12:14:56Z</time>
      </trkpt>
      <trkpt lat="43.61255" lon="6.2608">
        <ele>541.84</ele>
        <time>2015-02-19T12:15:09Z</time>
      </trkpt>
      <trkpt lat="43.61254" lon="6.2608">
        <ele>541.84</ele>
        <time>2015-02-19T12:15:24Z</time>
      </trkpt>
      <trkpt lat="43.61255" lon="6.26079">
        <ele>541.84</ele>
        <time>2015-02-19T12:15:29Z</time>
      </trkpt>
      <trkpt lat="43.61262" lon="6.26079">
        <ele>541.84</ele>
        <time>2015-02-19T12:15:34Z</time>
      </trkpt>
      <trkpt lat="43.61277" lon="6.26078">
        <ele>542.8</ele>
        <time>2015-02-19T12:15:48Z</time>
      </trkpt>
      <trkpt lat="43.61278" lon="6.26078">
        <ele>542.32</ele>
        <time>2015-02-19T12:15:49Z</time>
      </trkpt>
      <trkpt lat="43.6128" lon="6.26076">
        <ele>542.32</ele>
        <time>2015-02-19T12:15:51Z</time>
      </trkpt>
      <trkpt lat="43.61289" lon="6.26054">
        <ele>542.8</ele>
        <time>2015-02-19T12:16:07Z</time>
      </trkpt>
      <trkpt lat="43.61297" lon="6.26035">
        <ele>543.76</ele>
        <time>2015-02-19T12:16:20Z</time>
      </trkpt>
      <trkpt lat="43.61299" lon="6.2603">
        <ele>543.76</ele>
        <time>2015-02-19T12:16:24Z</time>
      </trkpt>
      <trkpt lat="43.61302" lon="6.26024">
        <ele>544.24</ele>
        <time>2015-02-19T12:16:28Z</time>
      </trkpt>
      <trkpt lat="43.61316" lon="6.26009">
        <ele>545.2</ele>
        <time>2015-02-19T12:16:43Z</time>
      </trkpt>
      <trkpt lat="43.6133" lon="6.26">
        <ele>545.69</ele>
        <time>2015-02-19T12:16:55Z</time>
      </trkpt>
      <trkpt lat="43.61343" lon="6.25987">
        <ele>546.65</ele>
        <time>2015-02-19T12:17:07Z</time>
      </trkpt>
      <trkpt lat="43.61359" lon="6.25979">
        <ele>546.65</ele>
        <time>2015-02-19T12:17:21Z</time>
      </trkpt>
      <trkpt lat="43.61377" lon="6.25975">
        <ele>546.65</ele>
        <time>2015-02-19T12:17:35Z</time>
      </trkpt>
      <trkpt lat="43.61383" lon="6.25975">
        <ele>546.65</ele>
        <time>2015-02-19T12:17:39Z</time>
      </trkpt>
      <trkpt lat="43.61392" lon="6.25973">
        <ele>546.65</ele>
        <time>2015-02-19T12:17:47Z</time>
      </trkpt>
      <trkpt lat="43.61413" lon="6.25973">
        <ele>547.13</ele>
        <time>2015-02-19T12:18:04Z</time>
      </trkpt>
      <trkpt lat="43.61434" lon="6.25973">
        <ele>547.13</ele>
        <time>2015-02-19T12:18:20Z</time>
      </trkpt>
      <trkpt lat="43.61452" lon="6.25977">
        <ele>547.13</ele>
        <time>2015-02-19T12:18:34Z</time>
      </trkpt>
      <trkpt lat="43.61458" lon="6.2598">
        <ele>546.65</ele>
        <time>2015-02-19T12:18:39Z</time>
      </trkpt>
      <trkpt lat="43.61465" lon="6.25982">
        <ele>545.2</ele>
        <time>2015-02-19T12:18:46Z</time>
      </trkpt>
      <trkpt lat="43.61474" lon="6.25984">
        <ele>543.76</ele>
        <time>2015-02-19T12:18:51Z</time>
      </trkpt>
      <trkpt lat="43.61485" lon="6.25985">
        <ele>542.32</ele>
        <time>2015-02-19T12:18:59Z</time>
      </trkpt>
      <trkpt lat="43.61505" lon="6.25982">
        <ele>539.92</ele>
        <time>2015-02-19T12:19:12Z</time>
      </trkpt>
      <trkpt lat="43.61517" lon="6.25978">
        <ele>537.51</ele>
        <time>2015-02-19T12:19:21Z</time>
      </trkpt>
      <trkpt lat="43.61527" lon="6.25965">
        <ele>536.07</ele>
        <time>2015-02-19T12:19:30Z</time>
      </trkpt>
      <trkpt lat="43.6153" lon="6.25959">
        <ele>535.11</ele>
        <time>2015-02-19T12:19:34Z</time>
      </trkpt>
      <trkpt lat="43.61532" lon="6.25955">
        <ele>534.63</ele>
        <time>2015-02-19T12:19:36Z</time>
      </trkpt>
      <trkpt lat="43.61539" lon="6.25934">
        <ele>531.75</ele>
        <time>2015-02-19T12:19:49Z</time>
      </trkpt>
      <trkpt lat="43.61539" lon="6.25931">
        <ele>531.27</ele>
        <time>2015-02-19T12:19:51Z</time>
      </trkpt>
      <trkpt lat="43.61543" lon="6.25925">
        <ele>530.3</ele>
        <time>2015-02-19T12:19:55Z</time>
      </trkpt>
      <trkpt lat="43.61546" lon="6.25917">
        <ele>528.38</ele>
        <time>2015-02-19T12:20:00Z</time>
      </trkpt>
      <trkpt lat="43.61546" lon="6.25915">
        <ele>527.9</ele>
        <time>2015-02-19T12:20:02Z</time>
      </trkpt>
      <trkpt lat="43.61546" lon="6.25911">
        <ele>527.42</ele>
        <time>2015-02-19T12:20:04Z</time>
      </trkpt>
      <trkpt lat="43.61549" lon="6.25901">
        <ele>526.46</ele>
        <time>2015-02-19T12:20:10Z</time>
      </trkpt>
      <trkpt lat="43.61552" lon="6.25896">
        <ele>525.5</ele>
        <time>2015-02-19T12:20:14Z</time>
      </trkpt>
      <trkpt lat="43.61558" lon="6.25876">
        <ele>527.9</ele>
        <time>2015-02-19T12:20:24Z</time>
      </trkpt>
      <trkpt lat="43.61559" lon="6.25874">
        <ele>527.9</ele>
        <time>2015-02-19T12:20:25Z</time>
      </trkpt>
      <trkpt lat="43.6157" lon="6.25847">
        <ele>529.82</ele>
        <time>2015-02-19T12:20:40Z</time>
      </trkpt>
      <trkpt lat="43.6158" lon="6.25836">
        <ele>530.3</ele>
        <time>2015-02-19T12:20:48Z</time>
      </trkpt>
      <trkpt lat="43.616" lon="6.25837">
        <ele>532.23</ele>
        <time>2015-02-19T12:21:02Z</time>
      </trkpt>
      <trkpt lat="43.61617" lon="6.25841">
        <ele>534.15</ele>
        <time>2015-02-19T12:21:16Z</time>
      </trkpt>
      <trkpt lat="43.61631" lon="6.25844">
        <ele>535.59</ele>
        <time>2015-02-19T12:21:28Z</time>
      </trkpt>
      <trkpt lat="43.61651" lon="6.25847">
        <ele>536.55</ele>
        <time>2015-02-19T12:21:43Z</time>
      </trkpt>
      <trkpt lat="43.61659" lon="6.25851">
        <ele>537.03</ele>
        <time>2015-02-19T12:21:48Z</time>
      </trkpt>
      <trkpt lat="43.61671" lon="6.25848">
        <ele>538.48</ele>
        <time>2015-02-19T12:21:58Z</time>
      </trkpt>
      <trkpt lat="43.61677" lon="6.25847">
        <ele>539.44</ele>
        <time>2015-02-19T12:22:02Z</time>
      </trkpt>
      <trkpt lat="43.61682" lon="6.25848">
        <ele>539.92</ele>
        <time>2015-02-19T12:22:06Z</time>
      </trkpt>
      <trkpt lat="43.61694" lon="6.25854">
        <ele>540.4</ele>
        <time>2015-02-19T12:22:16Z</time>
      </trkpt>
      <trkpt lat="43.617" lon="6.25858">
        <ele>540.88</ele>
        <time>2015-02-19T12:22:20Z</time>
      </trkpt>
      <trkpt lat="43.61716" lon="6.2586">
        <ele>542.32</ele>
        <time>2015-02-19T12:22:34Z</time>
      </trkpt>
      <trkpt lat="43.61733" lon="6.25866">
        <ele>543.76</ele>
        <time>2015-02-19T12:22:47Z</time>
      </trkpt>
      <trkpt lat="43.61734" lon="6.25867">
        <ele>544.24</ele>
        <time>2015-02-19T12:22:49Z</time>
      </trkpt>
      <trkpt lat="43.61743" lon="6.25888">
        <ele>545.69</ele>
        <time>2015-02-19T12:23:02Z</time>
      </trkpt>
      <trkpt lat="43.61754" lon="6.25896">
        <ele>547.13</ele>
        <time>2015-02-19T12:23:14Z</time>
      </trkpt>
      <trkpt lat="43.61758" lon="6.25899">
        <ele>547.13</ele>
        <time>2015-02-19T12:23:17Z</time>
      </trkpt>
      <trkpt lat="43.61767" lon="6.25903">
        <ele>548.09</ele>
        <time>2015-02-19T12:23:23Z</time>
      </trkpt>
      <trkpt lat="43.6177" lon="6.25902">
        <ele>548.57</ele>
        <time>2015-02-19T12:23:25Z</time>
      </trkpt>
      <trkpt lat="43.61781" lon="6.25895">
        <ele>550.01</ele>
        <time>2015-02-19T12:23:36Z</time>
      </trkpt>
      <trkpt lat="43.61787" lon="6.25892">
        <ele>550.49</ele>
        <time>2015-02-19T12:23:50Z</time>
      </trkpt>
      <trkpt lat="43.618" lon="6.25892">
        <ele>550.97</ele>
        <time>2015-02-19T12:24:00Z</time>
      </trkpt>
      <trkpt lat="43.61805" lon="6.25894">
        <ele>551.45</ele>
        <time>2015-02-19T12:24:04Z</time>
      </trkpt>
      <trkpt lat="43.61811" lon="6.25896">
        <ele>551.93</ele>
        <time>2015-02-19T12:24:10Z</time>
      </trkpt>
      <trkpt lat="43.61823" lon="6.25885">
        <ele>552.41</ele>
        <time>2015-02-19T12:24:23Z</time>
      </trkpt>
      <trkpt lat="43.61825" lon="6.25882">
        <ele>552.41</ele>
        <time>2015-02-19T12:24:26Z</time>
      </trkpt>
      <trkpt lat="43.61837" lon="6.25867">
        <ele>551.45</ele>
        <time>2015-02-19T12:24:39Z</time>
      </trkpt>
      <trkpt lat="43.61852" lon="6.25849">
        <ele>550.97</ele>
        <time>2015-02-19T12:24:55Z</time>
      </trkpt>
      <trkpt lat="43.61862" lon="6.25834">
        <ele>550.97</ele>
        <time>2015-02-19T12:25:06Z</time>
      </trkpt>
      <trkpt lat="43.61876" lon="6.25814">
        <ele>551.45</ele>
        <time>2015-02-19T12:25:20Z</time>
      </trkpt>
      <trkpt lat="43.61888" lon="6.25799">
        <ele>552.41</ele>
        <time>2015-02-19T12:25:32Z</time>
      </trkpt>
      <trkpt lat="43.61893" lon="6.25792">
        <ele>552.9</ele>
        <time>2015-02-19T12:25:38Z</time>
      </trkpt>
      <trkpt lat="43.61898" lon="6.25784">
        <ele>553.38</ele>
        <time>2015-02-19T12:25:46Z</time>
      </trkpt>
      <trkpt lat="43.61911" lon="6.2577">
        <ele>554.82</ele>
        <time>2015-02-19T12:26:01Z</time>
      </trkpt>
      <trkpt lat="43.61921" lon="6.25754">
        <ele>556.26</ele>
        <time>2015-02-19T12:26:14Z</time>
      </trkpt>
      <trkpt lat="43.61926" lon="6.25746">
        <ele>556.74</ele>
        <time>2015-02-19T12:26:21Z</time>
      </trkpt>
      <trkpt lat="43.61939" lon="6.25731">
        <ele>558.66</ele>
        <time>2015-02-19T12:26:35Z</time>
      </trkpt>
      <trkpt lat="43.61955" lon="6.25713">
        <ele>559.62</ele>
        <time>2015-02-19T12:26:50Z</time>
      </trkpt>
      <trkpt lat="43.61964" lon="6.25701">
        <ele>560.59</ele>
        <time>2015-02-19T12:27:02Z</time>
      </trkpt>
      <trkpt lat="43.61975" lon="6.25687">
        <ele>562.03</ele>
        <time>2015-02-19T12:27:15Z</time>
      </trkpt>
      <trkpt lat="43.61986" lon="6.25668">
        <ele>562.99</ele>
        <time>2015-02-19T12:27:29Z</time>
      </trkpt>
      <trkpt lat="43.6199" lon="6.25661">
        <ele>564.43</ele>
        <time>2015-02-19T12:27:35Z</time>
      </trkpt>
      <trkpt lat="43.62001" lon="6.2565">
        <ele>565.39</ele>
        <time>2015-02-19T12:27:49Z</time>
      </trkpt>
      <trkpt lat="43.62006" lon="6.25646">
        <ele>567.32</ele>
        <time>2015-02-19T12:27:54Z</time>
      </trkpt>
      <trkpt lat="43.62009" lon="6.25643">
        <ele>567.8</ele>
        <time>2015-02-19T12:27:57Z</time>
      </trkpt>
      <trkpt lat="43.62014" lon="6.25637">
        <ele>568.28</ele>
        <time>2015-02-19T12:28:02Z</time>
      </trkpt>
      <trkpt lat="43.62017" lon="6.2561">
        <ele>569.24</ele>
        <time>2015-02-19T12:28:16Z</time>
      </trkpt>
      <trkpt lat="43.62021" lon="6.25588">
        <ele>570.68</ele>
        <time>2015-02-19T12:28:28Z</time>
      </trkpt>
      <trkpt lat="43.62026" lon="6.25569">
        <ele>571.16</ele>
        <time>2015-02-19T12:28:39Z</time>
      </trkpt>
      <trkpt lat="43.62033" lon="6.25549">
        <ele>572.12</ele>
        <time>2015-02-19T12:28:50Z</time>
      </trkpt>
      <trkpt lat="43.62044" lon="6.25527">
        <ele>573.08</ele>
        <time>2015-02-19T12:29:04Z</time>
      </trkpt>
      <trkpt lat="43.62059" lon="6.25514">
        <ele>574.53</ele>
        <time>2015-02-19T12:29:18Z</time>
      </trkpt>
      <trkpt lat="43.62067" lon="6.25493">
        <ele>575.01</ele>
        <time>2015-02-19T12:29:31Z</time>
      </trkpt>
      <trkpt lat="43.62069" lon="6.25487">
        <ele>575.49</ele>
        <time>2015-02-19T12:29:35Z</time>
      </trkpt>
      <trkpt lat="43.62075" lon="6.25464">
        <ele>576.45</ele>
        <time>2015-02-19T12:29:49Z</time>
      </trkpt>
      <trkpt lat="43.62082" lon="6.25441">
        <ele>577.41</ele>
        <time>2015-02-19T12:30:01Z</time>
      </trkpt>
      <trkpt lat="43.62084" lon="6.25434">
        <ele>577.41</ele>
        <time>2015-02-19T12:30:04Z</time>
      </trkpt>
      <trkpt lat="43.62089" lon="6.25418">
        <ele>578.37</ele>
        <time>2015-02-19T12:30:14Z</time>
      </trkpt>
      <trkpt lat="43.62095" lon="6.25405">
        <ele>578.85</ele>
        <time>2015-02-19T12:30:24Z</time>
      </trkpt>
      <trkpt lat="43.62099" lon="6.25403">
        <ele>579.33</ele>
        <time>2015-02-19T12:30:27Z</time>
      </trkpt>
      <trkpt lat="43.62106" lon="6.25387">
        <ele>580.29</ele>
        <time>2015-02-19T12:30:41Z</time>
      </trkpt>
      <trkpt lat="43.62108" lon="6.25383">
        <ele>579.81</ele>
        <time>2015-02-19T12:30:52Z</time>
      </trkpt>
      <trkpt lat="43.6211" lon="6.25376">
        <ele>580.29</ele>
        <time>2015-02-19T12:31:07Z</time>
      </trkpt>
      <trkpt lat="43.62111" lon="6.25375">
        <ele>579.81</ele>
        <time>2015-02-19T12:31:13Z</time>
      </trkpt>
      <trkpt lat="43.62118" lon="6.25356">
        <ele>579.81</ele>
        <time>2015-02-19T12:31:25Z</time>
      </trkpt>
      <trkpt lat="43.62121" lon="6.2535">
        <ele>580.29</ele>
        <time>2015-02-19T12:31:37Z</time>
      </trkpt>
      <trkpt lat="43.62126" lon="6.25347">
        <ele>580.77</ele>
        <time>2015-02-19T12:31:48Z</time>
      </trkpt>
      <trkpt lat="43.62129" lon="6.25343">
        <ele>580.77</ele>
        <time>2015-02-19T12:31:51Z</time>
      </trkpt>
      <trkpt lat="43.6214" lon="6.25317">
        <ele>581.25</ele>
        <time>2015-02-19T12:32:07Z</time>
      </trkpt>
      <trkpt lat="43.62145" lon="6.25301">
        <ele>581.73</ele>
        <time>2015-02-19T12:32:19Z</time>
      </trkpt>
      <trkpt lat="43.62151" lon="6.25294">
        <ele>582.22</ele>
        <time>2015-02-19T12:32:28Z</time>
      </trkpt>
      <trkpt lat="43.62152" lon="6.25294">
        <ele>581.73</ele>
        <time>2015-02-19T12:32:30Z</time>
      </trkpt>
      <trkpt lat="43.62157" lon="6.25292">
        <ele>582.7</ele>
        <time>2015-02-19T12:32:36Z</time>
      </trkpt>
      <trkpt lat="43.62167" lon="6.25293">
        <ele>583.18</ele>
        <time>2015-02-19T12:32:43Z</time>
      </trkpt>
      <trkpt lat="43.62169" lon="6.25291">
        <ele>583.18</ele>
        <time>2015-02-19T12:32:45Z</time>
      </trkpt>
      <trkpt lat="43.62173" lon="6.25295">
        <ele>585.1</ele>
        <time>2015-02-19T12:32:49Z</time>
      </trkpt>
      <trkpt lat="43.62175" lon="6.25298">
        <ele>585.1</ele>
        <time>2015-02-19T12:32:51Z</time>
      </trkpt>
      <trkpt lat="43.62182" lon="6.25314">
        <ele>587.5</ele>
        <time>2015-02-19T12:33:04Z</time>
      </trkpt>
      <trkpt lat="43.62184" lon="6.25317">
        <ele>587.02</ele>
        <time>2015-02-19T12:33:17Z</time>
      </trkpt>
      <trkpt lat="43.62185" lon="6.25317">
        <ele>588.95</ele>
        <time>2015-02-19T12:33:21Z</time>
      </trkpt>
      <trkpt lat="43.62188" lon="6.25315">
        <ele>588.95</ele>
        <time>2015-02-19T12:33:24Z</time>
      </trkpt>
      <trkpt lat="43.622" lon="6.25313">
        <ele>591.35</ele>
        <time>2015-02-19T12:33:39Z</time>
      </trkpt>
      <trkpt lat="43.622" lon="6.25312">
        <ele>591.83</ele>
        <time>2015-02-19T12:33:40Z</time>
      </trkpt>
      <trkpt lat="43.62203" lon="6.2531">
        <ele>592.31</ele>
        <time>2015-02-19T12:33:43Z</time>
      </trkpt>
      <trkpt lat="43.62205" lon="6.25307">
        <ele>593.27</ele>
        <time>2015-02-19T12:33:46Z</time>
      </trkpt>
      <trkpt lat="43.62218" lon="6.253">
        <ele>596.15</ele>
        <time>2015-02-19T12:33:59Z</time>
      </trkpt>
      <trkpt lat="43.62222" lon="6.25302">
        <ele>597.12</ele>
        <time>2015-02-19T12:34:04Z</time>
      </trkpt>
      <trkpt lat="43.6223" lon="6.25305">
        <ele>598.56</ele>
        <time>2015-02-19T12:34:17Z</time>
      </trkpt>
      <trkpt lat="43.62229" lon="6.25307">
        <ele>599.04</ele>
        <time>2015-02-19T12:34:33Z</time>
      </trkpt>
      <trkpt lat="43.62229" lon="6.25307">
        <ele>598.56</ele>
        <time>2015-02-19T12:34:48Z</time>
      </trkpt>
      <trkpt lat="43.6223" lon="6.25309">
        <ele>599.04</ele>
        <time>2015-02-19T12:35:00Z</time>
      </trkpt>
      <trkpt lat="43.62229" lon="6.25311">
        <ele>598.56</ele>
        <time>2015-02-19T12:35:14Z</time>
      </trkpt>
      <trkpt lat="43.62227" lon="6.25312">
        <ele>599.04</ele>
        <time>2015-02-19T12:35:29Z</time>
      </trkpt>
      <trkpt lat="43.62227" lon="6.25311">
        <ele>598.56</ele>
        <time>2015-02-19T12:35:31Z</time>
      </trkpt>
      <trkpt lat="43.62229" lon="6.25304">
        <ele>598.56</ele>
        <time>2015-02-19T12:35:40Z</time>
      </trkpt>
      <trkpt lat="43.6223" lon="6.25308">
        <ele>599.04</ele>
        <time>2015-02-19T12:35:54Z</time>
      </trkpt>
      <trkpt lat="43.62234" lon="6.25309">
        <ele>599.04</ele>
        <time>2015-02-19T12:36:09Z</time>
      </trkpt>
      <trkpt lat="43.62241" lon="6.25298">
        <ele>600.48</ele>
        <time>2015-02-19T12:36:21Z</time>
      </trkpt>
      <trkpt lat="43.62243" lon="6.2529">
        <ele>600.96</ele>
        <time>2015-02-19T12:36:26Z</time>
      </trkpt>
      <trkpt lat="43.62245" lon="6.25284">
        <ele>601.44</ele>
        <time>2015-02-19T12:36:30Z</time>
      </trkpt>
      <trkpt lat="43.62247" lon="6.25279">
        <ele>602.4</ele>
        <time>2015-02-19T12:36:34Z</time>
      </trkpt>
      <trkpt lat="43.62252" lon="6.2528">
        <ele>603.85</ele>
        <time>2015-02-19T12:36:41Z</time>
      </trkpt>
      <trkpt lat="43.62255" lon="6.25292">
        <ele>605.29</ele>
        <time>2015-02-19T12:36:49Z</time>
      </trkpt>
      <trkpt lat="43.62256" lon="6.253">
        <ele>605.77</ele>
        <time>2015-02-19T12:36:54Z</time>
      </trkpt>
      <trkpt lat="43.62258" lon="6.25306">
        <ele>606.73</ele>
        <time>2015-02-19T12:36:58Z</time>
      </trkpt>
      <trkpt lat="43.62265" lon="6.25317">
        <ele>608.17</ele>
        <time>2015-02-19T12:37:10Z</time>
      </trkpt>
      <trkpt lat="43.62273" lon="6.25329">
        <ele>610.57</ele>
        <time>2015-02-19T12:37:21Z</time>
      </trkpt>
      <trkpt lat="43.62283" lon="6.25342">
        <ele>612.02</ele>
        <time>2015-02-19T12:37:31Z</time>
      </trkpt>
      <trkpt lat="43.62288" lon="6.25348">
        <ele>613.46</ele>
        <time>2015-02-19T12:37:37Z</time>
      </trkpt>
      <trkpt lat="43.62292" lon="6.25354">
        <ele>613.94</ele>
        <time>2015-02-19T12:37:42Z</time>
      </trkpt>
      <trkpt lat="43.62298" lon="6.25363">
        <ele>615.86</ele>
        <time>2015-02-19T12:37:49Z</time>
      </trkpt>
      <trkpt lat="43.62302" lon="6.25367">
        <ele>616.34</ele>
        <time>2015-02-19T12:37:54Z</time>
      </trkpt>
      <trkpt lat="43.62311" lon="6.25376">
        <ele>618.26</ele>
        <time>2015-02-19T12:38:02Z</time>
      </trkpt>
      <trkpt lat="43.62316" lon="6.25379">
        <ele>619.23</ele>
        <time>2015-02-19T12:38:07Z</time>
      </trkpt>
      <trkpt lat="43.62329" lon="6.25388">
        <ele>621.63</ele>
        <time>2015-02-19T12:38:20Z</time>
      </trkpt>
      <trkpt lat="43.62332" lon="6.25388">
        <ele>622.59</ele>
        <time>2015-02-19T12:38:22Z</time>
      </trkpt>
      <trkpt lat="43.62341" lon="6.25392">
        <ele>623.55</ele>
        <time>2015-02-19T12:38:30Z</time>
      </trkpt>
      <trkpt lat="43.62344" lon="6.25396">
        <ele>624.03</ele>
        <time>2015-02-19T12:38:34Z</time>
      </trkpt>
      <trkpt lat="43.62348" lon="6.25405">
        <ele>625.96</ele>
        <time>2015-02-19T12:38:42Z</time>
      </trkpt>
      <trkpt lat="43.62349" lon="6.25406">
        <ele>625.96</ele>
        <time>2015-02-19T12:38:44Z</time>
      </trkpt>
      <trkpt lat="43.6235" lon="6.25409">
        <ele>626.44</ele>
        <time>2015-02-19T12:38:46Z</time>
      </trkpt>
      <trkpt lat="43.62354" lon="6.25414">
        <ele>627.4</ele>
        <time>2015-02-19T12:38:51Z</time>
      </trkpt>
      <trkpt lat="43.6236" lon="6.25424">
        <ele>628.36</ele>
        <time>2015-02-19T12:38:58Z</time>
      </trkpt>
      <trkpt lat="43.62365" lon="6.25434">
        <ele>628.84</ele>
        <time>2015-02-19T12:39:05Z</time>
      </trkpt>
      <trkpt lat="43.62366" lon="6.25436">
        <ele>629.32</ele>
        <time>2015-02-19T12:39:07Z</time>
      </trkpt>
      <trkpt lat="43.62364" lon="6.2545">
        <ele>630.76</ele>
        <time>2015-02-19T12:39:21Z</time>
      </trkpt>
      <trkpt lat="43.62364" lon="6.2545">
        <ele>630.76</ele>
        <time>2015-02-19T12:39:44Z</time>
      </trkpt>
      <trkpt lat="43.62363" lon="6.2545">
        <ele>630.76</ele>
        <time>2015-02-19T12:40:02Z</time>
      </trkpt>
      <trkpt lat="43.62364" lon="6.25451">
        <ele>630.76</ele>
        <time>2015-02-19T12:40:15Z</time>
      </trkpt>
      <trkpt lat="43.62364" lon="6.25452">
        <ele>630.76</ele>
        <time>2015-02-19T12:40:32Z</time>
      </trkpt>
      <trkpt lat="43.62364" lon="6.25451">
        <ele>630.28</ele>
        <time>2015-02-19T12:40:52Z</time>
      </trkpt>
      <trkpt lat="43.62362" lon="6.25451">
        <ele>631.24</ele>
        <time>2015-02-19T12:41:09Z</time>
      </trkpt>
      <trkpt lat="43.62361" lon="6.25454">
        <ele>631.24</ele>
        <time>2015-02-19T12:41:12Z</time>
      </trkpt>
      <trkpt lat="43.62366" lon="6.25462">
        <ele>631.72</ele>
        <time>2015-02-19T12:41:18Z</time>
      </trkpt>
      <trkpt lat="43.62372" lon="6.25471">
        <ele>632.68</ele>
        <time>2015-02-19T12:41:26Z</time>
      </trkpt>
      <trkpt lat="43.62377" lon="6.25486">
        <ele>633.65</ele>
        <time>2015-02-19T12:41:38Z</time>
      </trkpt>
      <trkpt lat="43.62387" lon="6.25503">
        <ele>634.13</ele>
        <time>2015-02-19T12:41:50Z</time>
      </trkpt>
      <trkpt lat="43.62395" lon="6.25519">
        <ele>635.57</ele>
        <time>2015-02-19T12:42:04Z</time>
      </trkpt>
      <trkpt lat="43.62402" lon="6.25531">
        <ele>637.01</ele>
        <time>2015-02-19T12:42:17Z</time>
      </trkpt>
      <trkpt lat="43.62407" lon="6.25546">
        <ele>637.97</ele>
        <time>2015-02-19T12:42:30Z</time>
      </trkpt>
      <trkpt lat="43.62411" lon="6.25561">
        <ele>639.41</ele>
        <time>2015-02-19T12:42:42Z</time>
      </trkpt>
      <trkpt lat="43.62415" lon="6.25571">
        <ele>639.89</ele>
        <time>2015-02-19T12:42:49Z</time>
      </trkpt>
      <trkpt lat="43.62418" lon="6.25573">
        <ele>640.38</ele>
        <time>2015-02-19T12:42:59Z</time>
      </trkpt>
      <trkpt lat="43.62414" lon="6.25558">
        <ele>639.89</ele>
        <time>2015-02-19T12:43:10Z</time>
      </trkpt>
      <trkpt lat="43.62417" lon="6.2556">
        <ele>640.38</ele>
        <time>2015-02-19T12:43:22Z</time>
      </trkpt>
      <trkpt lat="43.62419" lon="6.25562">
        <ele>640.38</ele>
        <time>2015-02-19T12:43:24Z</time>
      </trkpt>
      <trkpt lat="43.62424" lon="6.25572">
        <ele>641.82</ele>
        <time>2015-02-19T12:43:34Z</time>
      </trkpt>
      <trkpt lat="43.62431" lon="6.25583">
        <ele>642.78</ele>
        <time>2015-02-19T12:43:45Z</time>
      </trkpt>
      <trkpt lat="43.62442" lon="6.25595">
        <ele>644.7</ele>
        <time>2015-02-19T12:43:57Z</time>
      </trkpt>
      <trkpt lat="43.62451" lon="6.25608">
        <ele>647.1</ele>
        <time>2015-02-19T12:44:12Z</time>
      </trkpt>
      <trkpt lat="43.62456" lon="6.25615">
        <ele>648.07</ele>
        <time>2015-02-19T12:44:20Z</time>
      </trkpt>
      <trkpt lat="43.6246" lon="6.25614">
        <ele>649.51</ele>
        <time>2015-02-19T12:44:25Z</time>
      </trkpt>
      <trkpt lat="43.62461" lon="6.25616">
        <ele>649.99</ele>
        <time>2015-02-19T12:44:29Z</time>
      </trkpt>
      <trkpt lat="43.62459" lon="6.25612">
        <ele>649.99</ele>
        <time>2015-02-19T12:44:35Z</time>
      </trkpt>
      <trkpt lat="43.62459" lon="6.2561">
        <ele>649.99</ele>
        <time>2015-02-19T12:44:37Z</time>
      </trkpt>
      <trkpt lat="43.62457" lon="6.25586">
        <ele>651.43</ele>
        <time>2015-02-19T12:44:52Z</time>
      </trkpt>
      <trkpt lat="43.62455" lon="6.25578">
        <ele>652.39</ele>
        <time>2015-02-19T12:44:58Z</time>
      </trkpt>
      <trkpt lat="43.6246" lon="6.25558">
        <ele>653.83</ele>
        <time>2015-02-19T12:45:12Z</time>
      </trkpt>
      <trkpt lat="43.62466" lon="6.25541">
        <ele>655.28</ele>
        <time>2015-02-19T12:45:24Z</time>
      </trkpt>
      <trkpt lat="43.62473" lon="6.25521">
        <ele>656.24</ele>
        <time>2015-02-19T12:45:38Z</time>
      </trkpt>
      <trkpt lat="43.62483" lon="6.25503">
        <ele>657.68</ele>
        <time>2015-02-19T12:45:52Z</time>
      </trkpt>
      <trkpt lat="43.62491" lon="6.25494">
        <ele>658.16</ele>
        <time>2015-02-19T12:45:59Z</time>
      </trkpt>
      <trkpt lat="43.625" lon="6.25483">
        <ele>660.08</ele>
        <time>2015-02-19T12:46:10Z</time>
      </trkpt>
      <trkpt lat="43.62509" lon="6.25472">
        <ele>661.52</ele>
        <time>2015-02-19T12:46:22Z</time>
      </trkpt>
      <trkpt lat="43.62511" lon="6.25469">
        <ele>661.52</ele>
        <time>2015-02-19T12:46:24Z</time>
      </trkpt>
      <trkpt lat="43.62514" lon="6.25465">
        <ele>662.01</ele>
        <time>2015-02-19T12:46:28Z</time>
      </trkpt>
      <trkpt lat="43.6252" lon="6.25449">
        <ele>662.97</ele>
        <time>2015-02-19T12:46:40Z</time>
      </trkpt>
      <trkpt lat="43.62525" lon="6.25433">
        <ele>662.97</ele>
        <time>2015-02-19T12:46:52Z</time>
      </trkpt>
      <trkpt lat="43.6253" lon="6.25415">
        <ele>662.97</ele>
        <time>2015-02-19T12:47:04Z</time>
      </trkpt>
      <trkpt lat="43.62536" lon="6.25397">
        <ele>662.97</ele>
        <time>2015-02-19T12:47:15Z</time>
      </trkpt>
      <trkpt lat="43.62537" lon="6.25393">
        <ele>662.97</ele>
        <time>2015-02-19T12:47:18Z</time>
      </trkpt>
      <trkpt lat="43.62543" lon="6.25377">
        <ele>663.45</ele>
        <time>2015-02-19T12:47:29Z</time>
      </trkpt>
      <trkpt lat="43.62544" lon="6.25374">
        <ele>663.93</ele>
        <time>2015-02-19T12:47:31Z</time>
      </trkpt>
      <trkpt lat="43.62546" lon="6.25368">
        <ele>664.89</ele>
        <time>2015-02-19T12:47:36Z</time>
      </trkpt>
      <trkpt lat="43.62547" lon="6.25363">
        <ele>664.89</ele>
        <time>2015-02-19T12:47:41Z</time>
      </trkpt>
      <trkpt lat="43.62544" lon="6.25351">
        <ele>665.37</ele>
        <time>2015-02-19T12:47:50Z</time>
      </trkpt>
      <trkpt lat="43.62536" lon="6.25335">
        <ele>665.37</ele>
        <time>2015-02-19T12:48:04Z</time>
      </trkpt>
      <trkpt lat="43.62532" lon="6.25326">
        <ele>665.85</ele>
        <time>2015-02-19T12:48:10Z</time>
      </trkpt>
      <trkpt lat="43.62527" lon="6.25304">
        <ele>665.85</ele>
        <time>2015-02-19T12:48:24Z</time>
      </trkpt>
      <trkpt lat="43.62529" lon="6.25279">
        <ele>665.37</ele>
        <time>2015-02-19T12:48:35Z</time>
      </trkpt>
      <trkpt lat="43.62532" lon="6.25271">
        <ele>665.37</ele>
        <time>2015-02-19T12:48:39Z</time>
      </trkpt>
      <trkpt lat="43.62544" lon="6.25251">
        <ele>665.37</ele>
        <time>2015-02-19T12:48:53Z</time>
      </trkpt>
      <trkpt lat="43.62555" lon="6.25239">
        <ele>665.85</ele>
        <time>2015-02-19T12:49:05Z</time>
      </trkpt>
      <trkpt lat="43.6257" lon="6.25232">
        <ele>666.33</ele>
        <time>2015-02-19T12:49:19Z</time>
      </trkpt>
      <trkpt lat="43.62585" lon="6.25228">
        <ele>666.81</ele>
        <time>2015-02-19T12:49:32Z</time>
      </trkpt>
      <trkpt lat="43.62593" lon="6.25226">
        <ele>667.29</ele>
        <time>2015-02-19T12:49:39Z</time>
      </trkpt>
      <trkpt lat="43.62612" lon="6.25217">
        <ele>668.25</ele>
        <time>2015-02-19T12:49:54Z</time>
      </trkpt>
      <trkpt lat="43.62619" lon="6.25199">
        <ele>668.25</ele>
        <time>2015-02-19T12:50:06Z</time>
      </trkpt>
      <trkpt lat="43.62615" lon="6.25184">
        <ele>669.7</ele>
        <time>2015-02-19T12:50:20Z</time>
      </trkpt>
      <trkpt lat="43.62609" lon="6.25167">
        <ele>670.66</ele>
        <time>2015-02-19T12:50:33Z</time>
      </trkpt>
      <trkpt lat="43.62597" lon="6.25147">
        <ele>670.66</ele>
        <time>2015-02-19T12:50:48Z</time>
      </trkpt>
      <trkpt lat="43.62592" lon="6.25127">
        <ele>671.62</ele>
        <time>2015-02-19T12:50:59Z</time>
      </trkpt>
      <trkpt lat="43.6259" lon="6.25107">
        <ele>672.1</ele>
        <time>2015-02-19T12:51:12Z</time>
      </trkpt>
      <trkpt lat="43.62586" lon="6.2509">
        <ele>672.58</ele>
        <time>2015-02-19T12:51:23Z</time>
      </trkpt>
      <trkpt lat="43.62591" lon="6.25073">
        <ele>673.06</ele>
        <time>2015-02-19T12:51:36Z</time>
      </trkpt>
      <trkpt lat="43.62602" lon="6.25067">
        <ele>673.54</ele>
        <time>2015-02-19T12:51:47Z</time>
      </trkpt>
      <trkpt lat="43.62608" lon="6.25066">
        <ele>674.02</ele>
        <time>2015-02-19T12:51:52Z</time>
      </trkpt>
      <trkpt lat="43.62613" lon="6.25067">
        <ele>674.02</ele>
        <time>2015-02-19T12:51:56Z</time>
      </trkpt>
      <trkpt lat="43.62616" lon="6.25066">
        <ele>674.02</ele>
        <time>2015-02-19T12:51:58Z</time>
      </trkpt>
      <trkpt lat="43.6263" lon="6.25058">
        <ele>674.98</ele>
        <time>2015-02-19T12:52:12Z</time>
      </trkpt>
      <trkpt lat="43.62635" lon="6.25056">
        <ele>675.46</ele>
        <time>2015-02-19T12:52:18Z</time>
      </trkpt>
      <trkpt lat="43.62652" lon="6.25047">
        <ele>675.94</ele>
        <time>2015-02-19T12:52:32Z</time>
      </trkpt>
      <trkpt lat="43.62665" lon="6.25043">
        <ele>675.94</ele>
        <time>2015-02-19T12:52:43Z</time>
      </trkpt>
      <trkpt lat="43.62678" lon="6.25038">
        <ele>675.94</ele>
        <time>2015-02-19T12:52:54Z</time>
      </trkpt>
      <trkpt lat="43.62689" lon="6.25036">
        <ele>675.94</ele>
        <time>2015-02-19T12:53:02Z</time>
      </trkpt>
      <trkpt lat="43.62699" lon="6.25031">
        <ele>675.46</ele>
        <time>2015-02-19T12:53:10Z</time>
      </trkpt>
      <trkpt lat="43.62704" lon="6.25011">
        <ele>675.46</ele>
        <time>2015-02-19T12:53:23Z</time>
      </trkpt>
      <trkpt lat="43.62696" lon="6.24994">
        <ele>675.46</ele>
        <time>2015-02-19T12:53:36Z</time>
      </trkpt>
      <trkpt lat="43.62694" lon="6.24991">
        <ele>675.46</ele>
        <time>2015-02-19T12:53:39Z</time>
      </trkpt>
      <trkpt lat="43.62689" lon="6.24987">
        <ele>674.98</ele>
        <time>2015-02-19T12:53:43Z</time>
      </trkpt>
      <trkpt lat="43.62678" lon="6.2497">
        <ele>674.98</ele>
        <time>2015-02-19T12:53:57Z</time>
      </trkpt>
      <trkpt lat="43.62675" lon="6.24965">
        <ele>674.5</ele>
        <time>2015-02-19T12:54:01Z</time>
      </trkpt>
      <trkpt lat="43.62674" lon="6.24961">
        <ele>674.98</ele>
        <time>2015-02-19T12:54:04Z</time>
      </trkpt>
      <trkpt lat="43.62667" lon="6.24949">
        <ele>674.5</ele>
        <time>2015-02-19T12:54:13Z</time>
      </trkpt>
      <trkpt lat="43.6266" lon="6.2492">
        <ele>674.02</ele>
        <time>2015-02-19T12:54:26Z</time>
      </trkpt>
      <trkpt lat="43.62663" lon="6.249">
        <ele>674.02</ele>
        <time>2015-02-19T12:54:40Z</time>
      </trkpt>
      <trkpt lat="43.62664" lon="6.24901">
        <ele>674.5</ele>
        <time>2015-02-19T12:54:42Z</time>
      </trkpt>
      <trkpt lat="43.62663" lon="6.24907">
        <ele>674.02</ele>
        <time>2015-02-19T12:54:55Z</time>
      </trkpt>
      <trkpt lat="43.62663" lon="6.2491">
        <ele>674.5</ele>
        <time>2015-02-19T12:55:01Z</time>
      </trkpt>
      <trkpt lat="43.62662" lon="6.24908">
        <ele>674.02</ele>
        <time>2015-02-19T12:55:12Z</time>
      </trkpt>
      <trkpt lat="43.62661" lon="6.24907">
        <ele>674.02</ele>
        <time>2015-02-19T12:55:33Z</time>
      </trkpt>
      <trkpt lat="43.62662" lon="6.24908">
        <ele>674.5</ele>
        <time>2015-02-19T12:55:46Z</time>
      </trkpt>
      <trkpt lat="43.62662" lon="6.24909">
        <ele>674.5</ele>
        <time>2015-02-19T12:55:59Z</time>
      </trkpt>
      <trkpt lat="43.62663" lon="6.2491">
        <ele>674.02</ele>
        <time>2015-02-19T12:56:17Z</time>
      </trkpt>
      <trkpt lat="43.62663" lon="6.24909">
        <ele>674.5</ele>
        <time>2015-02-19T12:56:20Z</time>
      </trkpt>
      <trkpt lat="43.62663" lon="6.24906">
        <ele>674.5</ele>
        <time>2015-02-19T12:56:23Z</time>
      </trkpt>
      <trkpt lat="43.62665" lon="6.24889">
        <ele>674.5</ele>
        <time>2015-02-19T12:56:35Z</time>
      </trkpt>
      <trkpt lat="43.62672" lon="6.24873">
        <ele>675.46</ele>
        <time>2015-02-19T12:56:48Z</time>
      </trkpt>
      <trkpt lat="43.62676" lon="6.24865">
        <ele>675.94</ele>
        <time>2015-02-19T12:56:54Z</time>
      </trkpt>
      <trkpt lat="43.62678" lon="6.24863">
        <ele>675.94</ele>
        <time>2015-02-19T12:56:56Z</time>
      </trkpt>
      <trkpt lat="43.62679" lon="6.24859">
        <ele>675.94</ele>
        <time>2015-02-19T12:56:59Z</time>
      </trkpt>
      <trkpt lat="43.62692" lon="6.24844">
        <ele>675.94</ele>
        <time>2015-02-19T12:57:13Z</time>
      </trkpt>
      <trkpt lat="43.62708" lon="6.24832">
        <ele>675.94</ele>
        <time>2015-02-19T12:57:27Z</time>
      </trkpt>
      <trkpt lat="43.62721" lon="6.24814">
        <ele>675.94</ele>
        <time>2015-02-19T12:57:41Z</time>
      </trkpt>
      <trkpt lat="43.62725" lon="6.24791">
        <ele>676.42</ele>
        <time>2015-02-19T12:57:56Z</time>
      </trkpt>
      <trkpt lat="43.6273" lon="6.24773">
        <ele>676.42</ele>
        <time>2015-02-19T12:58:08Z</time>
      </trkpt>
      <trkpt lat="43.62744" lon="6.24756">
        <ele>676.42</ele>
        <time>2015-02-19T12:58:20Z</time>
      </trkpt>
      <trkpt lat="43.62757" lon="6.2475">
        <ele>676.42</ele>
        <time>2015-02-19T12:58:31Z</time>
      </trkpt>
      <trkpt lat="43.62765" lon="6.24746">
        <ele>676.42</ele>
        <time>2015-02-19T12:58:38Z</time>
      </trkpt>
      <trkpt lat="43.62767" lon="6.24744">
        <ele>676.42</ele>
        <time>2015-02-19T12:58:40Z</time>
      </trkpt>
      <trkpt lat="43.62783" lon="6.24732">
        <ele>675.94</ele>
        <time>2015-02-19T12:58:55Z</time>
      </trkpt>
      <trkpt lat="43.62786" lon="6.2473">
        <ele>676.42</ele>
        <time>2015-02-19T12:58:58Z</time>
      </trkpt>
      <trkpt lat="43.62789" lon="6.24726">
        <ele>675.94</ele>
        <time>2015-02-19T12:59:01Z</time>
      </trkpt>
      <trkpt lat="43.62796" lon="6.24718">
        <ele>675.94</ele>
        <time>2015-02-19T12:59:08Z</time>
      </trkpt>
      <trkpt lat="43.62798" lon="6.24715">
        <ele>675.94</ele>
        <time>2015-02-19T12:59:11Z</time>
      </trkpt>
      <trkpt lat="43.628" lon="6.2471">
        <ele>675.94</ele>
        <time>2015-02-19T12:59:14Z</time>
      </trkpt>
      <trkpt lat="43.628" lon="6.247">
        <ele>675.94</ele>
        <time>2015-02-19T12:59:22Z</time>
      </trkpt>
      <trkpt lat="43.62795" lon="6.24683">
        <ele>675.46</ele>
        <time>2015-02-19T12:59:34Z</time>
      </trkpt>
      <trkpt lat="43.62795" lon="6.24681">
        <ele>675.46</ele>
        <time>2015-02-19T12:59:35Z</time>
      </trkpt>
      <trkpt lat="43.62792" lon="6.24658">
        <ele>674.5</ele>
        <time>2015-02-19T12:59:48Z</time>
      </trkpt>
      <trkpt lat="43.62792" lon="6.24631">
        <ele>674.98</ele>
        <time>2015-02-19T13:00:02Z</time>
      </trkpt>
      <trkpt lat="43.6279" lon="6.24607">
        <ele>674.98</ele>
        <time>2015-02-19T13:00:16Z</time>
      </trkpt>
      <trkpt lat="43.62786" lon="6.24597">
        <ele>674.98</ele>
        <time>2015-02-19T13:00:23Z</time>
      </trkpt>
      <trkpt lat="43.62767" lon="6.24587">
        <ele>674.98</ele>
        <time>2015-02-19T13:00:38Z</time>
      </trkpt>
      <trkpt lat="43.6275" lon="6.24587">
        <ele>674.5</ele>
        <time>2015-02-19T13:00:51Z</time>
      </trkpt>
      <trkpt lat="43.62734" lon="6.24579">
        <ele>673.54</ele>
        <time>2015-02-19T13:01:03Z</time>
      </trkpt>
      <trkpt lat="43.62731" lon="6.24576">
        <ele>673.54</ele>
        <time>2015-02-19T13:01:06Z</time>
      </trkpt>
      <trkpt lat="43.62723" lon="6.24568">
        <ele>673.06</ele>
        <time>2015-02-19T13:01:13Z</time>
      </trkpt>
      <trkpt lat="43.62711" lon="6.24548">
        <ele>672.58</ele>
        <time>2015-02-19T13:01:26Z</time>
      </trkpt>
      <trkpt lat="43.62691" lon="6.24531">
        <ele>672.58</ele>
        <time>2015-02-19T13:01:43Z</time>
      </trkpt>
      <trkpt lat="43.62676" lon="6.24519">
        <ele>672.1</ele>
        <time>2015-02-19T13:01:55Z</time>
      </trkpt>
      <trkpt lat="43.62671" lon="6.24515">
        <ele>671.62</ele>
        <time>2015-02-19T13:01:59Z</time>
      </trkpt>
      <trkpt lat="43.62662" lon="6.24508">
        <ele>671.14</ele>
        <time>2015-02-19T13:02:06Z</time>
      </trkpt>
      <trkpt lat="43.62659" lon="6.24502">
        <ele>671.14</ele>
        <time>2015-02-19T13:02:11Z</time>
      </trkpt>
      <trkpt lat="43.62649" lon="6.24487">
        <ele>671.14</ele>
        <time>2015-02-19T13:02:22Z</time>
      </trkpt>
      <trkpt lat="43.62642" lon="6.24477">
        <ele>670.66</ele>
        <time>2015-02-19T13:02:29Z</time>
      </trkpt>
      <trkpt lat="43.62637" lon="6.24471">
        <ele>670.18</ele>
        <time>2015-02-19T13:02:34Z</time>
      </trkpt>
      <trkpt lat="43.62621" lon="6.2445">
        <ele>668.73</ele>
        <time>2015-02-19T13:02:49Z</time>
      </trkpt>
      <trkpt lat="43.62611" lon="6.24435">
        <ele>668.73</ele>
        <time>2015-02-19T13:03:01Z</time>
      </trkpt>
      <trkpt lat="43.62604" lon="6.24416">
        <ele>668.25</ele>
        <time>2015-02-19T13:03:12Z</time>
      </trkpt>
      <trkpt lat="43.62598" lon="6.24405">
        <ele>668.25</ele>
        <time>2015-02-19T13:03:25Z</time>
      </trkpt>
      <trkpt lat="43.62598" lon="6.24404">
        <ele>668.25</ele>
        <time>2015-02-19T13:03:47Z</time>
      </trkpt>
      <trkpt lat="43.62597" lon="6.24402">
        <ele>668.25</ele>
        <time>2015-02-19T13:04:04Z</time>
      </trkpt>
      <trkpt lat="43.62587" lon="6.24388">
        <ele>668.25</ele>
        <time>2015-02-19T13:04:16Z</time>
      </trkpt>
      <trkpt lat="43.6258" lon="6.24364">
        <ele>668.25</ele>
        <time>2015-02-19T13:04:31Z</time>
      </trkpt>
      <trkpt lat="43.62575" lon="6.24338">
        <ele>668.25</ele>
        <time>2015-02-19T13:04:46Z</time>
      </trkpt>
      <trkpt lat="43.62574" lon="6.24314">
        <ele>668.25</ele>
        <time>2015-02-19T13:04:59Z</time>
      </trkpt>
      <trkpt lat="43.6258" lon="6.24292">
        <ele>668.25</ele>
        <time>2015-02-19T13:05:12Z</time>
      </trkpt>
      <trkpt lat="43.62586" lon="6.24279">
        <ele>668.73</ele>
        <time>2015-02-19T13:05:21Z</time>
      </trkpt>
      <trkpt lat="43.62591" lon="6.24265">
        <ele>668.73</ele>
        <time>2015-02-19T13:05:30Z</time>
      </trkpt>
      <trkpt lat="43.62595" lon="6.24255">
        <ele>668.25</ele>
        <time>2015-02-19T13:05:36Z</time>
      </trkpt>
      <trkpt lat="43.62604" lon="6.2424">
        <ele>667.29</ele>
        <time>2015-02-19T13:05:46Z</time>
      </trkpt>
      <trkpt lat="43.62606" lon="6.24238">
        <ele>666.81</ele>
        <time>2015-02-19T13:05:48Z</time>
      </trkpt>
      <trkpt lat="43.62621" lon="6.24222">
        <ele>665.85</ele>
        <time>2015-02-19T13:06:01Z</time>
      </trkpt>
      <trkpt lat="43.62635" lon="6.24212">
        <ele>664.89</ele>
        <time>2015-02-19T13:06:14Z</time>
      </trkpt>
      <trkpt lat="43.62651" lon="6.24206">
        <ele>664.89</ele>
        <time>2015-02-19T13:06:25Z</time>
      </trkpt>
      <trkpt lat="43.62671" lon="6.24202">
        <ele>663.45</ele>
        <time>2015-02-19T13:06:38Z</time>
      </trkpt>
      <trkpt lat="43.62684" lon="6.24201">
        <ele>662.01</ele>
        <time>2015-02-19T13:06:47Z</time>
      </trkpt>
      <trkpt lat="43.62688" lon="6.24201">
        <ele>662.01</ele>
        <time>2015-02-19T13:06:50Z</time>
      </trkpt>
      <trkpt lat="43.62704" lon="6.24199">
        <ele>662.49</ele>
        <time>2015-02-19T13:07:02Z</time>
      </trkpt>
      <trkpt lat="43.62708" lon="6.24199">
        <ele>662.01</ele>
        <time>2015-02-19T13:07:05Z</time>
      </trkpt>
      <trkpt lat="43.6273" lon="6.24201">
        <ele>662.97</ele>
        <time>2015-02-19T13:07:21Z</time>
      </trkpt>
      <trkpt lat="43.62742" lon="6.24205">
        <ele>663.45</ele>
        <time>2015-02-19T13:07:32Z</time>
      </trkpt>
      <trkpt lat="43.62757" lon="6.2421">
        <ele>662.49</ele>
        <time>2015-02-19T13:07:40Z</time>
      </trkpt>
      <trkpt lat="43.62765" lon="6.24214">
        <ele>662.01</ele>
        <time>2015-02-19T13:07:44Z</time>
      </trkpt>
      <trkpt lat="43.62779" lon="6.24218">
        <ele>662.01</ele>
        <time>2015-02-19T13:07:54Z</time>
      </trkpt>
      <trkpt lat="43.62798" lon="6.24219">
        <ele>661.04</ele>
        <time>2015-02-19T13:08:09Z</time>
      </trkpt>
      <trkpt lat="43.62817" lon="6.24218">
        <ele>660.08</ele>
        <time>2015-02-19T13:08:21Z</time>
      </trkpt>
      <trkpt lat="43.62825" lon="6.24217">
        <ele>660.08</ele>
        <time>2015-02-19T13:08:27Z</time>
      </trkpt>
      <trkpt lat="43.62842" lon="6.24196">
        <ele>660.56</ele>
        <time>2015-02-19T13:08:44Z</time>
      </trkpt>
      <trkpt lat="43.62842" lon="6.24195">
        <ele>660.56</ele>
        <time>2015-02-19T13:08:45Z</time>
      </trkpt>
      <trkpt lat="43.62841" lon="6.24186">
        <ele>660.56</ele>
        <time>2015-02-19T13:08:49Z</time>
      </trkpt>
      <trkpt lat="43.6284" lon="6.2418">
        <ele>660.08</ele>
        <time>2015-02-19T13:08:52Z</time>
      </trkpt>
      <trkpt lat="43.62819" lon="6.2414">
        <ele>659.6</ele>
        <time>2015-02-19T13:09:05Z</time>
      </trkpt>
      <trkpt lat="43.62811" lon="6.24086">
        <ele>659.12</ele>
        <time>2015-02-19T13:09:16Z</time>
      </trkpt>
      <trkpt lat="43.62805" lon="6.24057">
        <ele>659.12</ele>
        <time>2015-02-19T13:09:21Z</time>
      </trkpt>
      <trkpt lat="43.62803" lon="6.24051">
        <ele>659.6</ele>
        <time>2015-02-19T13:09:22Z</time>
      </trkpt>
      <trkpt lat="43.62801" lon="6.24046">
        <ele>659.6</ele>
        <time>2015-02-19T13:09:23Z</time>
      </trkpt>
      <trkpt lat="43.62791" lon="6.24023">
        <ele>658.64</ele>
        <time>2015-02-19T13:09:27Z</time>
      </trkpt>
      <trkpt lat="43.6279" lon="6.24016">
        <ele>658.64</ele>
        <time>2015-02-19T13:09:28Z</time>
      </trkpt>
      <trkpt lat="43.62789" lon="6.2401">
        <ele>659.12</ele>
        <time>2015-02-19T13:09:29Z</time>
      </trkpt>
      <trkpt lat="43.62789" lon="6.24003">
        <ele>659.12</ele>
        <time>2015-02-19T13:09:30Z</time>
      </trkpt>
      <trkpt lat="43.62788" lon="6.23996">
        <ele>658.64</ele>
        <time>2015-02-19T13:09:31Z</time>
      </trkpt>
      <trkpt lat="43.62789" lon="6.23989">
        <ele>659.12</ele>
        <time>2015-02-19T13:09:32Z</time>
      </trkpt>
      <trkpt lat="43.62794" lon="6.23964">
        <ele>659.12</ele>
        <time>2015-02-19T13:09:36Z</time>
      </trkpt>
      <trkpt lat="43.62797" lon="6.23958">
        <ele>658.64</ele>
        <time>2015-02-19T13:09:37Z</time>
      </trkpt>
      <trkpt lat="43.628" lon="6.23953">
        <ele>659.12</ele>
        <time>2015-02-19T13:09:38Z</time>
      </trkpt>
      <trkpt lat="43.62803" lon="6.23948">
        <ele>659.6</ele>
        <time>2015-02-19T13:09:39Z</time>
      </trkpt>
      <trkpt lat="43.62806" lon="6.23943">
        <ele>659.6</ele>
        <time>2015-02-19T13:09:40Z</time>
      </trkpt>
      <trkpt lat="43.6281" lon="6.23938">
        <ele>659.12</ele>
        <time>2015-02-19T13:09:41Z</time>
      </trkpt>
      <trkpt lat="43.62829" lon="6.2392">
        <ele>659.6</ele>
        <time>2015-02-19T13:09:45Z</time>
      </trkpt>
      <trkpt lat="43.62848" lon="6.23907">
        <ele>659.6</ele>
        <time>2015-02-19T13:09:49Z</time>
      </trkpt>
      <trkpt lat="43.62853" lon="6.23905">
        <ele>659.12</ele>
        <time>2015-02-19T13:09:50Z</time>
      </trkpt>
      <trkpt lat="43.62859" lon="6.23903">
        <ele>659.12</ele>
        <time>2015-02-19T13:09:51Z</time>
      </trkpt>
      <trkpt lat="43.62864" lon="6.23901">
        <ele>659.6</ele>
        <time>2015-02-19T13:09:52Z</time>
      </trkpt>
      <trkpt lat="43.62869" lon="6.23901">
        <ele>660.08</ele>
        <time>2015-02-19T13:09:53Z</time>
      </trkpt>
      <trkpt lat="43.62874" lon="6.23901">
        <ele>660.08</ele>
        <time>2015-02-19T13:09:54Z</time>
      </trkpt>
      <trkpt lat="43.6288" lon="6.23902">
        <ele>660.56</ele>
        <time>2015-02-19T13:09:55Z</time>
      </trkpt>
      <trkpt lat="43.62885" lon="6.23905">
        <ele>659.6</ele>
        <time>2015-02-19T13:09:56Z</time>
      </trkpt>
      <trkpt lat="43.6289" lon="6.23908">
        <ele>659.6</ele>
        <time>2015-02-19T13:09:57Z</time>
      </trkpt>
      <trkpt lat="43.62894" lon="6.23912">
        <ele>661.04</ele>
        <time>2015-02-19T13:09:58Z</time>
      </trkpt>
      <trkpt lat="43.62903" lon="6.23919">
        <ele>660.08</ele>
        <time>2015-02-19T13:10:00Z</time>
      </trkpt>
      <trkpt lat="43.62913" lon="6.23925">
        <ele>659.12</ele>
        <time>2015-02-19T13:10:02Z</time>
      </trkpt>
      <trkpt lat="43.62922" lon="6.23929">
        <ele>659.6</ele>
        <time>2015-02-19T13:10:04Z</time>
      </trkpt>
      <trkpt lat="43.62928" lon="6.23929">
        <ele>659.6</ele>
        <time>2015-02-19T13:10:05Z</time>
      </trkpt>
      <trkpt lat="43.62934" lon="6.23928">
        <ele>660.56</ele>
        <time>2015-02-19T13:10:06Z</time>
      </trkpt>
      <trkpt lat="43.6294" lon="6.23924">
        <ele>660.08</ele>
        <time>2015-02-19T13:10:07Z</time>
      </trkpt>
      <trkpt lat="43.62944" lon="6.2392">
        <ele>660.08</ele>
        <time>2015-02-19T13:10:08Z</time>
      </trkpt>
      <trkpt lat="43.62949" lon="6.23916">
        <ele>660.08</ele>
        <time>2015-02-19T13:10:09Z</time>
      </trkpt>
      <trkpt lat="43.62954" lon="6.23913">
        <ele>660.56</ele>
        <time>2015-02-19T13:10:10Z</time>
      </trkpt>
      <trkpt lat="43.62959" lon="6.23912">
        <ele>660.08</ele>
        <time>2015-02-19T13:10:11Z</time>
      </trkpt>
      <trkpt lat="43.62964" lon="6.23911">
        <ele>659.6</ele>
        <time>2015-02-19T13:10:12Z</time>
      </trkpt>
      <trkpt lat="43.62983" lon="6.2391">
        <ele>659.6</ele>
        <time>2015-02-19T13:10:16Z</time>
      </trkpt>
      <trkpt lat="43.62988" lon="6.23909">
        <ele>660.08</ele>
        <time>2015-02-19T13:10:17Z</time>
      </trkpt>
      <trkpt lat="43.62992" lon="6.23906">
        <ele>659.12</ele>
        <time>2015-02-19T13:10:18Z</time>
      </trkpt>
      <trkpt lat="43.62997" lon="6.23901">
        <ele>659.12</ele>
        <time>2015-02-19T13:10:19Z</time>
      </trkpt>
      <trkpt lat="43.63" lon="6.23896">
        <ele>659.6</ele>
        <time>2015-02-19T13:10:20Z</time>
      </trkpt>
      <trkpt lat="43.63" lon="6.23892">
        <ele>659.6</ele>
        <time>2015-02-19T13:10:21Z</time>
      </trkpt>
      <trkpt lat="43.62998" lon="6.23886">
        <ele>659.6</ele>
        <time>2015-02-19T13:10:22Z</time>
      </trkpt>
      <trkpt lat="43.62994" lon="6.23879">
        <ele>660.08</ele>
        <time>2015-02-19T13:10:23Z</time>
      </trkpt>
      <trkpt lat="43.62974" lon="6.23848">
        <ele>660.56</ele>
        <time>2015-02-19T13:10:27Z</time>
      </trkpt>
      <trkpt lat="43.6297" lon="6.2384">
        <ele>660.56</ele>
        <time>2015-02-19T13:10:28Z</time>
      </trkpt>
      <trkpt lat="43.62967" lon="6.23832">
        <ele>660.08</ele>
        <time>2015-02-19T13:10:29Z</time>
      </trkpt>
      <trkpt lat="43.62966" lon="6.23823">
        <ele>660.56</ele>
        <time>2015-02-19T13:10:30Z</time>
      </trkpt>
      <trkpt lat="43.62965" lon="6.23815">
        <ele>660.56</ele>
        <time>2015-02-19T13:10:31Z</time>
      </trkpt>
      <trkpt lat="43.62965" lon="6.23806">
        <ele>661.04</ele>
        <time>2015-02-19T13:10:32Z</time>
      </trkpt>
      <trkpt lat="43.62965" lon="6.23796">
        <ele>660.56</ele>
        <time>2015-02-19T13:10:33Z</time>
      </trkpt>
      <trkpt lat="43.62967" lon="6.23787">
        <ele>660.56</ele>
        <time>2015-02-19T13:10:34Z</time>
      </trkpt>
      <trkpt lat="43.6297" lon="6.23778">
        <ele>659.6</ele>
        <time>2015-02-19T13:10:35Z</time>
      </trkpt>
      <trkpt lat="43.62975" lon="6.2377">
        <ele>660.08</ele>
        <time>2015-02-19T13:10:36Z</time>
      </trkpt>
      <trkpt lat="43.63005" lon="6.2373">
        <ele>660.08</ele>
        <time>2015-02-19T13:10:42Z</time>
      </trkpt>
      <trkpt lat="43.63011" lon="6.23726">
        <ele>659.12</ele>
        <time>2015-02-19T13:10:43Z</time>
      </trkpt>
      <trkpt lat="43.63017" lon="6.23723">
        <ele>658.64</ele>
        <time>2015-02-19T13:10:44Z</time>
      </trkpt>
      <trkpt lat="43.63024" lon="6.23721">
        <ele>660.08</ele>
        <time>2015-02-19T13:10:45Z</time>
      </trkpt>
      <trkpt lat="43.63031" lon="6.2372">
        <ele>659.6</ele>
        <time>2015-02-19T13:10:46Z</time>
      </trkpt>
      <trkpt lat="43.63038" lon="6.23719">
        <ele>659.12</ele>
        <time>2015-02-19T13:10:47Z</time>
      </trkpt>
      <trkpt lat="43.63086" lon="6.23723">
        <ele>659.12</ele>
        <time>2015-02-19T13:10:55Z</time>
      </trkpt>
      <trkpt lat="43.6311" lon="6.23734">
        <ele>661.04</ele>
        <time>2015-02-19T13:10:59Z</time>
      </trkpt>
      <trkpt lat="43.63126" lon="6.23744">
        <ele>659.12</ele>
        <time>2015-02-19T13:11:02Z</time>
      </trkpt>
      <trkpt lat="43.63132" lon="6.23745">
        <ele>659.12</ele>
        <time>2015-02-19T13:11:03Z</time>
      </trkpt>
      <trkpt lat="43.63138" lon="6.23745">
        <ele>659.6</ele>
        <time>2015-02-19T13:11:04Z</time>
      </trkpt>
      <trkpt lat="43.63144" lon="6.23741">
        <ele>658.64</ele>
        <time>2015-02-19T13:11:05Z</time>
      </trkpt>
      <trkpt lat="43.63149" lon="6.23736">
        <ele>658.16</ele>
        <time>2015-02-19T13:11:06Z</time>
      </trkpt>
      <trkpt lat="43.63152" lon="6.23729">
        <ele>660.08</ele>
        <time>2015-02-19T13:11:07Z</time>
      </trkpt>
      <trkpt lat="43.63155" lon="6.23722">
        <ele>660.56</ele>
        <time>2015-02-19T13:11:08Z</time>
      </trkpt>
      <trkpt lat="43.63157" lon="6.23714">
        <ele>660.56</ele>
        <time>2015-02-19T13:11:09Z</time>
      </trkpt>
      <trkpt lat="43.63159" lon="6.23705">
        <ele>660.08</ele>
        <time>2015-02-19T13:11:10Z</time>
      </trkpt>
      <trkpt lat="43.63158" lon="6.23697">
        <ele>660.56</ele>
        <time>2015-02-19T13:11:11Z</time>
      </trkpt>
      <trkpt lat="43.63156" lon="6.23688">
        <ele>661.52</ele>
        <time>2015-02-19T13:11:12Z</time>
      </trkpt>
      <trkpt lat="43.63152" lon="6.2368">
        <ele>660.08</ele>
        <time>2015-02-19T13:11:13Z</time>
      </trkpt>
      <trkpt lat="43.63149" lon="6.23671">
        <ele>659.12</ele>
        <time>2015-02-19T13:11:14Z</time>
      </trkpt>
      <trkpt lat="43.63117" lon="6.23592">
        <ele>658.64</ele>
        <time>2015-02-19T13:11:24Z</time>
      </trkpt>
      <trkpt lat="43.63115" lon="6.23585">
        <ele>658.64</ele>
        <time>2015-02-19T13:11:25Z</time>
      </trkpt>
      <trkpt lat="43.63114" lon="6.23578">
        <ele>658.16</ele>
        <time>2015-02-19T13:11:26Z</time>
      </trkpt>
      <trkpt lat="43.63114" lon="6.23571">
        <ele>657.68</ele>
        <time>2015-02-19T13:11:27Z</time>
      </trkpt>
      <trkpt lat="43.63115" lon="6.23564">
        <ele>657.68</ele>
        <time>2015-02-19T13:11:28Z</time>
      </trkpt>
      <trkpt lat="43.63116" lon="6.23557">
        <ele>657.2</ele>
        <time>2015-02-19T13:11:29Z</time>
      </trkpt>
      <trkpt lat="43.63128" lon="6.23527">
        <ele>657.2</ele>
        <time>2015-02-19T13:11:34Z</time>
      </trkpt>
      <trkpt lat="43.63135" lon="6.23514">
        <ele>659.12</ele>
        <time>2015-02-19T13:11:36Z</time>
      </trkpt>
      <trkpt lat="43.63138" lon="6.23508">
        <ele>659.6</ele>
        <time>2015-02-19T13:11:37Z</time>
      </trkpt>
      <trkpt lat="43.6314" lon="6.23502">
        <ele>659.12</ele>
        <time>2015-02-19T13:11:38Z</time>
      </trkpt>
      <trkpt lat="43.63148" lon="6.23483">
        <ele>659.6</ele>
        <time>2015-02-19T13:11:41Z</time>
      </trkpt>
      <trkpt lat="43.63157" lon="6.23456">
        <ele>659.12</ele>
        <time>2015-02-19T13:11:45Z</time>
      </trkpt>
      <trkpt lat="43.63161" lon="6.23442">
        <ele>658.64</ele>
        <time>2015-02-19T13:11:47Z</time>
      </trkpt>
      <trkpt lat="43.63163" lon="6.23435">
        <ele>658.64</ele>
        <time>2015-02-19T13:11:48Z</time>
      </trkpt>
      <trkpt lat="43.63168" lon="6.23421">
        <ele>659.12</ele>
        <time>2015-02-19T13:11:50Z</time>
      </trkpt>
      <trkpt lat="43.63172" lon="6.23415">
        <ele>658.64</ele>
        <time>2015-02-19T13:11:51Z</time>
      </trkpt>
      <trkpt lat="43.63177" lon="6.23409">
        <ele>658.64</ele>
        <time>2015-02-19T13:11:52Z</time>
      </trkpt>
      <trkpt lat="43.63181" lon="6.23405">
        <ele>659.12</ele>
        <time>2015-02-19T13:11:53Z</time>
      </trkpt>
      <trkpt lat="43.63186" lon="6.23401">
        <ele>659.12</ele>
        <time>2015-02-19T13:11:54Z</time>
      </trkpt>
      <trkpt lat="43.63192" lon="6.23399">
        <ele>658.64</ele>
        <time>2015-02-19T13:11:55Z</time>
      </trkpt>
      <trkpt lat="43.63197" lon="6.23397">
        <ele>659.12</ele>
        <time>2015-02-19T13:11:56Z</time>
      </trkpt>
      <trkpt lat="43.63203" lon="6.23396">
        <ele>659.12</ele>
        <time>2015-02-19T13:11:57Z</time>
      </trkpt>
      <trkpt lat="43.63213" lon="6.23394">
        <ele>658.64</ele>
        <time>2015-02-19T13:11:59Z</time>
      </trkpt>
      <trkpt lat="43.63234" lon="6.23395">
        <ele>659.12</ele>
        <time>2015-02-19T13:12:03Z</time>
      </trkpt>
      <trkpt lat="43.6324" lon="6.23395">
        <ele>659.12</ele>
        <time>2015-02-19T13:12:04Z</time>
      </trkpt>
      <trkpt lat="43.63244" lon="6.23395">
        <ele>660.08</ele>
        <time>2015-02-19T13:12:05Z</time>
      </trkpt>
      <trkpt lat="43.63271" lon="6.23396">
        <ele>659.6</ele>
        <time>2015-02-19T13:12:10Z</time>
      </trkpt>
      <trkpt lat="43.63276" lon="6.23394">
        <ele>659.6</ele>
        <time>2015-02-19T13:12:11Z</time>
      </trkpt>
      <trkpt lat="43.63281" lon="6.23391">
        <ele>659.6</ele>
        <time>2015-02-19T13:12:12Z</time>
      </trkpt>
      <trkpt lat="43.63286" lon="6.23385">
        <ele>659.6</ele>
        <time>2015-02-19T13:12:13Z</time>
      </trkpt>
      <trkpt lat="43.6329" lon="6.2338">
        <ele>660.08</ele>
        <time>2015-02-19T13:12:14Z</time>
      </trkpt>
      <trkpt lat="43.63291" lon="6.23376">
        <ele>660.08</ele>
        <time>2015-02-19T13:12:15Z</time>
      </trkpt>
      <trkpt lat="43.63292" lon="6.23371">
        <ele>660.08</ele>
        <time>2015-02-19T13:12:16Z</time>
      </trkpt>
      <trkpt lat="43.63291" lon="6.23364">
        <ele>659.12</ele>
        <time>2015-02-19T13:12:17Z</time>
      </trkpt>
      <trkpt lat="43.63288" lon="6.23356">
        <ele>659.6</ele>
        <time>2015-02-19T13:12:18Z</time>
      </trkpt>
      <trkpt lat="43.63279" lon="6.23329">
        <ele>658.64</ele>
        <time>2015-02-19T13:12:21Z</time>
      </trkpt>
      <trkpt lat="43.63277" lon="6.23319">
        <ele>658.64</ele>
        <time>2015-02-19T13:12:22Z</time>
      </trkpt>
      <trkpt lat="43.63276" lon="6.2331">
        <ele>658.16</ele>
        <time>2015-02-19T13:12:23Z</time>
      </trkpt>
      <trkpt lat="43.63276" lon="6.233">
        <ele>658.16</ele>
        <time>2015-02-19T13:12:24Z</time>
      </trkpt>
      <trkpt lat="43.63277" lon="6.23291">
        <ele>658.16</ele>
        <time>2015-02-19T13:12:25Z</time>
      </trkpt>
      <trkpt lat="43.63279" lon="6.23282">
        <ele>657.2</ele>
        <time>2015-02-19T13:12:26Z</time>
      </trkpt>
      <trkpt lat="43.63281" lon="6.23266">
        <ele>657.2</ele>
        <time>2015-02-19T13:12:28Z</time>
      </trkpt>
      <trkpt lat="43.63283" lon="6.23248">
        <ele>655.76</ele>
        <time>2015-02-19T13:12:32Z</time>
      </trkpt>
      <trkpt lat="43.63282" lon="6.23233">
        <ele>655.28</ele>
        <time>2015-02-19T13:12:43Z</time>
      </trkpt>
      <trkpt lat="43.63287" lon="6.23228">
        <ele>654.31</ele>
        <time>2015-02-19T13:12:53Z</time>
      </trkpt>
      <trkpt lat="43.63289" lon="6.23226">
        <ele>654.31</ele>
        <time>2015-02-19T13:12:55Z</time>
      </trkpt>
      <trkpt lat="43.6329" lon="6.23225">
        <ele>653.83</ele>
        <time>2015-02-19T13:12:56Z</time>
      </trkpt>
      <trkpt lat="43.63292" lon="6.23224">
        <ele>653.83</ele>
        <time>2015-02-19T13:12:57Z</time>
      </trkpt>
      <trkpt lat="43.63293" lon="6.23223">
        <ele>653.83</ele>
        <time>2015-02-19T13:12:58Z</time>
      </trkpt>
      <trkpt lat="43.63295" lon="6.23222">
        <ele>654.8</ele>
        <time>2015-02-19T13:12:59Z</time>
      </trkpt>
      <trkpt lat="43.63296" lon="6.23221">
        <ele>653.83</ele>
        <time>2015-02-19T13:13:00Z</time>
      </trkpt>
      <trkpt lat="43.63308" lon="6.23211">
        <ele>652.87</ele>
        <time>2015-02-19T13:13:11Z</time>
      </trkpt>
      <trkpt lat="43.6331" lon="6.2321">
        <ele>652.87</ele>
        <time>2015-02-19T13:13:12Z</time>
      </trkpt>
      <trkpt lat="43.63312" lon="6.23209">
        <ele>652.39</ele>
        <time>2015-02-19T13:13:14Z</time>
      </trkpt>
      <trkpt lat="43.63316" lon="6.23207">
        <ele>652.39</ele>
        <time>2015-02-19T13:13:17Z</time>
      </trkpt>
      <trkpt lat="43.63318" lon="6.23208">
        <ele>651.91</ele>
        <time>2015-02-19T13:13:18Z</time>
      </trkpt>
      <trkpt lat="43.63326" lon="6.23211">
        <ele>651.91</ele>
        <time>2015-02-19T13:13:25Z</time>
      </trkpt>
      <trkpt lat="43.63327" lon="6.23211">
        <ele>651.43</ele>
        <time>2015-02-19T13:13:26Z</time>
      </trkpt>
      <trkpt lat="43.63331" lon="6.23212">
        <ele>651.43</ele>
        <time>2015-02-19T13:13:28Z</time>
      </trkpt>
      <trkpt lat="43.63333" lon="6.23213">
        <ele>650.95</ele>
        <time>2015-02-19T13:13:29Z</time>
      </trkpt>
      <trkpt lat="43.63336" lon="6.23214">
        <ele>650.95</ele>
        <time>2015-02-19T13:13:30Z</time>
      </trkpt>
      <trkpt lat="43.63355" lon="6.23214">
        <ele>650.95</ele>
        <time>2015-02-19T13:13:40Z</time>
      </trkpt>
      <trkpt lat="43.63371" lon="6.23215">
        <ele>650.47</ele>
        <time>2015-02-19T13:13:49Z</time>
      </trkpt>
      <trkpt lat="43.63373" lon="6.23214">
        <ele>650.47</ele>
        <time>2015-02-19T13:13:51Z</time>
      </trkpt>
      <trkpt lat="43.63373" lon="6.23212">
        <ele>650.47</ele>
        <time>2015-02-19T13:13:52Z</time>
      </trkpt>
      <trkpt lat="43.63373" lon="6.23211">
        <ele>650.47</ele>
        <time>2015-02-19T13:13:53Z</time>
      </trkpt>
      <trkpt lat="43.63372" lon="6.23209">
        <ele>649.99</ele>
        <time>2015-02-19T13:13:54Z</time>
      </trkpt>
      <trkpt lat="43.63371" lon="6.23207">
        <ele>649.99</ele>
        <time>2015-02-19T13:13:55Z</time>
      </trkpt>
      <trkpt lat="43.63368" lon="6.23206">
        <ele>649.99</ele>
        <time>2015-02-19T13:13:56Z</time>
      </trkpt>
      <trkpt lat="43.63366" lon="6.23205">
        <ele>649.51</ele>
        <time>2015-02-19T13:13:57Z</time>
      </trkpt>
      <trkpt lat="43.63352" lon="6.23195">
        <ele>647.59</ele>
        <time>2015-02-19T13:14:09Z</time>
      </trkpt>
      <trkpt lat="43.63333" lon="6.23178">
        <ele>646.14</ele>
        <time>2015-02-19T13:14:22Z</time>
      </trkpt>
      <trkpt lat="43.63319" lon="6.23172">
        <ele>645.66</ele>
        <time>2015-02-19T13:14:34Z</time>
      </trkpt>
      <trkpt lat="43.63315" lon="6.23172">
        <ele>645.18</ele>
        <time>2015-02-19T13:14:36Z</time>
      </trkpt>
      <trkpt lat="43.63313" lon="6.23171">
        <ele>645.18</ele>
        <time>2015-02-19T13:14:37Z</time>
      </trkpt>
      <trkpt lat="43.6331" lon="6.23172">
        <ele>645.18</ele>
        <time>2015-02-19T13:14:38Z</time>
      </trkpt>
      <trkpt lat="43.63308" lon="6.23173">
        <ele>644.7</ele>
        <time>2015-02-19T13:14:39Z</time>
      </trkpt>
      <trkpt lat="43.63305" lon="6.23172">
        <ele>644.7</ele>
        <time>2015-02-19T13:14:40Z</time>
      </trkpt>
      <trkpt lat="43.63303" lon="6.23171">
        <ele>644.7</ele>
        <time>2015-02-19T13:14:41Z</time>
      </trkpt>
      <trkpt lat="43.63302" lon="6.23171">
        <ele>644.7</ele>
        <time>2015-02-19T13:14:42Z</time>
      </trkpt>
      <trkpt lat="43.633" lon="6.2317">
        <ele>644.7</ele>
        <time>2015-02-19T13:14:43Z</time>
      </trkpt>
      <trkpt lat="43.63287" lon="6.23167">
        <ele>641.82</ele>
        <time>2015-02-19T13:14:53Z</time>
      </trkpt>
      <trkpt lat="43.63285" lon="6.23166">
        <ele>641.82</ele>
        <time>2015-02-19T13:14:55Z</time>
      </trkpt>
      <trkpt lat="43.6327" lon="6.23165">
        <ele>638.93</ele>
        <time>2015-02-19T13:15:05Z</time>
      </trkpt>
      <trkpt lat="43.63268" lon="6.23165">
        <ele>638.45</ele>
        <time>2015-02-19T13:15:06Z</time>
      </trkpt>
      <trkpt lat="43.63266" lon="6.23165">
        <ele>637.97</ele>
        <time>2015-02-19T13:15:07Z</time>
      </trkpt>
      <trkpt lat="43.63264" lon="6.23165">
        <ele>637.97</ele>
        <time>2015-02-19T13:15:08Z</time>
      </trkpt>
      <trkpt lat="43.63262" lon="6.23165">
        <ele>637.97</ele>
        <time>2015-02-19T13:15:09Z</time>
      </trkpt>
      <trkpt lat="43.6326" lon="6.23164">
        <ele>637.49</ele>
        <time>2015-02-19T13:15:10Z</time>
      </trkpt>
      <trkpt lat="43.63258" lon="6.23164">
        <ele>637.01</ele>
        <time>2015-02-19T13:15:11Z</time>
      </trkpt>
      <trkpt lat="43.63256" lon="6.23164">
        <ele>637.01</ele>
        <time>2015-02-19T13:15:12Z</time>
      </trkpt>
      <trkpt lat="43.63255" lon="6.23164">
        <ele>636.53</ele>
        <time>2015-02-19T13:15:13Z</time>
      </trkpt>
      <trkpt lat="43.63253" lon="6.23164">
        <ele>636.53</ele>
        <time>2015-02-19T13:15:14Z</time>
      </trkpt>
      <trkpt lat="43.63252" lon="6.23164">
        <ele>636.05</ele>
        <time>2015-02-19T13:15:15Z</time>
      </trkpt>
      <trkpt lat="43.6325" lon="6.23163">
        <ele>636.05</ele>
        <time>2015-02-19T13:15:16Z</time>
      </trkpt>
      <trkpt lat="43.63248" lon="6.23163">
        <ele>635.57</ele>
        <time>2015-02-19T13:15:17Z</time>
      </trkpt>
      <trkpt lat="43.63243" lon="6.23164">
        <ele>634.61</ele>
        <time>2015-02-19T13:15:21Z</time>
      </trkpt>
      <trkpt lat="43.63241" lon="6.23165">
        <ele>634.13</ele>
        <time>2015-02-19T13:15:22Z</time>
      </trkpt>
      <trkpt lat="43.6324" lon="6.23166">
        <ele>633.65</ele>
        <time>2015-02-19T13:15:23Z</time>
      </trkpt>
      <trkpt lat="43.63238" lon="6.23167">
        <ele>633.65</ele>
        <time>2015-02-19T13:15:24Z</time>
      </trkpt>
      <trkpt lat="43.63237" lon="6.23168">
        <ele>633.65</ele>
        <time>2015-02-19T13:15:25Z</time>
      </trkpt>
      <trkpt lat="43.63236" lon="6.23169">
        <ele>633.65</ele>
        <time>2015-02-19T13:15:26Z</time>
      </trkpt>
      <trkpt lat="43.63234" lon="6.23169">
        <ele>633.17</ele>
        <time>2015-02-19T13:15:27Z</time>
      </trkpt>
      <trkpt lat="43.63232" lon="6.2317">
        <ele>633.17</ele>
        <time>2015-02-19T13:15:28Z</time>
      </trkpt>
      <trkpt lat="43.63231" lon="6.2317">
        <ele>633.17</ele>
        <time>2015-02-19T13:15:29Z</time>
      </trkpt>
      <trkpt lat="43.6323" lon="6.23171">
        <ele>632.68</ele>
        <time>2015-02-19T13:15:30Z</time>
      </trkpt>
      <trkpt lat="43.63229" lon="6.23172">
        <ele>632.68</ele>
        <time>2015-02-19T13:15:31Z</time>
      </trkpt>
      <trkpt lat="43.63222" lon="6.23184">
        <ele>631.24</ele>
        <time>2015-02-19T13:15:40Z</time>
      </trkpt>
      <trkpt lat="43.63221" lon="6.23185">
        <ele>630.76</ele>
        <time>2015-02-19T13:15:41Z</time>
      </trkpt>
      <trkpt lat="43.6322" lon="6.23186">
        <ele>630.76</ele>
        <time>2015-02-19T13:15:42Z</time>
      </trkpt>
      <trkpt lat="43.63213" lon="6.23189">
        <ele>629.8</ele>
        <time>2015-02-19T13:15:47Z</time>
      </trkpt>
      <trkpt lat="43.6321" lon="6.23188">
        <ele>628.84</ele>
        <time>2015-02-19T13:15:50Z</time>
      </trkpt>
      <trkpt lat="43.63206" lon="6.23182">
        <ele>627.88</ele>
        <time>2015-02-19T13:15:54Z</time>
      </trkpt>
      <trkpt lat="43.63206" lon="6.2318">
        <ele>627.4</ele>
        <time>2015-02-19T13:15:55Z</time>
      </trkpt>
      <trkpt lat="43.63205" lon="6.23178">
        <ele>627.4</ele>
        <time>2015-02-19T13:15:56Z</time>
      </trkpt>
      <trkpt lat="43.63205" lon="6.23176">
        <ele>627.4</ele>
        <time>2015-02-19T13:15:57Z</time>
      </trkpt>
      <trkpt lat="43.63206" lon="6.23174">
        <ele>627.4</ele>
        <time>2015-02-19T13:15:58Z</time>
      </trkpt>
      <trkpt lat="43.63206" lon="6.23172">
        <ele>626.92</ele>
        <time>2015-02-19T13:15:59Z</time>
      </trkpt>
      <trkpt lat="43.63205" lon="6.2317">
        <ele>626.44</ele>
        <time>2015-02-19T13:16:00Z</time>
      </trkpt>
      <trkpt lat="43.63205" lon="6.23167">
        <ele>626.44</ele>
        <time>2015-02-19T13:16:01Z</time>
      </trkpt>
      <trkpt lat="43.63204" lon="6.23165">
        <ele>626.44</ele>
        <time>2015-02-19T13:16:02Z</time>
      </trkpt>
      <trkpt lat="43.63204" lon="6.23163">
        <ele>625.96</ele>
        <time>2015-02-19T13:16:03Z</time>
      </trkpt>
      <trkpt lat="43.63203" lon="6.23162">
        <ele>625.47</ele>
        <time>2015-02-19T13:16:04Z</time>
      </trkpt>
      <trkpt lat="43.63203" lon="6.2316">
        <ele>625.47</ele>
        <time>2015-02-19T13:16:05Z</time>
      </trkpt>
      <trkpt lat="43.63203" lon="6.23159">
        <ele>625.47</ele>
        <time>2015-02-19T13:16:06Z</time>
      </trkpt>
      <trkpt lat="43.63203" lon="6.23157">
        <ele>624.99</ele>
        <time>2015-02-19T13:16:07Z</time>
      </trkpt>
      <trkpt lat="43.63203" lon="6.23152">
        <ele>624.03</ele>
        <time>2015-02-19T13:16:10Z</time>
      </trkpt>
      <trkpt lat="43.63203" lon="6.2315">
        <ele>624.03</ele>
        <time>2015-02-19T13:16:11Z</time>
      </trkpt>
      <trkpt lat="43.6321" lon="6.23126">
        <ele>622.11</ele>
        <time>2015-02-19T13:16:22Z</time>
      </trkpt>
      <trkpt lat="43.63209" lon="6.23111">
        <ele>620.67</ele>
        <time>2015-02-19T13:16:31Z</time>
      </trkpt>
      <trkpt lat="43.63206" lon="6.23109">
        <ele>620.67</ele>
        <time>2015-02-19T13:16:34Z</time>
      </trkpt>
      <trkpt lat="43.63204" lon="6.23109">
        <ele>619.71</ele>
        <time>2015-02-19T13:16:35Z</time>
      </trkpt>
      <trkpt lat="43.63202" lon="6.2311">
        <ele>619.71</ele>
        <time>2015-02-19T13:16:36Z</time>
      </trkpt>
      <trkpt lat="43.63179" lon="6.23122">
        <ele>617.78</ele>
        <time>2015-02-19T13:16:51Z</time>
      </trkpt>
      <trkpt lat="43.63164" lon="6.23137">
        <ele>615.86</ele>
        <time>2015-02-19T13:17:03Z</time>
      </trkpt>
      <trkpt lat="43.6316" lon="6.23142">
        <ele>615.38</ele>
        <time>2015-02-19T13:17:06Z</time>
      </trkpt>
      <trkpt lat="43.63159" lon="6.23143">
        <ele>614.9</ele>
        <time>2015-02-19T13:17:07Z</time>
      </trkpt>
      <trkpt lat="43.63153" lon="6.23152">
        <ele>614.42</ele>
        <time>2015-02-19T13:17:14Z</time>
      </trkpt>
      <trkpt lat="43.63148" lon="6.23157">
        <ele>613.46</ele>
        <time>2015-02-19T13:17:18Z</time>
      </trkpt>
      <trkpt lat="43.63146" lon="6.23158">
        <ele>613.46</ele>
        <time>2015-02-19T13:17:19Z</time>
      </trkpt>
      <trkpt lat="43.63144" lon="6.23158">
        <ele>612.98</ele>
        <time>2015-02-19T13:17:20Z</time>
      </trkpt>
      <trkpt lat="43.63138" lon="6.23155">
        <ele>612.02</ele>
        <time>2015-02-19T13:17:25Z</time>
      </trkpt>
      <trkpt lat="43.63135" lon="6.23146">
        <ele>610.57</ele>
        <time>2015-02-19T13:17:31Z</time>
      </trkpt>
      <trkpt lat="43.63135" lon="6.23145">
        <ele>610.09</ele>
        <time>2015-02-19T13:17:32Z</time>
      </trkpt>
      <trkpt lat="43.63136" lon="6.23143">
        <ele>610.57</ele>
        <time>2015-02-19T13:17:33Z</time>
      </trkpt>
      <trkpt lat="43.63136" lon="6.2314">
        <ele>610.09</ele>
        <time>2015-02-19T13:17:34Z</time>
      </trkpt>
      <trkpt lat="43.63137" lon="6.23138">
        <ele>610.09</ele>
        <time>2015-02-19T13:17:35Z</time>
      </trkpt>
      <trkpt lat="43.63137" lon="6.23135">
        <ele>609.61</ele>
        <time>2015-02-19T13:17:36Z</time>
      </trkpt>
      <trkpt lat="43.63147" lon="6.23112">
        <ele>606.73</ele>
        <time>2015-02-19T13:17:49Z</time>
      </trkpt>
      <trkpt lat="43.63149" lon="6.23105">
        <ele>606.25</ele>
        <time>2015-02-19T13:17:52Z</time>
      </trkpt>
      <trkpt lat="43.6315" lon="6.23103">
        <ele>605.77</ele>
        <time>2015-02-19T13:17:53Z</time>
      </trkpt>
      <trkpt lat="43.63151" lon="6.23102">
        <ele>605.29</ele>
        <time>2015-02-19T13:17:54Z</time>
      </trkpt>
      <trkpt lat="43.63151" lon="6.231">
        <ele>605.29</ele>
        <time>2015-02-19T13:17:55Z</time>
      </trkpt>
      <trkpt lat="43.63151" lon="6.23097">
        <ele>605.29</ele>
        <time>2015-02-19T13:17:56Z</time>
      </trkpt>
      <trkpt lat="43.63151" lon="6.23095">
        <ele>604.81</ele>
        <time>2015-02-19T13:17:57Z</time>
      </trkpt>
      <trkpt lat="43.63152" lon="6.23093">
        <ele>604.33</ele>
        <time>2015-02-19T13:17:58Z</time>
      </trkpt>
      <trkpt lat="43.63152" lon="6.23091">
        <ele>604.33</ele>
        <time>2015-02-19T13:17:59Z</time>
      </trkpt>
      <trkpt lat="43.63152" lon="6.23089">
        <ele>603.85</ele>
        <time>2015-02-19T13:18:00Z</time>
      </trkpt>
      <trkpt lat="43.63153" lon="6.23087">
        <ele>603.85</ele>
        <time>2015-02-19T13:18:01Z</time>
      </trkpt>
      <trkpt lat="43.63153" lon="6.23085">
        <ele>603.36</ele>
        <time>2015-02-19T13:18:02Z</time>
      </trkpt>
      <trkpt lat="43.63153" lon="6.23081">
        <ele>602.88</ele>
        <time>2015-02-19T13:18:04Z</time>
      </trkpt>
      <trkpt lat="43.63152" lon="6.23079">
        <ele>601.92</ele>
        <time>2015-02-19T13:18:16Z</time>
      </trkpt>
      <trkpt lat="43.6315" lon="6.2308">
        <ele>601.92</ele>
        <time>2015-02-19T13:18:33Z</time>
      </trkpt>
      <trkpt lat="43.63148" lon="6.23079">
        <ele>601.92</ele>
        <time>2015-02-19T13:18:47Z</time>
      </trkpt>
      <trkpt lat="43.63147" lon="6.23077">
        <ele>601.92</ele>
        <time>2015-02-19T13:19:01Z</time>
      </trkpt>
      <trkpt lat="43.63149" lon="6.23073">
        <ele>601.44</ele>
        <time>2015-02-19T13:19:05Z</time>
      </trkpt>
      <trkpt lat="43.63149" lon="6.23069">
        <ele>600.96</ele>
        <time>2015-02-19T13:19:07Z</time>
      </trkpt>
      <trkpt lat="43.63149" lon="6.23058">
        <ele>599.04</ele>
        <time>2015-02-19T13:19:13Z</time>
      </trkpt>
      <trkpt lat="43.63147" lon="6.23041">
        <ele>595.67</ele>
        <time>2015-02-19T13:19:24Z</time>
      </trkpt>
      <trkpt lat="43.63145" lon="6.23032">
        <ele>594.23</ele>
        <time>2015-02-19T13:19:39Z</time>
      </trkpt>
      <trkpt lat="43.63144" lon="6.23029">
        <ele>593.75</ele>
        <time>2015-02-19T13:19:42Z</time>
      </trkpt>
      <trkpt lat="43.63136" lon="6.23027">
        <ele>592.31</ele>
        <time>2015-02-19T13:19:51Z</time>
      </trkpt>
      <trkpt lat="43.63133" lon="6.23039">
        <ele>592.31</ele>
        <time>2015-02-19T13:20:02Z</time>
      </trkpt>
      <trkpt lat="43.63132" lon="6.23044">
        <ele>592.79</ele>
        <time>2015-02-19T13:20:13Z</time>
      </trkpt>
      <trkpt lat="43.6313" lon="6.23043">
        <ele>592.31</ele>
        <time>2015-02-19T13:20:28Z</time>
      </trkpt>
      <trkpt lat="43.6313" lon="6.23043">
        <ele>592.79</ele>
        <time>2015-02-19T13:20:45Z</time>
      </trkpt>
      <trkpt lat="43.6313" lon="6.23043">
        <ele>592.79</ele>
        <time>2015-02-19T13:21:03Z</time>
      </trkpt>
      <trkpt lat="43.6313" lon="6.23044">
        <ele>592.31</ele>
        <time>2015-02-19T13:21:15Z</time>
      </trkpt>
      <trkpt lat="43.6313" lon="6.23043">
        <ele>592.79</ele>
        <time>2015-02-19T13:21:27Z</time>
      </trkpt>
      <trkpt lat="43.63129" lon="6.23043">
        <ele>592.31</ele>
        <time>2015-02-19T13:21:45Z</time>
      </trkpt>
      <trkpt lat="43.63129" lon="6.23043">
        <ele>592.31</ele>
        <time>2015-02-19T13:22:00Z</time>
      </trkpt>
      <trkpt lat="43.63127" lon="6.23047">
        <ele>592.31</ele>
        <time>2015-02-19T13:22:10Z</time>
      </trkpt>
      <trkpt lat="43.63126" lon="6.23058">
        <ele>592.79</ele>
        <time>2015-02-19T13:22:22Z</time>
      </trkpt>
      <trkpt lat="43.63124" lon="6.2306">
        <ele>593.27</ele>
        <time>2015-02-19T13:22:33Z</time>
      </trkpt>
      <trkpt lat="43.63124" lon="6.23059">
        <ele>593.27</ele>
        <time>2015-02-19T13:22:36Z</time>
      </trkpt>
      <trkpt lat="43.63124" lon="6.2306">
        <ele>593.27</ele>
        <time>2015-02-19T13:22:46Z</time>
      </trkpt>
      <trkpt lat="43.63125" lon="6.2306">
        <ele>593.27</ele>
        <time>2015-02-19T13:22:58Z</time>
      </trkpt>
      <trkpt lat="43.63127" lon="6.23059">
        <ele>593.27</ele>
        <time>2015-02-19T13:23:15Z</time>
      </trkpt>
      <trkpt lat="43.63127" lon="6.23058">
        <ele>593.27</ele>
        <time>2015-02-19T13:23:34Z</time>
      </trkpt>
      <trkpt lat="43.63126" lon="6.23059">
        <ele>593.27</ele>
        <time>2015-02-19T13:23:52Z</time>
      </trkpt>
      <trkpt lat="43.63123" lon="6.23059">
        <ele>592.79</ele>
        <time>2015-02-19T13:24:05Z</time>
      </trkpt>
      <trkpt lat="43.63123" lon="6.23058">
        <ele>592.79</ele>
        <time>2015-02-19T13:24:28Z</time>
      </trkpt>
      <trkpt lat="43.63122" lon="6.23059">
        <ele>592.79</ele>
        <time>2015-02-19T13:24:46Z</time>
      </trkpt>
      <trkpt lat="43.63121" lon="6.23059">
        <ele>593.27</ele>
        <time>2015-02-19T13:25:05Z</time>
      </trkpt>
      <trkpt lat="43.63121" lon="6.2306">
        <ele>593.27</ele>
        <time>2015-02-19T13:25:25Z</time>
      </trkpt>
      <trkpt lat="43.6312" lon="6.2306">
        <ele>593.27</ele>
        <time>2015-02-19T13:25:50Z</time>
      </trkpt>
      <trkpt lat="43.63119" lon="6.23063">
        <ele>593.75</ele>
        <time>2015-02-19T13:26:02Z</time>
      </trkpt>
      <trkpt lat="43.6312" lon="6.23063">
        <ele>594.23</ele>
        <time>2015-02-19T13:26:15Z</time>
      </trkpt>
      <trkpt lat="43.63121" lon="6.23065">
        <ele>593.75</ele>
        <time>2015-02-19T13:26:31Z</time>
      </trkpt>
      <trkpt lat="43.63121" lon="6.23063">
        <ele>593.75</ele>
        <time>2015-02-19T13:26:45Z</time>
      </trkpt>
      <trkpt lat="43.63122" lon="6.23061">
        <ele>593.75</ele>
        <time>2015-02-19T13:26:59Z</time>
      </trkpt>
      <trkpt lat="43.63126" lon="6.23062">
        <ele>594.23</ele>
        <time>2015-02-19T13:27:15Z</time>
      </trkpt>
      <trkpt lat="43.63126" lon="6.23062">
        <ele>594.23</ele>
        <time>2015-02-19T13:27:37Z</time>
      </trkpt>
      <trkpt lat="43.63127" lon="6.23063">
        <ele>594.23</ele>
        <time>2015-02-19T13:28:00Z</time>
      </trkpt>
      <trkpt lat="43.63127" lon="6.23065">
        <ele>594.23</ele>
        <time>2015-02-19T13:28:16Z</time>
      </trkpt>
      <trkpt lat="43.63121" lon="6.23066">
        <ele>593.75</ele>
        <time>2015-02-19T13:28:30Z</time>
      </trkpt>
      <trkpt lat="43.63119" lon="6.23066">
        <ele>593.75</ele>
        <time>2015-02-19T13:28:48Z</time>
      </trkpt>
      <trkpt lat="43.63117" lon="6.2307">
        <ele>593.75</ele>
        <time>2015-02-19T13:29:04Z</time>
      </trkpt>
      <trkpt lat="43.63115" lon="6.23075">
        <ele>593.75</ele>
        <time>2015-02-19T13:29:23Z</time>
      </trkpt>
      <trkpt lat="43.63115" lon="6.23074">
        <ele>593.27</ele>
        <time>2015-02-19T13:29:40Z</time>
      </trkpt>
      <trkpt lat="43.63115" lon="6.23072">
        <ele>593.27</ele>
        <time>2015-02-19T13:29:50Z</time>
      </trkpt>
      <trkpt lat="43.63114" lon="6.23072">
        <ele>593.27</ele>
        <time>2015-02-19T13:30:01Z</time>
      </trkpt>
      <trkpt lat="43.63113" lon="6.23072">
        <ele>593.27</ele>
        <time>2015-02-19T13:30:12Z</time>
      </trkpt>
      <trkpt lat="43.63112" lon="6.23073">
        <ele>593.27</ele>
        <time>2015-02-19T13:30:35Z</time>
      </trkpt>
      <trkpt lat="43.6311" lon="6.23075">
        <ele>593.27</ele>
        <time>2015-02-19T13:30:52Z</time>
      </trkpt>
      <trkpt lat="43.63108" lon="6.23076">
        <ele>593.27</ele>
        <time>2015-02-19T13:31:06Z</time>
      </trkpt>
      <trkpt lat="43.63108" lon="6.23075">
        <ele>593.27</ele>
        <time>2015-02-19T13:31:25Z</time>
      </trkpt>
      <trkpt lat="43.63108" lon="6.23075">
        <ele>593.27</ele>
        <time>2015-02-19T13:31:43Z</time>
      </trkpt>
      <trkpt lat="43.63107" lon="6.23075">
        <ele>593.27</ele>
        <time>2015-02-19T13:32:00Z</time>
      </trkpt>
      <trkpt lat="43.63108" lon="6.23076">
        <ele>593.27</ele>
        <time>2015-02-19T13:32:19Z</time>
      </trkpt>
      <trkpt lat="43.63108" lon="6.23076">
        <ele>593.27</ele>
        <time>2015-02-19T13:32:38Z</time>
      </trkpt>
      <trkpt lat="43.63106" lon="6.23076">
        <ele>593.27</ele>
        <time>2015-02-19T13:33:07Z</time>
      </trkpt>
      <trkpt lat="43.63106" lon="6.23077">
        <ele>593.75</ele>
        <time>2015-02-19T13:33:29Z</time>
      </trkpt>
      <trkpt lat="43.63106" lon="6.23077">
        <ele>593.27</ele>
        <time>2015-02-19T13:33:49Z</time>
      </trkpt>
      <trkpt lat="43.63106" lon="6.23077">
        <ele>593.27</ele>
        <time>2015-02-19T13:34:04Z</time>
      </trkpt>
      <trkpt lat="43.63105" lon="6.23079">
        <ele>593.27</ele>
        <time>2015-02-19T13:34:20Z</time>
      </trkpt>
      <trkpt lat="43.63102" lon="6.23078">
        <ele>593.27</ele>
        <time>2015-02-19T13:34:32Z</time>
      </trkpt>
      <trkpt lat="43.63103" lon="6.23076">
        <ele>592.79</ele>
        <time>2015-02-19T13:34:49Z</time>
      </trkpt>
      <trkpt lat="43.63101" lon="6.23072">
        <ele>593.75</ele>
        <time>2015-02-19T13:35:02Z</time>
      </trkpt>
      <trkpt lat="43.63102" lon="6.23073">
        <ele>592.79</ele>
        <time>2015-02-19T13:35:25Z</time>
      </trkpt>
      <trkpt lat="43.63102" lon="6.23072">
        <ele>592.79</ele>
        <time>2015-02-19T13:35:43Z</time>
      </trkpt>
      <trkpt lat="43.63106" lon="6.2307">
        <ele>592.79</ele>
        <time>2015-02-19T13:35:55Z</time>
      </trkpt>
      <trkpt lat="43.63109" lon="6.23066">
        <ele>593.27</ele>
        <time>2015-02-19T13:35:59Z</time>
      </trkpt>
      <trkpt lat="43.63119" lon="6.2306">
        <ele>593.27</ele>
        <time>2015-02-19T13:36:08Z</time>
      </trkpt>
      <trkpt lat="43.63123" lon="6.2306">
        <ele>593.27</ele>
        <time>2015-02-19T13:36:18Z</time>
      </trkpt>
      <trkpt lat="43.63124" lon="6.23061">
        <ele>593.27</ele>
        <time>2015-02-19T13:36:31Z</time>
      </trkpt>
      <trkpt lat="43.63125" lon="6.23061">
        <ele>592.79</ele>
        <time>2015-02-19T13:36:39Z</time>
      </trkpt>
      <trkpt lat="43.63124" lon="6.23062">
        <ele>593.27</ele>
        <time>2015-02-19T13:36:54Z</time>
      </trkpt>
      <trkpt lat="43.63124" lon="6.23061">
        <ele>593.27</ele>
        <time>2015-02-19T13:37:13Z</time>
      </trkpt>
      <trkpt lat="43.63124" lon="6.23062">
        <ele>592.79</ele>
        <time>2015-02-19T13:37:26Z</time>
      </trkpt>
      <trkpt lat="43.63124" lon="6.23062">
        <ele>593.27</ele>
        <time>2015-02-19T13:37:39Z</time>
      </trkpt>
      <trkpt lat="43.63123" lon="6.23062">
        <ele>593.27</ele>
        <time>2015-02-19T13:37:57Z</time>
      </trkpt>
      <trkpt lat="43.63124" lon="6.23062">
        <ele>593.27</ele>
        <time>2015-02-19T13:38:09Z</time>
      </trkpt>
      <trkpt lat="43.63124" lon="6.23061">
        <ele>593.27</ele>
        <time>2015-02-19T13:38:23Z</time>
      </trkpt>
      <trkpt lat="43.63125" lon="6.23061">
        <ele>593.27</ele>
        <time>2015-02-19T13:38:41Z</time>
      </trkpt>
      <trkpt lat="43.63125" lon="6.23061">
        <ele>593.75</ele>
        <time>2015-02-19T13:38:55Z</time>
      </trkpt>
      <trkpt lat="43.63124" lon="6.23062">
        <ele>593.75</ele>
        <time>2015-02-19T13:39:11Z</time>
      </trkpt>
      <trkpt lat="43.63125" lon="6.23061">
        <ele>593.27</ele>
        <time>2015-02-19T13:39:27Z</time>
      </trkpt>
      <trkpt lat="43.63124" lon="6.2306">
        <ele>593.75</ele>
        <time>2015-02-19T13:39:40Z</time>
      </trkpt>
      <trkpt lat="43.63125" lon="6.23059">
        <ele>593.75</ele>
        <time>2015-02-19T13:39:54Z</time>
      </trkpt>
      <trkpt lat="43.63125" lon="6.23055">
        <ele>592.79</ele>
        <time>2015-02-19T13:40:07Z</time>
      </trkpt>
      <trkpt lat="43.63126" lon="6.23054">
        <ele>592.31</ele>
        <time>2015-02-19T13:40:18Z</time>
      </trkpt>
      <trkpt lat="43.63126" lon="6.23053">
        <ele>592.79</ele>
        <time>2015-02-19T13:40:38Z</time>
      </trkpt>
      <trkpt lat="43.63127" lon="6.23053">
        <ele>592.79</ele>
        <time>2015-02-19T13:41:09Z</time>
      </trkpt>
      <trkpt lat="43.63128" lon="6.23053">
        <ele>592.79</ele>
        <time>2015-02-19T13:41:39Z</time>
      </trkpt>
      <trkpt lat="43.63128" lon="6.23055">
        <ele>593.27</ele>
        <time>2015-02-19T13:41:53Z</time>
      </trkpt>
      <trkpt lat="43.63127" lon="6.23055">
        <ele>592.79</ele>
        <time>2015-02-19T13:42:10Z</time>
      </trkpt>
      <trkpt lat="43.63126" lon="6.23056">
        <ele>593.27</ele>
        <time>2015-02-19T13:42:29Z</time>
      </trkpt>
      <trkpt lat="43.63122" lon="6.23058">
        <ele>592.79</ele>
        <time>2015-02-19T13:42:42Z</time>
      </trkpt>
      <trkpt lat="43.63122" lon="6.23057">
        <ele>592.79</ele>
        <time>2015-02-19T13:43:01Z</time>
      </trkpt>
      <trkpt lat="43.63122" lon="6.23058">
        <ele>592.79</ele>
        <time>2015-02-19T13:43:24Z</time>
      </trkpt>
      <trkpt lat="43.63122" lon="6.23056">
        <ele>592.79</ele>
        <time>2015-02-19T13:43:39Z</time>
      </trkpt>
      <trkpt lat="43.63122" lon="6.23056">
        <ele>592.79</ele>
        <time>2015-02-19T13:44:02Z</time>
      </trkpt>
      <trkpt lat="43.63122" lon="6.23056">
        <ele>592.79</ele>
        <time>2015-02-19T13:44:20Z</time>
      </trkpt>
      <trkpt lat="43.63122" lon="6.23056">
        <ele>592.79</ele>
        <time>2015-02-19T13:44:34Z</time>
      </trkpt>
      <trkpt lat="43.63123" lon="6.23057">
        <ele>592.79</ele>
        <time>2015-02-19T13:44:50Z</time>
      </trkpt>
      <trkpt lat="43.63124" lon="6.23057">
        <ele>592.79</ele>
        <time>2015-02-19T13:45:09Z</time>
      </trkpt>
      <trkpt lat="43.63124" lon="6.23057">
        <ele>592.79</ele>
        <time>2015-02-19T13:45:31Z</time>
      </trkpt>
      <trkpt lat="43.63124" lon="6.23057">
        <ele>592.79</ele>
        <time>2015-02-19T13:45:49Z</time>
      </trkpt>
      <trkpt lat="43.63125" lon="6.23058">
        <ele>593.27</ele>
        <time>2015-02-19T13:46:09Z</time>
      </trkpt>
      <trkpt lat="43.63125" lon="6.23058">
        <ele>592.79</ele>
        <time>2015-02-19T13:46:32Z</time>
      </trkpt>
      <trkpt lat="43.63125" lon="6.23059">
        <ele>592.79</ele>
        <time>2015-02-19T13:46:50Z</time>
      </trkpt>
      <trkpt lat="43.63124" lon="6.23059">
        <ele>593.27</ele>
        <time>2015-02-19T13:47:08Z</time>
      </trkpt>
      <trkpt lat="43.63124" lon="6.2306">
        <ele>592.79</ele>
        <time>2015-02-19T13:47:29Z</time>
      </trkpt>
      <trkpt lat="43.63124" lon="6.2306">
        <ele>592.79</ele>
        <time>2015-02-19T13:47:45Z</time>
      </trkpt>
      <trkpt lat="43.63124" lon="6.23061">
        <ele>592.79</ele>
        <time>2015-02-19T13:48:04Z</time>
      </trkpt>
      <trkpt lat="43.63124" lon="6.23061">
        <ele>592.79</ele>
        <time>2015-02-19T13:48:21Z</time>
      </trkpt>
      <trkpt lat="43.63124" lon="6.23061">
        <ele>592.79</ele>
        <time>2015-02-19T13:48:38Z</time>
      </trkpt>
      <trkpt lat="43.63124" lon="6.23062">
        <ele>593.27</ele>
        <time>2015-02-19T13:48:52Z</time>
      </trkpt>
      <trkpt lat="43.63124" lon="6.23062">
        <ele>592.79</ele>
        <time>2015-02-19T13:49:07Z</time>
      </trkpt>
      <trkpt lat="43.63123" lon="6.23063">
        <ele>592.79</ele>
        <time>2015-02-19T13:49:25Z</time>
      </trkpt>
      <trkpt lat="43.63122" lon="6.23063">
        <ele>592.79</ele>
        <time>2015-02-19T13:49:40Z</time>
      </trkpt>
      <trkpt lat="43.63121" lon="6.23065">
        <ele>592.79</ele>
        <time>2015-02-19T13:50:11Z</time>
      </trkpt>
      <trkpt lat="43.63121" lon="6.23065">
        <ele>592.79</ele>
        <time>2015-02-19T13:50:30Z</time>
      </trkpt>
      <trkpt lat="43.6312" lon="6.23066">
        <ele>592.79</ele>
        <time>2015-02-19T13:50:52Z</time>
      </trkpt>
      <trkpt lat="43.6312" lon="6.23063">
        <ele>592.31</ele>
        <time>2015-02-19T13:51:08Z</time>
      </trkpt>
      <trkpt lat="43.63121" lon="6.23063">
        <ele>592.79</ele>
        <time>2015-02-19T13:51:25Z</time>
      </trkpt>
      <trkpt lat="43.63121" lon="6.23062">
        <ele>592.79</ele>
        <time>2015-02-19T13:51:44Z</time>
      </trkpt>
      <trkpt lat="43.6312" lon="6.23063">
        <ele>585.58</ele>
        <time>2015-02-19T13:51:58Z</time>
      </trkpt>
      <trkpt lat="43.6312" lon="6.23063">
        <ele>596.64</ele>
        <time>2015-02-19T13:51:59Z</time>
      </trkpt>
      <trkpt lat="43.6312" lon="6.23063">
        <ele>592.79</ele>
        <time>2015-02-19T13:52:00Z</time>
      </trkpt>
      <trkpt lat="43.6312" lon="6.23063">
        <ele>592.31</ele>
        <time>2015-02-19T13:52:14Z</time>
      </trkpt>
      <trkpt lat="43.63116" lon="6.23065">
        <ele>592.31</ele>
        <time>2015-02-19T13:52:26Z</time>
      </trkpt>
      <trkpt lat="43.63122" lon="6.23061">
        <ele>592.79</ele>
        <time>2015-02-19T13:52:37Z</time>
      </trkpt>
      <trkpt lat="43.63127" lon="6.23061">
        <ele>592.79</ele>
        <time>2015-02-19T13:52:51Z</time>
      </trkpt>
      <trkpt lat="43.63126" lon="6.23062">
        <ele>592.79</ele>
        <time>2015-02-19T13:53:06Z</time>
      </trkpt>
      <trkpt lat="43.63126" lon="6.2306">
        <ele>592.31</ele>
        <time>2015-02-19T13:53:21Z</time>
      </trkpt>
      <trkpt lat="43.63126" lon="6.2306">
        <ele>592.79</ele>
        <time>2015-02-19T13:53:33Z</time>
      </trkpt>
      <trkpt lat="43.63125" lon="6.23059">
        <ele>592.79</ele>
        <time>2015-02-19T13:53:49Z</time>
      </trkpt>
      <trkpt lat="43.63126" lon="6.23059">
        <ele>592.79</ele>
        <time>2015-02-19T13:54:02Z</time>
      </trkpt>
      <trkpt lat="43.63127" lon="6.23052">
        <ele>592.31</ele>
        <time>2015-02-19T13:54:09Z</time>
      </trkpt>
      <trkpt lat="43.63137" lon="6.23042">
        <ele>591.83</ele>
        <time>2015-02-19T13:54:23Z</time>
      </trkpt>
      <trkpt lat="43.63138" lon="6.23036">
        <ele>591.83</ele>
        <time>2015-02-19T13:54:29Z</time>
      </trkpt>
      <trkpt lat="43.63139" lon="6.23028">
        <ele>591.83</ele>
        <time>2015-02-19T13:54:32Z</time>
      </trkpt>
      <trkpt lat="43.6314" lon="6.23013">
        <ele>590.87</ele>
        <time>2015-02-19T13:54:46Z</time>
      </trkpt>
      <trkpt lat="43.6314" lon="6.23012">
        <ele>590.87</ele>
        <time>2015-02-19T13:54:58Z</time>
      </trkpt>
      <trkpt lat="43.6314" lon="6.2301">
        <ele>590.39</ele>
        <time>2015-02-19T13:55:15Z</time>
      </trkpt>
      <trkpt lat="43.63136" lon="6.23013">
        <ele>590.87</ele>
        <time>2015-02-19T13:55:29Z</time>
      </trkpt>
      <trkpt lat="43.63136" lon="6.23012">
        <ele>590.87</ele>
        <time>2015-02-19T13:55:46Z</time>
      </trkpt>
      <trkpt lat="43.63138" lon="6.23011">
        <ele>590.39</ele>
        <time>2015-02-19T13:56:06Z</time>
      </trkpt>
      <trkpt lat="43.63138" lon="6.23011">
        <ele>590.39</ele>
        <time>2015-02-19T13:56:26Z</time>
      </trkpt>
      <trkpt lat="43.63138" lon="6.2301">
        <ele>590.39</ele>
        <time>2015-02-19T13:56:49Z</time>
      </trkpt>
      <trkpt lat="43.63137" lon="6.2301">
        <ele>590.87</ele>
        <time>2015-02-19T13:57:03Z</time>
      </trkpt>
      <trkpt lat="43.63138" lon="6.2301">
        <ele>590.87</ele>
        <time>2015-02-19T13:57:19Z</time>
      </trkpt>
      <trkpt lat="43.63137" lon="6.2301">
        <ele>590.87</ele>
        <time>2015-02-19T13:57:32Z</time>
      </trkpt>
      <trkpt lat="43.63137" lon="6.23009">
        <ele>590.39</ele>
        <time>2015-02-19T13:57:33Z</time>
      </trkpt>
      <trkpt lat="43.63135" lon="6.23006">
        <ele>590.87</ele>
        <time>2015-02-19T13:57:36Z</time>
      </trkpt>
      <trkpt lat="43.6313" lon="6.23003">
        <ele>588.95</ele>
        <time>2015-02-19T13:57:43Z</time>
      </trkpt>
      <trkpt lat="43.63116" lon="6.23005">
        <ele>587.5</ele>
        <time>2015-02-19T13:57:54Z</time>
      </trkpt>
      <trkpt lat="43.63114" lon="6.23003">
        <ele>587.5</ele>
        <time>2015-02-19T13:57:56Z</time>
      </trkpt>
      <trkpt lat="43.63102" lon="6.22992">
        <ele>585.1</ele>
        <time>2015-02-19T13:58:08Z</time>
      </trkpt>
      <trkpt lat="43.63093" lon="6.22985">
        <ele>582.22</ele>
        <time>2015-02-19T13:58:19Z</time>
      </trkpt>
      <trkpt lat="43.63079" lon="6.22986">
        <ele>579.81</ele>
        <time>2015-02-19T13:58:31Z</time>
      </trkpt>
      <trkpt lat="43.63078" lon="6.22988">
        <ele>579.33</ele>
        <time>2015-02-19T13:58:33Z</time>
      </trkpt>
      <trkpt lat="43.63067" lon="6.23001">
        <ele>578.85</ele>
        <time>2015-02-19T13:58:44Z</time>
      </trkpt>
      <trkpt lat="43.63058" lon="6.23013">
        <ele>578.85</ele>
        <time>2015-02-19T13:58:54Z</time>
      </trkpt>
      <trkpt lat="43.63052" lon="6.23019">
        <ele>578.85</ele>
        <time>2015-02-19T13:59:02Z</time>
      </trkpt>
      <trkpt lat="43.6305" lon="6.23027">
        <ele>578.37</ele>
        <time>2015-02-19T13:59:07Z</time>
      </trkpt>
      <trkpt lat="43.63047" lon="6.23028">
        <ele>578.85</ele>
        <time>2015-02-19T13:59:09Z</time>
      </trkpt>
      <trkpt lat="43.6303" lon="6.23032">
        <ele>575.01</ele>
        <time>2015-02-19T13:59:21Z</time>
      </trkpt>
      <trkpt lat="43.63024" lon="6.23033">
        <ele>575.01</ele>
        <time>2015-02-19T13:59:25Z</time>
      </trkpt>
      <trkpt lat="43.63016" lon="6.23033">
        <ele>573.56</ele>
        <time>2015-02-19T13:59:33Z</time>
      </trkpt>
      <trkpt lat="43.63008" lon="6.23034">
        <ele>572.12</ele>
        <time>2015-02-19T13:59:39Z</time>
      </trkpt>
      <trkpt lat="43.62997" lon="6.23032">
        <ele>571.64</ele>
        <time>2015-02-19T13:59:48Z</time>
      </trkpt>
      <trkpt lat="43.62987" lon="6.23041">
        <ele>570.68</ele>
        <time>2015-02-19T14:00:01Z</time>
      </trkpt>
      <trkpt lat="43.62981" lon="6.23045">
        <ele>568.28</ele>
        <time>2015-02-19T14:00:08Z</time>
      </trkpt>
      <trkpt lat="43.62971" lon="6.23045">
        <ele>565.87</ele>
        <time>2015-02-19T14:00:14Z</time>
      </trkpt>
      <trkpt lat="43.62967" lon="6.23028">
        <ele>566.35</ele>
        <time>2015-02-19T14:00:26Z</time>
      </trkpt>
      <trkpt lat="43.62966" lon="6.23021">
        <ele>566.35</ele>
        <time>2015-02-19T14:00:30Z</time>
      </trkpt>
      <trkpt lat="43.62966" lon="6.23012">
        <ele>565.87</ele>
        <time>2015-02-19T14:00:34Z</time>
      </trkpt>
      <trkpt lat="43.62969" lon="6.22998">
        <ele>565.87</ele>
        <time>2015-02-19T14:00:42Z</time>
      </trkpt>
      <trkpt lat="43.62971" lon="6.22993">
        <ele>565.39</ele>
        <time>2015-02-19T14:00:46Z</time>
      </trkpt>
      <trkpt lat="43.62974" lon="6.2299">
        <ele>565.39</ele>
        <time>2015-02-19T14:00:49Z</time>
      </trkpt>
      <trkpt lat="43.6298" lon="6.22972">
        <ele>562.51</ele>
        <time>2015-02-19T14:01:05Z</time>
      </trkpt>
      <trkpt lat="43.62984" lon="6.22961">
        <ele>561.07</ele>
        <time>2015-02-19T14:01:13Z</time>
      </trkpt>
      <trkpt lat="43.62987" lon="6.22941">
        <ele>558.66</ele>
        <time>2015-02-19T14:01:26Z</time>
      </trkpt>
      <trkpt lat="43.62989" lon="6.22928">
        <ele>557.7</ele>
        <time>2015-02-19T14:01:34Z</time>
      </trkpt>
      <trkpt lat="43.62993" lon="6.22909">
        <ele>553.86</ele>
        <time>2015-02-19T14:01:49Z</time>
      </trkpt>
      <trkpt lat="43.62998" lon="6.22896">
        <ele>550.97</ele>
        <time>2015-02-19T14:02:03Z</time>
      </trkpt>
      <trkpt lat="43.62998" lon="6.22892">
        <ele>549.53</ele>
        <time>2015-02-19T14:02:11Z</time>
      </trkpt>
      <trkpt lat="43.62995" lon="6.22884">
        <ele>549.05</ele>
        <time>2015-02-19T14:02:16Z</time>
      </trkpt>
      <trkpt lat="43.63001" lon="6.22869">
        <ele>546.65</ele>
        <time>2015-02-19T14:02:29Z</time>
      </trkpt>
      <trkpt lat="43.63005" lon="6.22857">
        <ele>544.72</ele>
        <time>2015-02-19T14:02:39Z</time>
      </trkpt>
      <trkpt lat="43.6301" lon="6.22846">
        <ele>543.28</ele>
        <time>2015-02-19T14:02:47Z</time>
      </trkpt>
      <trkpt lat="43.63013" lon="6.22842">
        <ele>542.32</ele>
        <time>2015-02-19T14:02:51Z</time>
      </trkpt>
      <trkpt lat="43.63016" lon="6.22815">
        <ele>539.44</ele>
        <time>2015-02-19T14:03:05Z</time>
      </trkpt>
      <trkpt lat="43.63019" lon="6.22808">
        <ele>539.44</ele>
        <time>2015-02-19T14:03:10Z</time>
      </trkpt>
      <trkpt lat="43.63026" lon="6.22798">
        <ele>537.99</ele>
        <time>2015-02-19T14:03:22Z</time>
      </trkpt>
      <trkpt lat="43.63026" lon="6.22797">
        <ele>537.99</ele>
        <time>2015-02-19T14:03:42Z</time>
      </trkpt>
      <trkpt lat="43.63026" lon="6.22797">
        <ele>537.99</ele>
        <time>2015-02-19T14:04:07Z</time>
      </trkpt>
      <trkpt lat="43.63026" lon="6.22796">
        <ele>537.99</ele>
        <time>2015-02-19T14:04:29Z</time>
      </trkpt>
      <trkpt lat="43.63027" lon="6.22796">
        <ele>537.99</ele>
        <time>2015-02-19T14:04:50Z</time>
      </trkpt>
      <trkpt lat="43.63028" lon="6.22795">
        <ele>537.99</ele>
        <time>2015-02-19T14:05:14Z</time>
      </trkpt>
      <trkpt lat="43.63028" lon="6.22794">
        <ele>537.51</ele>
        <time>2015-02-19T14:05:29Z</time>
      </trkpt>
      <trkpt lat="43.63028" lon="6.22793">
        <ele>537.03</ele>
        <time>2015-02-19T14:05:44Z</time>
      </trkpt>
      <trkpt lat="43.63031" lon="6.22786">
        <ele>537.03</ele>
        <time>2015-02-19T14:05:55Z</time>
      </trkpt>
      <trkpt lat="43.63033" lon="6.22782">
        <ele>536.55</ele>
        <time>2015-02-19T14:06:07Z</time>
      </trkpt>
      <trkpt lat="43.63032" lon="6.2278">
        <ele>536.55</ele>
        <time>2015-02-19T14:06:25Z</time>
      </trkpt>
      <trkpt lat="43.63032" lon="6.22779">
        <ele>536.07</ele>
        <time>2015-02-19T14:06:44Z</time>
      </trkpt>
      <trkpt lat="43.63032" lon="6.22779">
        <ele>536.07</ele>
        <time>2015-02-19T14:07:00Z</time>
      </trkpt>
      <trkpt lat="43.63032" lon="6.22778">
        <ele>536.07</ele>
        <time>2015-02-19T14:07:24Z</time>
      </trkpt>
      <trkpt lat="43.63032" lon="6.22777">
        <ele>536.07</ele>
        <time>2015-02-19T14:07:42Z</time>
      </trkpt>
      <trkpt lat="43.63036" lon="6.22772">
        <ele>535.59</ele>
        <time>2015-02-19T14:07:54Z</time>
      </trkpt>
      <trkpt lat="43.63037" lon="6.22767">
        <ele>535.59</ele>
        <time>2015-02-19T14:07:57Z</time>
      </trkpt>
      <trkpt lat="43.63041" lon="6.22751">
        <ele>534.15</ele>
        <time>2015-02-19T14:08:06Z</time>
      </trkpt>
      <trkpt lat="43.63044" lon="6.22734">
        <ele>533.67</ele>
        <time>2015-02-19T14:08:18Z</time>
      </trkpt>
      <trkpt lat="43.63045" lon="6.22734">
        <ele>533.67</ele>
        <time>2015-02-19T14:08:41Z</time>
      </trkpt>
      <trkpt lat="43.63045" lon="6.22734">
        <ele>533.19</ele>
        <time>2015-02-19T14:09:04Z</time>
      </trkpt>
      <trkpt lat="43.63045" lon="6.22734">
        <ele>533.19</ele>
        <time>2015-02-19T14:09:26Z</time>
      </trkpt>
      <trkpt lat="43.63045" lon="6.22733">
        <ele>532.71</ele>
        <time>2015-02-19T14:09:52Z</time>
      </trkpt>
      <trkpt lat="43.63045" lon="6.22732">
        <ele>533.19</ele>
        <time>2015-02-19T14:10:13Z</time>
      </trkpt>
      <trkpt lat="43.63045" lon="6.22732">
        <ele>532.71</ele>
        <time>2015-02-19T14:10:33Z</time>
      </trkpt>
      <trkpt lat="43.63045" lon="6.22731">
        <ele>532.71</ele>
        <time>2015-02-19T14:10:58Z</time>
      </trkpt>
      <trkpt lat="43.63044" lon="6.22731">
        <ele>532.71</ele>
        <time>2015-02-19T14:11:21Z</time>
      </trkpt>
      <trkpt lat="43.63044" lon="6.22729">
        <ele>532.71</ele>
        <time>2015-02-19T14:11:39Z</time>
      </trkpt>
      <trkpt lat="43.63045" lon="6.2273">
        <ele>532.71</ele>
        <time>2015-02-19T14:12:05Z</time>
      </trkpt>
      <trkpt lat="43.63046" lon="6.22732">
        <ele>532.71</ele>
        <time>2015-02-19T14:12:25Z</time>
      </trkpt>
      <trkpt lat="43.63046" lon="6.22732">
        <ele>532.23</ele>
        <time>2015-02-19T14:12:55Z</time>
      </trkpt>
      <trkpt lat="43.63046" lon="6.22732">
        <ele>532.23</ele>
        <time>2015-02-19T14:13:12Z</time>
      </trkpt>
      <trkpt lat="43.63046" lon="6.22732">
        <ele>532.71</ele>
        <time>2015-02-19T14:13:28Z</time>
      </trkpt>
      <trkpt lat="43.63045" lon="6.2273">
        <ele>532.23</ele>
        <time>2015-02-19T14:13:47Z</time>
      </trkpt>
      <trkpt lat="43.63045" lon="6.2273">
        <ele>532.23</ele>
        <time>2015-02-19T14:14:03Z</time>
      </trkpt>
      <trkpt lat="43.63045" lon="6.2273">
        <ele>532.23</ele>
        <time>2015-02-19T14:14:04Z</time>
      </trkpt>
      <trkpt lat="43.63043" lon="6.22726">
        <ele>532.23</ele>
        <time>2015-02-19T14:14:07Z</time>
      </trkpt>
      <trkpt lat="43.63042" lon="6.22722">
        <ele>531.75</ele>
        <time>2015-02-19T14:14:20Z</time>
      </trkpt>
      <trkpt lat="43.63039" lon="6.2272">
        <ele>531.27</ele>
        <time>2015-02-19T14:14:34Z</time>
      </trkpt>
      <trkpt lat="43.63037" lon="6.2272">
        <ele>530.79</ele>
        <time>2015-02-19T14:14:36Z</time>
      </trkpt>
      <trkpt lat="43.63035" lon="6.22717">
        <ele>530.3</ele>
        <time>2015-02-19T14:14:39Z</time>
      </trkpt>
      <trkpt lat="43.63032" lon="6.22715">
        <ele>529.34</ele>
        <time>2015-02-19T14:14:42Z</time>
      </trkpt>
      <trkpt lat="43.63028" lon="6.22712">
        <ele>528.86</ele>
        <time>2015-02-19T14:14:46Z</time>
      </trkpt>
      <trkpt lat="43.6302" lon="6.227">
        <ele>526.46</ele>
        <time>2015-02-19T14:15:03Z</time>
      </trkpt>
      <trkpt lat="43.63009" lon="6.2269">
        <ele>524.54</ele>
        <time>2015-02-19T14:15:16Z</time>
      </trkpt>
      <trkpt lat="43.63005" lon="6.22686">
        <ele>524.06</ele>
        <time>2015-02-19T14:15:20Z</time>
      </trkpt>
      <trkpt lat="43.63001" lon="6.22681">
        <ele>523.09</ele>
        <time>2015-02-19T14:15:32Z</time>
      </trkpt>
      <trkpt lat="43.63" lon="6.2268">
        <ele>523.09</ele>
        <time>2015-02-19T14:15:33Z</time>
      </trkpt>
      <trkpt lat="43.62993" lon="6.22669">
        <ele>522.13</ele>
        <time>2015-02-19T14:15:41Z</time>
      </trkpt>
      <trkpt lat="43.62991" lon="6.22665">
        <ele>521.17</ele>
        <time>2015-02-19T14:15:44Z</time>
      </trkpt>
      <trkpt lat="43.62977" lon="6.22653">
        <ele>519.73</ele>
        <time>2015-02-19T14:15:56Z</time>
      </trkpt>
      <trkpt lat="43.62973" lon="6.22651">
        <ele>519.73</ele>
        <time>2015-02-19T14:16:01Z</time>
      </trkpt>
      <trkpt lat="43.62955" lon="6.22646">
        <ele>518.77</ele>
        <time>2015-02-19T14:16:12Z</time>
      </trkpt>
      <trkpt lat="43.62941" lon="6.22625">
        <ele>517.33</ele>
        <time>2015-02-19T14:16:25Z</time>
      </trkpt>
      <trkpt lat="43.6294" lon="6.22623">
        <ele>517.33</ele>
        <time>2015-02-19T14:16:26Z</time>
      </trkpt>
      <trkpt lat="43.62938" lon="6.22618">
        <ele>517.33</ele>
        <time>2015-02-19T14:16:30Z</time>
      </trkpt>
      <trkpt lat="43.62929" lon="6.22598">
        <ele>517.33</ele>
        <time>2015-02-19T14:16:42Z</time>
      </trkpt>
      <trkpt lat="43.62928" lon="6.22595">
        <ele>517.81</ele>
        <time>2015-02-19T14:16:44Z</time>
      </trkpt>
      <trkpt lat="43.62922" lon="6.22592">
        <ele>517.33</ele>
        <time>2015-02-19T14:16:49Z</time>
      </trkpt>
      <trkpt lat="43.62917" lon="6.22583">
        <ele>518.29</ele>
        <time>2015-02-19T14:16:55Z</time>
      </trkpt>
      <trkpt lat="43.62902" lon="6.22571">
        <ele>518.29</ele>
        <time>2015-02-19T14:17:08Z</time>
      </trkpt>
      <trkpt lat="43.62891" lon="6.22558">
        <ele>516.85</ele>
        <time>2015-02-19T14:17:21Z</time>
      </trkpt>
      <trkpt lat="43.62881" lon="6.22543">
        <ele>514.44</ele>
        <time>2015-02-19T14:17:32Z</time>
      </trkpt>
      <trkpt lat="43.62877" lon="6.22538">
        <ele>513.48</ele>
        <time>2015-02-19T14:17:36Z</time>
      </trkpt>
      <trkpt lat="43.62862" lon="6.22522">
        <ele>509.64</ele>
        <time>2015-02-19T14:17:51Z</time>
      </trkpt>
      <trkpt lat="43.62862" lon="6.22518">
        <ele>509.16</ele>
        <time>2015-02-19T14:17:57Z</time>
      </trkpt>
      <trkpt lat="43.62858" lon="6.22509">
        <ele>509.16</ele>
        <time>2015-02-19T14:18:04Z</time>
      </trkpt>
      <trkpt lat="43.62848" lon="6.22499">
        <ele>507.71</ele>
        <time>2015-02-19T14:18:15Z</time>
      </trkpt>
      <trkpt lat="43.62839" lon="6.22477">
        <ele>506.75</ele>
        <time>2015-02-19T14:18:28Z</time>
      </trkpt>
      <trkpt lat="43.62828" lon="6.2246">
        <ele>505.31</ele>
        <time>2015-02-19T14:18:42Z</time>
      </trkpt>
      <trkpt lat="43.62813" lon="6.22442">
        <ele>505.31</ele>
        <time>2015-02-19T14:18:57Z</time>
      </trkpt>
      <trkpt lat="43.62804" lon="6.22436">
        <ele>504.35</ele>
        <time>2015-02-19T14:19:09Z</time>
      </trkpt>
      <trkpt lat="43.62787" lon="6.2243">
        <ele>503.39</ele>
        <time>2015-02-19T14:19:24Z</time>
      </trkpt>
      <trkpt lat="43.62765" lon="6.22424">
        <ele>503.39</ele>
        <time>2015-02-19T14:19:38Z</time>
      </trkpt>
      <trkpt lat="43.62742" lon="6.22418">
        <ele>503.39</ele>
        <time>2015-02-19T14:19:50Z</time>
      </trkpt>
      <trkpt lat="43.62729" lon="6.22419">
        <ele>502.91</ele>
        <time>2015-02-19T14:20:02Z</time>
      </trkpt>
      <trkpt lat="43.62728" lon="6.22416">
        <ele>503.39</ele>
        <time>2015-02-19T14:20:11Z</time>
      </trkpt>
      <trkpt lat="43.62728" lon="6.22414">
        <ele>503.39</ele>
        <time>2015-02-19T14:20:34Z</time>
      </trkpt>
      <trkpt lat="43.62728" lon="6.22414">
        <ele>503.39</ele>
        <time>2015-02-19T14:20:49Z</time>
      </trkpt>
      <trkpt lat="43.62726" lon="6.22415">
        <ele>503.39</ele>
        <time>2015-02-19T14:21:11Z</time>
      </trkpt>
      <trkpt lat="43.62724" lon="6.22413">
        <ele>502.91</ele>
        <time>2015-02-19T14:21:31Z</time>
      </trkpt>
      <trkpt lat="43.62717" lon="6.22416">
        <ele>502.91</ele>
        <time>2015-02-19T14:21:42Z</time>
      </trkpt>
      <trkpt lat="43.62711" lon="6.22436">
        <ele>502.91</ele>
        <time>2015-02-19T14:21:54Z</time>
      </trkpt>
      <trkpt lat="43.62709" lon="6.22444">
        <ele>501.46</ele>
        <time>2015-02-19T14:22:02Z</time>
      </trkpt>
      <trkpt lat="43.62697" lon="6.22445">
        <ele>501.46</ele>
        <time>2015-02-19T14:22:11Z</time>
      </trkpt>
      <trkpt lat="43.62687" lon="6.22457">
        <ele>501.46</ele>
        <time>2015-02-19T14:22:23Z</time>
      </trkpt>
      <trkpt lat="43.62683" lon="6.2246">
        <ele>500.98</ele>
        <time>2015-02-19T14:22:27Z</time>
      </trkpt>
      <trkpt lat="43.62669" lon="6.22463">
        <ele>501.46</ele>
        <time>2015-02-19T14:22:36Z</time>
      </trkpt>
      <trkpt lat="43.62653" lon="6.22455">
        <ele>501.46</ele>
        <time>2015-02-19T14:22:51Z</time>
      </trkpt>
      <trkpt lat="43.6265" lon="6.22451">
        <ele>501.46</ele>
        <time>2015-02-19T14:22:54Z</time>
      </trkpt>
      <trkpt lat="43.62637" lon="6.22438">
        <ele>501.46</ele>
        <time>2015-02-19T14:23:08Z</time>
      </trkpt>
      <trkpt lat="43.6263" lon="6.22428">
        <ele>500.98</ele>
        <time>2015-02-19T14:23:20Z</time>
      </trkpt>
      <trkpt lat="43.62629" lon="6.22428">
        <ele>500.98</ele>
        <time>2015-02-19T14:23:30Z</time>
      </trkpt>
      <trkpt lat="43.62625" lon="6.22428">
        <ele>500.5</ele>
        <time>2015-02-19T14:23:41Z</time>
      </trkpt>
      <trkpt lat="43.62622" lon="6.22428">
        <ele>500.5</ele>
        <time>2015-02-19T14:23:46Z</time>
      </trkpt>
      <trkpt lat="43.62619" lon="6.2243">
        <ele>500.02</ele>
        <time>2015-02-19T14:23:49Z</time>
      </trkpt>
      <trkpt lat="43.62609" lon="6.22437">
        <ele>500.02</ele>
        <time>2015-02-19T14:24:02Z</time>
      </trkpt>
      <trkpt lat="43.6261" lon="6.22438">
        <ele>500.02</ele>
        <time>2015-02-19T14:24:17Z</time>
      </trkpt>
      <trkpt lat="43.62608" lon="6.22436">
        <ele>500.02</ele>
        <time>2015-02-19T14:24:40Z</time>
      </trkpt>
      <trkpt lat="43.62607" lon="6.22437">
        <ele>500.02</ele>
        <time>2015-02-19T14:24:58Z</time>
      </trkpt>
      <trkpt lat="43.62607" lon="6.22435">
        <ele>500.02</ele>
        <time>2015-02-19T14:25:17Z</time>
      </trkpt>
      <trkpt lat="43.62607" lon="6.22437">
        <ele>500.02</ele>
        <time>2015-02-19T14:25:29Z</time>
      </trkpt>
      <trkpt lat="43.62606" lon="6.22439">
        <ele>500.5</ele>
        <time>2015-02-19T14:25:44Z</time>
      </trkpt>
      <trkpt lat="43.62606" lon="6.22439">
        <ele>500.02</ele>
        <time>2015-02-19T14:25:57Z</time>
      </trkpt>
      <trkpt lat="43.62602" lon="6.22443">
        <ele>500.02</ele>
        <time>2015-02-19T14:26:16Z</time>
      </trkpt>
      <trkpt lat="43.6259" lon="6.22456">
        <ele>500.5</ele>
        <time>2015-02-19T14:26:29Z</time>
      </trkpt>
      <trkpt lat="43.62587" lon="6.2246">
        <ele>499.54</ele>
        <time>2015-02-19T14:26:34Z</time>
      </trkpt>
      <trkpt lat="43.62571" lon="6.22477">
        <ele>499.54</ele>
        <time>2015-02-19T14:26:49Z</time>
      </trkpt>
      <trkpt lat="43.62553" lon="6.22487">
        <ele>499.06</ele>
        <time>2015-02-19T14:27:03Z</time>
      </trkpt>
      <trkpt lat="43.62551" lon="6.22488">
        <ele>499.06</ele>
        <time>2015-02-19T14:27:05Z</time>
      </trkpt>
      <trkpt lat="43.62546" lon="6.22486">
        <ele>499.54</ele>
        <time>2015-02-19T14:27:09Z</time>
      </trkpt>
      <trkpt lat="43.62542" lon="6.22482">
        <ele>499.06</ele>
        <time>2015-02-19T14:27:13Z</time>
      </trkpt>
      <trkpt lat="43.62532" lon="6.22471">
        <ele>498.58</ele>
        <time>2015-02-19T14:27:22Z</time>
      </trkpt>
      <trkpt lat="43.62519" lon="6.2246">
        <ele>497.62</ele>
        <time>2015-02-19T14:27:33Z</time>
      </trkpt>
      <trkpt lat="43.62514" lon="6.22456">
        <ele>497.62</ele>
        <time>2015-02-19T14:27:37Z</time>
      </trkpt>
      <trkpt lat="43.62497" lon="6.22446">
        <ele>496.66</ele>
        <time>2015-02-19T14:27:50Z</time>
      </trkpt>
      <trkpt lat="43.62488" lon="6.22447">
        <ele>496.18</ele>
        <time>2015-02-19T14:27:57Z</time>
      </trkpt>
      <trkpt lat="43.6248" lon="6.22448">
        <ele>495.7</ele>
        <time>2015-02-19T14:28:03Z</time>
      </trkpt>
      <trkpt lat="43.62474" lon="6.22453">
        <ele>496.18</ele>
        <time>2015-02-19T14:28:08Z</time>
      </trkpt>
      <trkpt lat="43.62469" lon="6.22456">
        <ele>495.7</ele>
        <time>2015-02-19T14:28:12Z</time>
      </trkpt>
      <trkpt lat="43.62454" lon="6.22465">
        <ele>495.22</ele>
        <time>2015-02-19T14:28:23Z</time>
      </trkpt>
      <trkpt lat="43.62442" lon="6.22478">
        <ele>494.74</ele>
        <time>2015-02-19T14:28:34Z</time>
      </trkpt>
      <trkpt lat="43.62423" lon="6.22495">
        <ele>494.26</ele>
        <time>2015-02-19T14:28:49Z</time>
      </trkpt>
      <trkpt lat="43.62411" lon="6.22509">
        <ele>494.26</ele>
        <time>2015-02-19T14:29:00Z</time>
      </trkpt>
      <trkpt lat="43.62397" lon="6.22526">
        <ele>493.77</ele>
        <time>2015-02-19T14:29:12Z</time>
      </trkpt>
      <trkpt lat="43.62394" lon="6.2253">
        <ele>493.77</ele>
        <time>2015-02-19T14:29:15Z</time>
      </trkpt>
      <trkpt lat="43.62389" lon="6.2254">
        <ele>493.29</ele>
        <time>2015-02-19T14:29:23Z</time>
      </trkpt>
      <trkpt lat="43.62388" lon="6.22541">
        <ele>493.29</ele>
        <time>2015-02-19T14:29:26Z</time>
      </trkpt>
      <trkpt lat="43.62381" lon="6.2254">
        <ele>492.81</ele>
        <time>2015-02-19T14:29:32Z</time>
      </trkpt>
      <trkpt lat="43.62365" lon="6.22551">
        <ele>492.33</ele>
        <time>2015-02-19T14:29:44Z</time>
      </trkpt>
      <trkpt lat="43.62345" lon="6.22563">
        <ele>491.85</ele>
        <time>2015-02-19T14:29:59Z</time>
      </trkpt>
      <trkpt lat="43.62325" lon="6.22574">
        <ele>491.37</ele>
        <time>2015-02-19T14:30:14Z</time>
      </trkpt>
      <trkpt lat="43.62318" lon="6.22577">
        <ele>490.89</ele>
        <time>2015-02-19T14:30:19Z</time>
      </trkpt>
      <trkpt lat="43.62309" lon="6.22583">
        <ele>490.89</ele>
        <time>2015-02-19T14:30:25Z</time>
      </trkpt>
      <trkpt lat="43.62302" lon="6.22587">
        <ele>490.89</ele>
        <time>2015-02-19T14:30:31Z</time>
      </trkpt>
      <trkpt lat="43.62298" lon="6.2259">
        <ele>490.89</ele>
        <time>2015-02-19T14:30:35Z</time>
      </trkpt>
      <trkpt lat="43.62287" lon="6.22595">
        <ele>490.41</ele>
        <time>2015-02-19T14:30:43Z</time>
      </trkpt>
      <trkpt lat="43.62269" lon="6.22611">
        <ele>489.93</ele>
        <time>2015-02-19T14:30:57Z</time>
      </trkpt>
      <trkpt lat="43.62255" lon="6.22629">
        <ele>489.93</ele>
        <time>2015-02-19T14:31:08Z</time>
      </trkpt>
      <trkpt lat="43.62241" lon="6.22645">
        <ele>489.45</ele>
        <time>2015-02-19T14:31:21Z</time>
      </trkpt>
      <trkpt lat="43.62231" lon="6.22657">
        <ele>489.45</ele>
        <time>2015-02-19T14:31:29Z</time>
      </trkpt>
      <trkpt lat="43.62226" lon="6.22668">
        <ele>488.97</ele>
        <time>2015-02-19T14:31:36Z</time>
      </trkpt>
      <trkpt lat="43.62222" lon="6.22694">
        <ele>488.97</ele>
        <time>2015-02-19T14:31:49Z</time>
      </trkpt>
      <trkpt lat="43.62206" lon="6.22711">
        <ele>488.49</ele>
        <time>2015-02-19T14:32:04Z</time>
      </trkpt>
      <trkpt lat="43.62204" lon="6.22712">
        <ele>488.01</ele>
        <time>2015-02-19T14:32:05Z</time>
      </trkpt>
      <trkpt lat="43.62203" lon="6.22714">
        <ele>488.01</ele>
        <time>2015-02-19T14:32:07Z</time>
      </trkpt>
      <trkpt lat="43.6218" lon="6.22726">
        <ele>488.01</ele>
        <time>2015-02-19T14:32:24Z</time>
      </trkpt>
      <trkpt lat="43.62166" lon="6.22738">
        <ele>488.01</ele>
        <time>2015-02-19T14:32:36Z</time>
      </trkpt>
      <trkpt lat="43.6216" lon="6.22743">
        <ele>487.53</ele>
        <time>2015-02-19T14:32:41Z</time>
      </trkpt>
      <trkpt lat="43.62145" lon="6.22758">
        <ele>488.01</ele>
        <time>2015-02-19T14:32:54Z</time>
      </trkpt>
      <trkpt lat="43.62124" lon="6.22778">
        <ele>487.05</ele>
        <time>2015-02-19T14:33:06Z</time>
      </trkpt>
      <trkpt lat="43.62101" lon="6.22802">
        <ele>487.53</ele>
        <time>2015-02-19T14:33:14Z</time>
      </trkpt>
      <trkpt lat="43.6206" lon="6.22836">
        <ele>486.56</ele>
        <time>2015-02-19T14:33:25Z</time>
      </trkpt>
      <trkpt lat="43.62024" lon="6.22852">
        <ele>485.6</ele>
        <time>2015-02-19T14:33:36Z</time>
      </trkpt>
      <trkpt lat="43.62009" lon="6.22864">
        <ele>485.12</ele>
        <time>2015-02-19T14:33:46Z</time>
      </trkpt>
      <trkpt lat="43.61988" lon="6.22874">
        <ele>484.64</ele>
        <time>2015-02-19T14:33:55Z</time>
      </trkpt>
      <trkpt lat="43.61982" lon="6.22875">
        <ele>484.16</ele>
        <time>2015-02-19T14:34:02Z</time>
      </trkpt>
      <trkpt lat="43.61981" lon="6.22874">
        <ele>484.16</ele>
        <time>2015-02-19T14:34:03Z</time>
      </trkpt>
      <trkpt lat="43.61974" lon="6.2288">
        <ele>483.68</ele>
        <time>2015-02-19T14:34:10Z</time>
      </trkpt>
      <trkpt lat="43.61968" lon="6.22881">
        <ele>484.16</ele>
        <time>2015-02-19T14:34:24Z</time>
      </trkpt>
      <trkpt lat="43.61962" lon="6.22885">
        <ele>483.68</ele>
        <time>2015-02-19T14:34:32Z</time>
      </trkpt>
      <trkpt lat="43.61957" lon="6.22888">
        <ele>483.2</ele>
        <time>2015-02-19T14:34:37Z</time>
      </trkpt>
      <trkpt lat="43.61956" lon="6.22889">
        <ele>482.72</ele>
        <time>2015-02-19T14:34:38Z</time>
      </trkpt>
      <trkpt lat="43.61955" lon="6.22889">
        <ele>482.72</ele>
        <time>2015-02-19T14:34:39Z</time>
      </trkpt>
      <trkpt lat="43.6195" lon="6.22891">
        <ele>481.76</ele>
        <time>2015-02-19T14:34:44Z</time>
      </trkpt>
      <trkpt lat="43.6193" lon="6.229">
        <ele>480.32</ele>
        <time>2015-02-19T14:34:59Z</time>
      </trkpt>
      <trkpt lat="43.6191" lon="6.22911">
        <ele>479.35</ele>
        <time>2015-02-19T14:35:13Z</time>
      </trkpt>
      <trkpt lat="43.61888" lon="6.22922">
        <ele>477.91</ele>
        <time>2015-02-19T14:35:28Z</time>
      </trkpt>
      <trkpt lat="43.61869" lon="6.22934">
        <ele>476.95</ele>
        <time>2015-02-19T14:35:40Z</time>
      </trkpt>
      <trkpt lat="43.61854" lon="6.22945">
        <ele>475.99</ele>
        <time>2015-02-19T14:35:52Z</time>
      </trkpt>
      <trkpt lat="43.61853" lon="6.22946">
        <ele>475.99</ele>
        <time>2015-02-19T14:35:53Z</time>
      </trkpt>
      <trkpt lat="43.61852" lon="6.22947">
        <ele>475.99</ele>
        <time>2015-02-19T14:35:54Z</time>
      </trkpt>
      <trkpt lat="43.61851" lon="6.22949">
        <ele>475.51</ele>
        <time>2015-02-19T14:35:55Z</time>
      </trkpt>
      <trkpt lat="43.61835" lon="6.22964">
        <ele>474.55</ele>
        <time>2015-02-19T14:36:08Z</time>
      </trkpt>
      <trkpt lat="43.61818" lon="6.22978">
        <ele>473.11</ele>
        <time>2015-02-19T14:36:22Z</time>
      </trkpt>
      <trkpt lat="43.618" lon="6.22986">
        <ele>471.66</ele>
        <time>2015-02-19T14:36:34Z</time>
      </trkpt>
      <trkpt lat="43.61794" lon="6.22989">
        <ele>471.18</ele>
        <time>2015-02-19T14:36:39Z</time>
      </trkpt>
      <trkpt lat="43.61789" lon="6.22993">
        <ele>470.7</ele>
        <time>2015-02-19T14:36:44Z</time>
      </trkpt>
      <trkpt lat="43.61773" lon="6.23001">
        <ele>470.22</ele>
        <time>2015-02-19T14:36:57Z</time>
      </trkpt>
      <trkpt lat="43.61752" lon="6.23009">
        <ele>469.74</ele>
        <time>2015-02-19T14:37:10Z</time>
      </trkpt>
      <trkpt lat="43.61748" lon="6.23012">
        <ele>469.74</ele>
        <time>2015-02-19T14:37:13Z</time>
      </trkpt>
      <trkpt lat="43.61746" lon="6.23012">
        <ele>469.74</ele>
        <time>2015-02-19T14:37:14Z</time>
      </trkpt>
      <trkpt lat="43.61745" lon="6.23013">
        <ele>469.74</ele>
        <time>2015-02-19T14:37:15Z</time>
      </trkpt>
      <trkpt lat="43.61744" lon="6.23014">
        <ele>469.74</ele>
        <time>2015-02-19T14:37:16Z</time>
      </trkpt>
      <trkpt lat="43.61742" lon="6.23015">
        <ele>470.22</ele>
        <time>2015-02-19T14:37:17Z</time>
      </trkpt>
      <trkpt lat="43.61717" lon="6.23017">
        <ele>472.14</ele>
        <time>2015-02-19T14:37:28Z</time>
      </trkpt>
      <trkpt lat="43.61698" lon="6.23011">
        <ele>473.59</ele>
        <time>2015-02-19T14:37:36Z</time>
      </trkpt>
      <trkpt lat="43.61669" lon="6.22995">
        <ele>474.55</ele>
        <time>2015-02-19T14:37:47Z</time>
      </trkpt>
      <trkpt lat="43.61638" lon="6.22973">
        <ele>475.51</ele>
        <time>2015-02-19T14:37:59Z</time>
      </trkpt>
      <trkpt lat="43.61613" lon="6.22948">
        <ele>476.95</ele>
        <time>2015-02-19T14:38:09Z</time>
      </trkpt>
      <trkpt lat="43.6159" lon="6.22949">
        <ele>476.95</ele>
        <time>2015-02-19T14:38:19Z</time>
      </trkpt>
      <trkpt lat="43.61575" lon="6.2296">
        <ele>475.51</ele>
        <time>2015-02-19T14:38:29Z</time>
      </trkpt>
      <trkpt lat="43.61558" lon="6.22971">
        <ele>474.55</ele>
        <time>2015-02-19T14:38:42Z</time>
      </trkpt>
      <trkpt lat="43.61549" lon="6.22994">
        <ele>473.11</ele>
        <time>2015-02-19T14:38:55Z</time>
      </trkpt>
      <trkpt lat="43.61549" lon="6.22996">
        <ele>472.63</ele>
        <time>2015-02-19T14:38:56Z</time>
      </trkpt>
      <trkpt lat="43.61549" lon="6.22998">
        <ele>472.63</ele>
        <time>2015-02-19T14:38:57Z</time>
      </trkpt>
      <trkpt lat="43.61549" lon="6.23">
        <ele>472.63</ele>
        <time>2015-02-19T14:38:58Z</time>
      </trkpt>
      <trkpt lat="43.61549" lon="6.23002">
        <ele>472.63</ele>
        <time>2015-02-19T14:38:59Z</time>
      </trkpt>
      <trkpt lat="43.61549" lon="6.23004">
        <ele>472.63</ele>
        <time>2015-02-19T14:39:00Z</time>
      </trkpt>
      <trkpt lat="43.61549" lon="6.23006">
        <ele>472.63</ele>
        <time>2015-02-19T14:39:01Z</time>
      </trkpt>
      <trkpt lat="43.61549" lon="6.23008">
        <ele>472.63</ele>
        <time>2015-02-19T14:39:02Z</time>
      </trkpt>
      <trkpt lat="43.61543" lon="6.23037">
        <ele>472.14</ele>
        <time>2015-02-19T14:39:16Z</time>
      </trkpt>
      <trkpt lat="43.61539" lon="6.23064">
        <ele>471.18</ele>
        <time>2015-02-19T14:39:30Z</time>
      </trkpt>
      <trkpt lat="43.61536" lon="6.23083">
        <ele>470.22</ele>
        <time>2015-02-19T14:39:40Z</time>
      </trkpt>
      <trkpt lat="43.61536" lon="6.23086">
        <ele>471.18</ele>
        <time>2015-02-19T14:39:41Z</time>
      </trkpt>
      <trkpt lat="43.61536" lon="6.23088">
        <ele>470.22</ele>
        <time>2015-02-19T14:39:42Z</time>
      </trkpt>
      <trkpt lat="43.61536" lon="6.2309">
        <ele>469.74</ele>
        <time>2015-02-19T14:39:43Z</time>
      </trkpt>
      <trkpt lat="43.61536" lon="6.23092">
        <ele>469.74</ele>
        <time>2015-02-19T14:39:44Z</time>
      </trkpt>
      <trkpt lat="43.61536" lon="6.23095">
        <ele>469.74</ele>
        <time>2015-02-19T14:39:45Z</time>
      </trkpt>
      <trkpt lat="43.61536" lon="6.23097">
        <ele>469.26</ele>
        <time>2015-02-19T14:39:46Z</time>
      </trkpt>
      <trkpt lat="43.61536" lon="6.23106">
        <ele>468.78</ele>
        <time>2015-02-19T14:39:50Z</time>
      </trkpt>
      <trkpt lat="43.61536" lon="6.23108">
        <ele>468.78</ele>
        <time>2015-02-19T14:39:51Z</time>
      </trkpt>
      <trkpt lat="43.61536" lon="6.2311">
        <ele>468.3</ele>
        <time>2015-02-19T14:39:52Z</time>
      </trkpt>
      <trkpt lat="43.61535" lon="6.23115">
        <ele>468.3</ele>
        <time>2015-02-19T14:39:54Z</time>
      </trkpt>
      <trkpt lat="43.61535" lon="6.23117">
        <ele>467.82</ele>
        <time>2015-02-19T14:39:55Z</time>
      </trkpt>
      <trkpt lat="43.61534" lon="6.23118">
        <ele>467.82</ele>
        <time>2015-02-19T14:39:56Z</time>
      </trkpt>
      <trkpt lat="43.61533" lon="6.2312">
        <ele>467.34</ele>
        <time>2015-02-19T14:39:57Z</time>
      </trkpt>
      <trkpt lat="43.61533" lon="6.23121">
        <ele>467.34</ele>
        <time>2015-02-19T14:39:58Z</time>
      </trkpt>
      <trkpt lat="43.61532" lon="6.23123">
        <ele>466.86</ele>
        <time>2015-02-19T14:39:59Z</time>
      </trkpt>
      <trkpt lat="43.61532" lon="6.23125">
        <ele>466.86</ele>
        <time>2015-02-19T14:40:00Z</time>
      </trkpt>
      <trkpt lat="43.61532" lon="6.23127">
        <ele>466.86</ele>
        <time>2015-02-19T14:40:01Z</time>
      </trkpt>
      <trkpt lat="43.61533" lon="6.23129">
        <ele>466.86</ele>
        <time>2015-02-19T14:40:02Z</time>
      </trkpt>
      <trkpt lat="43.61533" lon="6.23131">
        <ele>466.38</ele>
        <time>2015-02-19T14:40:03Z</time>
      </trkpt>
      <trkpt lat="43.61533" lon="6.23133">
        <ele>466.38</ele>
        <time>2015-02-19T14:40:04Z</time>
      </trkpt>
      <trkpt lat="43.61534" lon="6.23135">
        <ele>466.38</ele>
        <time>2015-02-19T14:40:05Z</time>
      </trkpt>
      <trkpt lat="43.61534" lon="6.23137">
        <ele>465.9</ele>
        <time>2015-02-19T14:40:06Z</time>
      </trkpt>
      <trkpt lat="43.61534" lon="6.23139">
        <ele>465.9</ele>
        <time>2015-02-19T14:40:07Z</time>
      </trkpt>
      <trkpt lat="43.6154" lon="6.23153">
        <ele>465.42</ele>
        <time>2015-02-19T14:40:15Z</time>
      </trkpt>
      <trkpt lat="43.61544" lon="6.23164">
        <ele>464.93</ele>
        <time>2015-02-19T14:40:22Z</time>
      </trkpt>
      <trkpt lat="43.61545" lon="6.23166">
        <ele>464.93</ele>
        <time>2015-02-19T14:40:23Z</time>
      </trkpt>
      <trkpt lat="43.61545" lon="6.23168">
        <ele>465.42</ele>
        <time>2015-02-19T14:40:24Z</time>
      </trkpt>
      <trkpt lat="43.61539" lon="6.23196">
        <ele>464.45</ele>
        <time>2015-02-19T14:40:38Z</time>
      </trkpt>
      <trkpt lat="43.61521" lon="6.2322">
        <ele>463.97</ele>
        <time>2015-02-19T14:40:54Z</time>
      </trkpt>
      <trkpt lat="43.61505" lon="6.23235">
        <ele>463.97</ele>
        <time>2015-02-19T14:41:07Z</time>
      </trkpt>
      <trkpt lat="43.61504" lon="6.23235">
        <ele>464.45</ele>
        <time>2015-02-19T14:41:09Z</time>
      </trkpt>
      <trkpt lat="43.61503" lon="6.23236">
        <ele>463.97</ele>
        <time>2015-02-19T14:41:10Z</time>
      </trkpt>
      <trkpt lat="43.61502" lon="6.23238">
        <ele>464.45</ele>
        <time>2015-02-19T14:41:12Z</time>
      </trkpt>
      <trkpt lat="43.61501" lon="6.23239">
        <ele>463.97</ele>
        <time>2015-02-19T14:41:13Z</time>
      </trkpt>
      <trkpt lat="43.61497" lon="6.23246">
        <ele>463.97</ele>
        <time>2015-02-19T14:41:17Z</time>
      </trkpt>
      <trkpt lat="43.61496" lon="6.23248">
        <ele>463.97</ele>
        <time>2015-02-19T14:41:18Z</time>
      </trkpt>
      <trkpt lat="43.61495" lon="6.2325">
        <ele>463.97</ele>
        <time>2015-02-19T14:41:19Z</time>
      </trkpt>
      <trkpt lat="43.61494" lon="6.23251">
        <ele>463.97</ele>
        <time>2015-02-19T14:41:20Z</time>
      </trkpt>
      <trkpt lat="43.61493" lon="6.23253">
        <ele>463.97</ele>
        <time>2015-02-19T14:41:21Z</time>
      </trkpt>
      <trkpt lat="43.61483" lon="6.23268">
        <ele>464.93</ele>
        <time>2015-02-19T14:41:31Z</time>
      </trkpt>
      <trkpt lat="43.61482" lon="6.23269">
        <ele>464.45</ele>
        <time>2015-02-19T14:41:32Z</time>
      </trkpt>
      <trkpt lat="43.61467" lon="6.23287">
        <ele>464.45</ele>
        <time>2015-02-19T14:41:46Z</time>
      </trkpt>
      <trkpt lat="43.61451" lon="6.23301">
        <ele>464.45</ele>
        <time>2015-02-19T14:41:59Z</time>
      </trkpt>
      <trkpt lat="43.61428" lon="6.23322">
        <ele>464.45</ele>
        <time>2015-02-19T14:42:14Z</time>
      </trkpt>
      <trkpt lat="43.61419" lon="6.23329">
        <ele>463.97</ele>
        <time>2015-02-19T14:42:21Z</time>
      </trkpt>
      <trkpt lat="43.61417" lon="6.2333">
        <ele>464.45</ele>
        <time>2015-02-19T14:42:22Z</time>
      </trkpt>
      <trkpt lat="43.61416" lon="6.23331">
        <ele>464.45</ele>
        <time>2015-02-19T14:42:23Z</time>
      </trkpt>
      <trkpt lat="43.61415" lon="6.23332">
        <ele>464.45</ele>
        <time>2015-02-19T14:42:24Z</time>
      </trkpt>
      <trkpt lat="43.61413" lon="6.23333">
        <ele>463.97</ele>
        <time>2015-02-19T14:42:25Z</time>
      </trkpt>
      <trkpt lat="43.61411" lon="6.23334">
        <ele>464.45</ele>
        <time>2015-02-19T14:42:26Z</time>
      </trkpt>
      <trkpt lat="43.61392" lon="6.23347">
        <ele>464.45</ele>
        <time>2015-02-19T14:42:39Z</time>
      </trkpt>
      <trkpt lat="43.6139" lon="6.23348">
        <ele>463.97</ele>
        <time>2015-02-19T14:42:40Z</time>
      </trkpt>
      <trkpt lat="43.61381" lon="6.23352">
        <ele>464.45</ele>
        <time>2015-02-19T14:42:50Z</time>
      </trkpt>
      <trkpt lat="43.61379" lon="6.2335">
        <ele>463.49</ele>
        <time>2015-02-19T14:42:52Z</time>
      </trkpt>
      <trkpt lat="43.61376" lon="6.23349">
        <ele>463.49</ele>
        <time>2015-02-19T14:42:55Z</time>
      </trkpt>
      <trkpt lat="43.6136" lon="6.23353">
        <ele>461.09</ele>
        <time>2015-02-19T14:43:06Z</time>
      </trkpt>
      <trkpt lat="43.61362" lon="6.23347">
        <ele>460.61</ele>
        <time>2015-02-19T14:43:10Z</time>
      </trkpt>
      <trkpt lat="43.61364" lon="6.23344">
        <ele>460.13</ele>
        <time>2015-02-19T14:43:12Z</time>
      </trkpt>
      <trkpt lat="43.61362" lon="6.23323">
        <ele>456.76</ele>
        <time>2015-02-19T14:43:23Z</time>
      </trkpt>
      <trkpt lat="43.61354" lon="6.23321">
        <ele>456.76</ele>
        <time>2015-02-19T14:43:28Z</time>
      </trkpt>
      <trkpt lat="43.61337" lon="6.23328">
        <ele>455.8</ele>
        <time>2015-02-19T14:43:39Z</time>
      </trkpt>
      <trkpt lat="43.61317" lon="6.23341">
        <ele>455.32</ele>
        <time>2015-02-19T14:43:53Z</time>
      </trkpt>
      <trkpt lat="43.61304" lon="6.23353">
        <ele>454.84</ele>
        <time>2015-02-19T14:44:05Z</time>
      </trkpt>
      <trkpt lat="43.61302" lon="6.23352">
        <ele>455.32</ele>
        <time>2015-02-19T14:44:22Z</time>
      </trkpt>
      <trkpt lat="43.613" lon="6.23352">
        <ele>454.84</ele>
        <time>2015-02-19T14:44:28Z</time>
      </trkpt>
      <trkpt lat="43.61293" lon="6.23368">
        <ele>455.8</ele>
        <time>2015-02-19T14:44:39Z</time>
      </trkpt>
      <trkpt lat="43.61281" lon="6.23381">
        <ele>456.76</ele>
        <time>2015-02-19T14:44:49Z</time>
      </trkpt>
      <trkpt lat="43.61277" lon="6.23387">
        <ele>457.72</ele>
        <time>2015-02-19T14:44:51Z</time>
      </trkpt>
      <trkpt lat="43.61271" lon="6.23396">
        <ele>459.17</ele>
        <time>2015-02-19T14:44:55Z</time>
      </trkpt>
      <trkpt lat="43.61269" lon="6.23398">
        <ele>460.13</ele>
        <time>2015-02-19T14:44:57Z</time>
      </trkpt>
      <trkpt lat="43.61265" lon="6.23402">
        <ele>460.61</ele>
        <time>2015-02-19T14:45:03Z</time>
      </trkpt>
      <trkpt lat="43.61259" lon="6.23406">
        <ele>460.61</ele>
        <time>2015-02-19T14:45:10Z</time>
      </trkpt>
      <trkpt lat="43.61261" lon="6.23411">
        <ele>462.53</ele>
        <time>2015-02-19T14:45:22Z</time>
      </trkpt>
      <trkpt lat="43.61259" lon="6.2341">
        <ele>462.53</ele>
        <time>2015-02-19T14:45:38Z</time>
      </trkpt>
      <trkpt lat="43.61253" lon="6.23413">
        <ele>463.49</ele>
        <time>2015-02-19T14:45:44Z</time>
      </trkpt>
      <trkpt lat="43.61243" lon="6.23426">
        <ele>465.42</ele>
        <time>2015-02-19T14:45:53Z</time>
      </trkpt>
      <trkpt lat="43.61247" lon="6.23437">
        <ele>468.3</ele>
        <time>2015-02-19T14:45:59Z</time>
      </trkpt>
      <trkpt lat="43.61244" lon="6.23441">
        <ele>468.78</ele>
        <time>2015-02-19T14:46:03Z</time>
      </trkpt>
      <trkpt lat="43.61223" lon="6.2345">
        <ele>469.26</ele>
        <time>2015-02-19T14:46:17Z</time>
      </trkpt>
      <trkpt lat="43.61213" lon="6.23457">
        <ele>468.78</ele>
        <time>2015-02-19T14:46:24Z</time>
      </trkpt>
      <trkpt lat="43.612" lon="6.23464">
        <ele>468.78</ele>
        <time>2015-02-19T14:46:36Z</time>
      </trkpt>
      <trkpt lat="43.61177" lon="6.2347">
        <ele>468.78</ele>
        <time>2015-02-19T14:46:50Z</time>
      </trkpt>
      <trkpt lat="43.61155" lon="6.23478">
        <ele>467.82</ele>
        <time>2015-02-19T14:47:03Z</time>
      </trkpt>
      <trkpt lat="43.61145" lon="6.23481">
        <ele>467.34</ele>
        <time>2015-02-19T14:47:09Z</time>
      </trkpt>
      <trkpt lat="43.61122" lon="6.23494">
        <ele>465.9</ele>
        <time>2015-02-19T14:47:24Z</time>
      </trkpt>
      <trkpt lat="43.6111" lon="6.23499">
        <ele>465.9</ele>
        <time>2015-02-19T14:47:33Z</time>
      </trkpt>
      <trkpt lat="43.61083" lon="6.23502">
        <ele>465.42</ele>
        <time>2015-02-19T14:47:47Z</time>
      </trkpt>
      <trkpt lat="43.61068" lon="6.23504">
        <ele>464.45</ele>
        <time>2015-02-19T14:47:59Z</time>
      </trkpt>
      <trkpt lat="43.6105" lon="6.23507">
        <ele>463.01</ele>
        <time>2015-02-19T14:48:09Z</time>
      </trkpt>
      <trkpt lat="43.61045" lon="6.23508">
        <ele>462.53</ele>
        <time>2015-02-19T14:48:12Z</time>
      </trkpt>
      <trkpt lat="43.61028" lon="6.23515">
        <ele>461.57</ele>
        <time>2015-02-19T14:48:24Z</time>
      </trkpt>
      <trkpt lat="43.61005" lon="6.23525">
        <ele>461.09</ele>
        <time>2015-02-19T14:48:39Z</time>
      </trkpt>
      <trkpt lat="43.60979" lon="6.23541">
        <ele>461.57</ele>
        <time>2015-02-19T14:48:56Z</time>
      </trkpt>
      <trkpt lat="43.60971" lon="6.23542">
        <ele>461.09</ele>
        <time>2015-02-19T14:49:01Z</time>
      </trkpt>
      <trkpt lat="43.60964" lon="6.23544">
        <ele>460.61</ele>
        <time>2015-02-19T14:49:05Z</time>
      </trkpt>
      <trkpt lat="43.60941" lon="6.2356">
        <ele>461.09</ele>
        <time>2015-02-19T14:49:15Z</time>
      </trkpt>
      <trkpt lat="43.60924" lon="6.23574">
        <ele>461.57</ele>
        <time>2015-02-19T14:49:27Z</time>
      </trkpt>
      <trkpt lat="43.6091" lon="6.23586">
        <ele>459.65</ele>
        <time>2015-02-19T14:49:40Z</time>
      </trkpt>
      <trkpt lat="43.60909" lon="6.23587">
        <ele>459.65</ele>
        <time>2015-02-19T14:49:41Z</time>
      </trkpt>
      <trkpt lat="43.60891" lon="6.23589">
        <ele>457.24</ele>
        <time>2015-02-19T14:49:54Z</time>
      </trkpt>
      <trkpt lat="43.60878" lon="6.23591">
        <ele>455.32</ele>
        <time>2015-02-19T14:50:06Z</time>
      </trkpt>
      <trkpt lat="43.60865" lon="6.23601">
        <ele>454.84</ele>
        <time>2015-02-19T14:50:13Z</time>
      </trkpt>
      <trkpt lat="43.60846" lon="6.23607">
        <ele>453.88</ele>
        <time>2015-02-19T14:50:29Z</time>
      </trkpt>
      <trkpt lat="43.60836" lon="6.23612">
        <ele>453.4</ele>
        <time>2015-02-19T14:50:33Z</time>
      </trkpt>
      <trkpt lat="43.60818" lon="6.23625">
        <ele>453.4</ele>
        <time>2015-02-19T14:50:40Z</time>
      </trkpt>
      <trkpt lat="43.6079" lon="6.23647">
        <ele>451.96</ele>
        <time>2015-02-19T14:50:54Z</time>
      </trkpt>
      <trkpt lat="43.60785" lon="6.23653">
        <ele>452.44</ele>
        <time>2015-02-19T14:50:57Z</time>
      </trkpt>
      <trkpt lat="43.60775" lon="6.23668">
        <ele>451.96</ele>
        <time>2015-02-19T14:51:10Z</time>
      </trkpt>
      <trkpt lat="43.60766" lon="6.23675">
        <ele>451</ele>
        <time>2015-02-19T14:51:21Z</time>
      </trkpt>
      <trkpt lat="43.60749" lon="6.23683">
        <ele>450.52</ele>
        <time>2015-02-19T14:51:32Z</time>
      </trkpt>
      <trkpt lat="43.60744" lon="6.23686">
        <ele>450.03</ele>
        <time>2015-02-19T14:51:36Z</time>
      </trkpt>
      <trkpt lat="43.60733" lon="6.23693">
        <ele>448.11</ele>
        <time>2015-02-19T14:51:41Z</time>
      </trkpt>
      <trkpt lat="43.60719" lon="6.237">
        <ele>446.19</ele>
        <time>2015-02-19T14:51:49Z</time>
      </trkpt>
      <trkpt lat="43.60714" lon="6.23702">
        <ele>445.23</ele>
        <time>2015-02-19T14:51:53Z</time>
      </trkpt>
      <trkpt lat="43.60712" lon="6.23705">
        <ele>444.27</ele>
        <time>2015-02-19T14:51:55Z</time>
      </trkpt>
      <trkpt lat="43.60706" lon="6.23726">
        <ele>443.31</ele>
        <time>2015-02-19T14:52:00Z</time>
      </trkpt>
      <trkpt lat="43.60702" lon="6.2374">
        <ele>441.38</ele>
        <time>2015-02-19T14:52:11Z</time>
      </trkpt>
      <trkpt lat="43.60686" lon="6.23752">
        <ele>440.42</ele>
        <time>2015-02-19T14:52:21Z</time>
      </trkpt>
      <trkpt lat="43.60676" lon="6.23755">
        <ele>439.94</ele>
        <time>2015-02-19T14:52:26Z</time>
      </trkpt>
      <trkpt lat="43.60662" lon="6.23742">
        <ele>438.98</ele>
        <time>2015-02-19T14:52:37Z</time>
      </trkpt>
      <trkpt lat="43.60648" lon="6.23728">
        <ele>437.54</ele>
        <time>2015-02-19T14:52:49Z</time>
      </trkpt>
      <trkpt lat="43.60634" lon="6.23724">
        <ele>438.02</ele>
        <time>2015-02-19T14:52:57Z</time>
      </trkpt>
      <trkpt lat="43.6062" lon="6.23725">
        <ele>439.46</ele>
        <time>2015-02-19T14:53:06Z</time>
      </trkpt>
      <trkpt lat="43.60614" lon="6.23737">
        <ele>441.38</ele>
        <time>2015-02-19T14:53:13Z</time>
      </trkpt>
      <trkpt lat="43.60603" lon="6.23742">
        <ele>444.27</ele>
        <time>2015-02-19T14:53:24Z</time>
      </trkpt>
      <trkpt lat="43.60595" lon="6.23744">
        <ele>445.23</ele>
        <time>2015-02-19T14:53:29Z</time>
      </trkpt>
      <trkpt lat="43.60575" lon="6.23748">
        <ele>444.75</ele>
        <time>2015-02-19T14:53:42Z</time>
      </trkpt>
      <trkpt lat="43.60567" lon="6.23745">
        <ele>445.23</ele>
        <time>2015-02-19T14:53:47Z</time>
      </trkpt>
      <trkpt lat="43.60547" lon="6.23738">
        <ele>446.19</ele>
        <time>2015-02-19T14:54:01Z</time>
      </trkpt>
      <trkpt lat="43.60526" lon="6.23725">
        <ele>446.67</ele>
        <time>2015-02-19T14:54:18Z</time>
      </trkpt>
      <trkpt lat="43.60508" lon="6.23729">
        <ele>447.15</ele>
        <time>2015-02-19T14:54:31Z</time>
      </trkpt>
      <trkpt lat="43.60507" lon="6.23744">
        <ele>448.11</ele>
        <time>2015-02-19T14:54:40Z</time>
      </trkpt>
      <trkpt lat="43.60508" lon="6.23761">
        <ele>449.07</ele>
        <time>2015-02-19T14:54:48Z</time>
      </trkpt>
      <trkpt lat="43.60497" lon="6.23778">
        <ele>449.07</ele>
        <time>2015-02-19T14:55:02Z</time>
      </trkpt>
      <trkpt lat="43.60493" lon="6.23787">
        <ele>449.55</ele>
        <time>2015-02-19T14:55:07Z</time>
      </trkpt>
      <trkpt lat="43.60484" lon="6.23813">
        <ele>450.03</ele>
        <time>2015-02-19T14:55:20Z</time>
      </trkpt>
      <trkpt lat="43.60476" lon="6.23828">
        <ele>449.07</ele>
        <time>2015-02-19T14:55:29Z</time>
      </trkpt>
      <trkpt lat="43.6047" lon="6.23854">
        <ele>448.59</ele>
        <time>2015-02-19T14:55:40Z</time>
      </trkpt>
      <trkpt lat="43.60466" lon="6.23874">
        <ele>448.59</ele>
        <time>2015-02-19T14:55:52Z</time>
      </trkpt>
      <trkpt lat="43.60463" lon="6.23897">
        <ele>448.59</ele>
        <time>2015-02-19T14:56:02Z</time>
      </trkpt>
      <trkpt lat="43.60461" lon="6.23913">
        <ele>447.63</ele>
        <time>2015-02-19T14:56:09Z</time>
      </trkpt>
      <trkpt lat="43.60464" lon="6.23942">
        <ele>447.15</ele>
        <time>2015-02-19T14:56:23Z</time>
      </trkpt>
      <trkpt lat="43.60464" lon="6.23944">
        <ele>446.67</ele>
        <time>2015-02-19T14:56:24Z</time>
      </trkpt>
      <trkpt lat="43.60452" lon="6.23948">
        <ele>446.67</ele>
        <time>2015-02-19T14:56:31Z</time>
      </trkpt>
      <trkpt lat="43.60447" lon="6.23947">
        <ele>446.67</ele>
        <time>2015-02-19T14:56:34Z</time>
      </trkpt>
      <trkpt lat="43.60423" lon="6.23932">
        <ele>445.23</ele>
        <time>2015-02-19T14:56:48Z</time>
      </trkpt>
      <trkpt lat="43.6041" lon="6.23909">
        <ele>443.79</ele>
        <time>2015-02-19T14:57:01Z</time>
      </trkpt>
      <trkpt lat="43.60409" lon="6.23904">
        <ele>443.79</ele>
        <time>2015-02-19T14:57:03Z</time>
      </trkpt>
      <trkpt lat="43.60406" lon="6.23894">
        <ele>443.31</ele>
        <time>2015-02-19T14:57:07Z</time>
      </trkpt>
      <trkpt lat="43.60405" lon="6.2389">
        <ele>443.31</ele>
        <time>2015-02-19T14:57:09Z</time>
      </trkpt>
      <trkpt lat="43.60398" lon="6.23882">
        <ele>441.86</ele>
        <time>2015-02-19T14:57:15Z</time>
      </trkpt>
      <trkpt lat="43.60372" lon="6.23882">
        <ele>440.42</ele>
        <time>2015-02-19T14:57:29Z</time>
      </trkpt>
      <trkpt lat="43.60345" lon="6.23884">
        <ele>438.5</ele>
        <time>2015-02-19T14:57:46Z</time>
      </trkpt>
      <trkpt lat="43.60332" lon="6.23898">
        <ele>437.54</ele>
        <time>2015-02-19T14:57:58Z</time>
      </trkpt>
      <trkpt lat="43.60331" lon="6.23908">
        <ele>437.54</ele>
        <time>2015-02-19T14:58:04Z</time>
      </trkpt>
      <trkpt lat="43.60329" lon="6.23914">
        <ele>437.54</ele>
        <time>2015-02-19T14:58:08Z</time>
      </trkpt>
      <trkpt lat="43.60322" lon="6.23938">
        <ele>440.9</ele>
        <time>2015-02-19T14:58:22Z</time>
      </trkpt>
      <trkpt lat="43.60318" lon="6.23944">
        <ele>440.9</ele>
        <time>2015-02-19T14:58:26Z</time>
      </trkpt>
      <trkpt lat="43.60297" lon="6.23963">
        <ele>441.38</ele>
        <time>2015-02-19T14:58:39Z</time>
      </trkpt>
      <trkpt lat="43.60282" lon="6.23983">
        <ele>440.9</ele>
        <time>2015-02-19T14:58:51Z</time>
      </trkpt>
      <trkpt lat="43.60272" lon="6.24003">
        <ele>439.94</ele>
        <time>2015-02-19T14:59:01Z</time>
      </trkpt>
      <trkpt lat="43.60259" lon="6.2403">
        <ele>438.5</ele>
        <time>2015-02-19T14:59:15Z</time>
      </trkpt>
      <trkpt lat="43.60241" lon="6.24057">
        <ele>437.06</ele>
        <time>2015-02-19T14:59:29Z</time>
      </trkpt>
      <trkpt lat="43.60235" lon="6.2407">
        <ele>436.58</ele>
        <time>2015-02-19T14:59:36Z</time>
      </trkpt>
      <trkpt lat="43.60228" lon="6.24078">
        <ele>436.58</ele>
        <time>2015-02-19T14:59:41Z</time>
      </trkpt>
      <trkpt lat="43.60226" lon="6.24081">
        <ele>437.54</ele>
        <time>2015-02-19T14:59:43Z</time>
      </trkpt>
      <trkpt lat="43.60225" lon="6.24087">
        <ele>436.58</ele>
        <time>2015-02-19T14:59:46Z</time>
      </trkpt>
      <trkpt lat="43.60215" lon="6.24103">
        <ele>436.1</ele>
        <time>2015-02-19T14:59:57Z</time>
      </trkpt>
      <trkpt lat="43.60212" lon="6.24107">
        <ele>436.1</ele>
        <time>2015-02-19T15:00:02Z</time>
      </trkpt>
      <trkpt lat="43.60205" lon="6.24119">
        <ele>436.1</ele>
        <time>2015-02-19T15:00:09Z</time>
      </trkpt>
      <trkpt lat="43.60182" lon="6.24153">
        <ele>436.58</ele>
        <time>2015-02-19T15:00:25Z</time>
      </trkpt>
      <trkpt lat="43.60173" lon="6.24174">
        <ele>437.06</ele>
        <time>2015-02-19T15:00:38Z</time>
      </trkpt>
      <trkpt lat="43.60163" lon="6.24185">
        <ele>437.54</ele>
        <time>2015-02-19T15:00:46Z</time>
      </trkpt>
      <trkpt lat="43.6016" lon="6.2419">
        <ele>438.02</ele>
        <time>2015-02-19T15:00:50Z</time>
      </trkpt>
      <trkpt lat="43.6015" lon="6.24201">
        <ele>437.54</ele>
        <time>2015-02-19T15:00:57Z</time>
      </trkpt>
      <trkpt lat="43.60145" lon="6.24213">
        <ele>437.06</ele>
        <time>2015-02-19T15:01:03Z</time>
      </trkpt>
      <trkpt lat="43.60138" lon="6.24246">
        <ele>436.58</ele>
        <time>2015-02-19T15:01:17Z</time>
      </trkpt>
      <trkpt lat="43.60136" lon="6.24252">
        <ele>436.1</ele>
        <time>2015-02-19T15:01:20Z</time>
      </trkpt>
      <trkpt lat="43.60128" lon="6.24284">
        <ele>436.1</ele>
        <time>2015-02-19T15:01:36Z</time>
      </trkpt>
      <trkpt lat="43.6012" lon="6.24313">
        <ele>435.61</ele>
        <time>2015-02-19T15:01:49Z</time>
      </trkpt>
      <trkpt lat="43.6011" lon="6.24341">
        <ele>435.13</ele>
        <time>2015-02-19T15:02:03Z</time>
      </trkpt>
      <trkpt lat="43.60099" lon="6.24368">
        <ele>435.13</ele>
        <time>2015-02-19T15:02:17Z</time>
      </trkpt>
      <trkpt lat="43.60083" lon="6.24395">
        <ele>435.13</ele>
        <time>2015-02-19T15:02:32Z</time>
      </trkpt>
      <trkpt lat="43.60077" lon="6.24409">
        <ele>435.61</ele>
        <time>2015-02-19T15:02:40Z</time>
      </trkpt>
      <trkpt lat="43.60067" lon="6.24436">
        <ele>436.1</ele>
        <time>2015-02-19T15:02:54Z</time>
      </trkpt>
      <trkpt lat="43.60061" lon="6.24444">
        <ele>436.1</ele>
        <time>2015-02-19T15:02:59Z</time>
      </trkpt>
      <trkpt lat="43.60052" lon="6.24469">
        <ele>437.54</ele>
        <time>2015-02-19T15:03:13Z</time>
      </trkpt>
      <trkpt lat="43.60041" lon="6.24493">
        <ele>438.98</ele>
        <time>2015-02-19T15:03:28Z</time>
      </trkpt>
      <trkpt lat="43.60036" lon="6.24505">
        <ele>439.46</ele>
        <time>2015-02-19T15:03:34Z</time>
      </trkpt>
      <trkpt lat="43.60029" lon="6.24529">
        <ele>440.9</ele>
        <time>2015-02-19T15:03:49Z</time>
      </trkpt>
      <trkpt lat="43.60031" lon="6.24555">
        <ele>441.86</ele>
        <time>2015-02-19T15:04:03Z</time>
      </trkpt>
      <trkpt lat="43.60033" lon="6.24567">
        <ele>441.86</ele>
        <time>2015-02-19T15:04:08Z</time>
      </trkpt>
      <trkpt lat="43.60034" lon="6.24575">
        <ele>442.82</ele>
        <time>2015-02-19T15:04:13Z</time>
      </trkpt>
      <trkpt lat="43.60036" lon="6.24595">
        <ele>443.31</ele>
        <time>2015-02-19T15:04:24Z</time>
      </trkpt>
      <trkpt lat="43.60037" lon="6.24603">
        <ele>443.79</ele>
        <time>2015-02-19T15:04:28Z</time>
      </trkpt>
      <trkpt lat="43.60035" lon="6.24629">
        <ele>444.27</ele>
        <time>2015-02-19T15:04:42Z</time>
      </trkpt>
      <trkpt lat="43.60025" lon="6.24656">
        <ele>444.27</ele>
        <time>2015-02-19T15:04:57Z</time>
      </trkpt>
      <trkpt lat="43.60024" lon="6.24659">
        <ele>444.27</ele>
        <time>2015-02-19T15:04:58Z</time>
      </trkpt>
      <trkpt lat="43.6002" lon="6.2467">
        <ele>444.27</ele>
        <time>2015-02-19T15:05:03Z</time>
      </trkpt>
      <trkpt lat="43.60022" lon="6.24679">
        <ele>444.75</ele>
        <time>2015-02-19T15:05:14Z</time>
      </trkpt>
      <trkpt lat="43.60022" lon="6.24679">
        <ele>444.75</ele>
        <time>2015-02-19T15:05:35Z</time>
      </trkpt>
      <trkpt lat="43.60022" lon="6.24679">
        <ele>444.75</ele>
        <time>2015-02-19T15:05:54Z</time>
      </trkpt>
      <trkpt lat="43.60022" lon="6.2468">
        <ele>444.27</ele>
        <time>2015-02-19T15:06:11Z</time>
      </trkpt>
      <trkpt lat="43.60022" lon="6.24681">
        <ele>444.27</ele>
        <time>2015-02-19T15:06:29Z</time>
      </trkpt>
      <trkpt lat="43.60022" lon="6.24681">
        <ele>444.75</ele>
        <time>2015-02-19T15:06:48Z</time>
      </trkpt>
      <trkpt lat="43.60022" lon="6.24682">
        <ele>444.27</ele>
        <time>2015-02-19T15:07:08Z</time>
      </trkpt>
      <trkpt lat="43.60021" lon="6.24682">
        <ele>444.27</ele>
        <time>2015-02-19T15:07:23Z</time>
      </trkpt>
      <trkpt lat="43.60021" lon="6.24682">
        <ele>444.75</ele>
        <time>2015-02-19T15:07:41Z</time>
      </trkpt>
      <trkpt lat="43.6002" lon="6.24683">
        <ele>444.75</ele>
        <time>2015-02-19T15:07:56Z</time>
      </trkpt>
      <trkpt lat="43.60021" lon="6.24686">
        <ele>445.23</ele>
        <time>2015-02-19T15:08:12Z</time>
      </trkpt>
      <trkpt lat="43.60021" lon="6.24686">
        <ele>444.75</ele>
        <time>2015-02-19T15:08:22Z</time>
      </trkpt>
      <trkpt lat="43.60018" lon="6.2469">
        <ele>444.75</ele>
        <time>2015-02-19T15:08:26Z</time>
      </trkpt>
      <trkpt lat="43.60016" lon="6.24695">
        <ele>445.23</ele>
        <time>2015-02-19T15:08:31Z</time>
      </trkpt>
      <trkpt lat="43.60011" lon="6.24701">
        <ele>444.75</ele>
        <time>2015-02-19T15:08:36Z</time>
      </trkpt>
      <trkpt lat="43.60008" lon="6.24703">
        <ele>445.23</ele>
        <time>2015-02-19T15:08:39Z</time>
      </trkpt>
      <trkpt lat="43.60005" lon="6.24716">
        <ele>445.71</ele>
        <time>2015-02-19T15:08:48Z</time>
      </trkpt>
      <trkpt lat="43.60001" lon="6.24723">
        <ele>445.71</ele>
        <time>2015-02-19T15:08:53Z</time>
      </trkpt>
      <trkpt lat="43.59996" lon="6.24733">
        <ele>446.19</ele>
        <time>2015-02-19T15:09:01Z</time>
      </trkpt>
      <trkpt lat="43.59989" lon="6.24751">
        <ele>446.67</ele>
        <time>2015-02-19T15:09:14Z</time>
      </trkpt>
      <trkpt lat="43.59985" lon="6.24759">
        <ele>446.67</ele>
        <time>2015-02-19T15:09:20Z</time>
      </trkpt>
      <trkpt lat="43.59985" lon="6.24762">
        <ele>446.67</ele>
        <time>2015-02-19T15:09:27Z</time>
      </trkpt>
      <trkpt lat="43.59985" lon="6.24764">
        <ele>446.67</ele>
        <time>2015-02-19T15:09:30Z</time>
      </trkpt>
      <trkpt lat="43.59976" lon="6.24781">
        <ele>447.63</ele>
        <time>2015-02-19T15:09:43Z</time>
      </trkpt>
      <trkpt lat="43.59969" lon="6.24794">
        <ele>448.11</ele>
        <time>2015-02-19T15:09:51Z</time>
      </trkpt>
      <trkpt lat="43.59968" lon="6.24804">
        <ele>448.11</ele>
        <time>2015-02-19T15:09:56Z</time>
      </trkpt>
      <trkpt lat="43.59972" lon="6.24826">
        <ele>450.03</ele>
        <time>2015-02-19T15:10:09Z</time>
      </trkpt>
      <trkpt lat="43.59981" lon="6.24844">
        <ele>451</ele>
        <time>2015-02-19T15:10:22Z</time>
      </trkpt>
      <trkpt lat="43.59987" lon="6.24854">
        <ele>451.48</ele>
        <time>2015-02-19T15:10:29Z</time>
      </trkpt>
      <trkpt lat="43.59989" lon="6.24857">
        <ele>451.48</ele>
        <time>2015-02-19T15:10:33Z</time>
      </trkpt>
      <trkpt lat="43.59989" lon="6.24859">
        <ele>451.96</ele>
        <time>2015-02-19T15:10:39Z</time>
      </trkpt>
      <trkpt lat="43.59992" lon="6.24862">
        <ele>451.96</ele>
        <time>2015-02-19T15:10:42Z</time>
      </trkpt>
      <trkpt lat="43.59996" lon="6.24867">
        <ele>452.44</ele>
        <time>2015-02-19T15:10:46Z</time>
      </trkpt>
      <trkpt lat="43.59997" lon="6.24872">
        <ele>452.92</ele>
        <time>2015-02-19T15:10:49Z</time>
      </trkpt>
      <trkpt lat="43.59999" lon="6.24893">
        <ele>454.36</ele>
        <time>2015-02-19T15:11:03Z</time>
      </trkpt>
      <trkpt lat="43.59994" lon="6.24908">
        <ele>454.84</ele>
        <time>2015-02-19T15:11:14Z</time>
      </trkpt>
      <trkpt lat="43.59991" lon="6.24916">
        <ele>455.32</ele>
        <time>2015-02-19T15:11:19Z</time>
      </trkpt>
      <trkpt lat="43.59986" lon="6.24927">
        <ele>455.8</ele>
        <time>2015-02-19T15:11:26Z</time>
      </trkpt>
      <trkpt lat="43.59984" lon="6.2493">
        <ele>455.8</ele>
        <time>2015-02-19T15:11:29Z</time>
      </trkpt>
      <trkpt lat="43.59979" lon="6.24942">
        <ele>456.76</ele>
        <time>2015-02-19T15:11:42Z</time>
      </trkpt>
      <trkpt lat="43.59977" lon="6.24945">
        <ele>456.76</ele>
        <time>2015-02-19T15:11:56Z</time>
      </trkpt>
      <trkpt lat="43.59976" lon="6.24947">
        <ele>456.76</ele>
        <time>2015-02-19T15:11:59Z</time>
      </trkpt>
      <trkpt lat="43.59973" lon="6.2495">
        <ele>456.76</ele>
        <time>2015-02-19T15:12:02Z</time>
      </trkpt>
      <trkpt lat="43.59969" lon="6.24967">
        <ele>457.72</ele>
        <time>2015-02-19T15:12:14Z</time>
      </trkpt>
      <trkpt lat="43.59963" lon="6.24994">
        <ele>459.17</ele>
        <time>2015-02-19T15:12:28Z</time>
      </trkpt>
      <trkpt lat="43.59963" lon="6.25015">
        <ele>460.13</ele>
        <time>2015-02-19T15:12:41Z</time>
      </trkpt>
      <trkpt lat="43.5996" lon="6.2503">
        <ele>460.13</ele>
        <time>2015-02-19T15:12:54Z</time>
      </trkpt>
      <trkpt lat="43.59952" lon="6.2505">
        <ele>458.69</ele>
        <time>2015-02-19T15:13:06Z</time>
      </trkpt>
      <trkpt lat="43.59946" lon="6.25063">
        <ele>458.21</ele>
        <time>2015-02-19T15:13:12Z</time>
      </trkpt>
      <trkpt lat="43.59941" lon="6.25085">
        <ele>457.72</ele>
        <time>2015-02-19T15:13:27Z</time>
      </trkpt>
      <trkpt lat="43.59941" lon="6.25087">
        <ele>457.72</ele>
        <time>2015-02-19T15:13:53Z</time>
      </trkpt>
      <trkpt lat="43.59943" lon="6.25085">
        <ele>457.24</ele>
        <time>2015-02-19T15:14:12Z</time>
      </trkpt>
      <trkpt lat="43.5994" lon="6.25082">
        <ele>457.72</ele>
        <time>2015-02-19T15:14:26Z</time>
      </trkpt>
      <trkpt lat="43.5994" lon="6.2508">
        <ele>457.72</ele>
        <time>2015-02-19T15:14:40Z</time>
      </trkpt>
      <trkpt lat="43.59941" lon="6.2508">
        <ele>457.24</ele>
        <time>2015-02-19T15:14:55Z</time>
      </trkpt>
      <trkpt lat="43.59942" lon="6.2508">
        <ele>457.24</ele>
        <time>2015-02-19T15:15:02Z</time>
      </trkpt>
      <trkpt lat="43.59944" lon="6.25078">
        <ele>457.24</ele>
        <time>2015-02-19T15:15:18Z</time>
      </trkpt>
      <trkpt lat="43.59942" lon="6.25077">
        <ele>457.24</ele>
        <time>2015-02-19T15:15:34Z</time>
      </trkpt>
      <trkpt lat="43.59941" lon="6.25077">
        <ele>457.72</ele>
        <time>2015-02-19T15:15:47Z</time>
      </trkpt>
      <trkpt lat="43.5994" lon="6.25076">
        <ele>457.72</ele>
        <time>2015-02-19T15:16:13Z</time>
      </trkpt>
      <trkpt lat="43.5994" lon="6.25079">
        <ele>457.72</ele>
        <time>2015-02-19T15:16:31Z</time>
      </trkpt>
      <trkpt lat="43.59939" lon="6.2508">
        <ele>458.21</ele>
        <time>2015-02-19T15:16:49Z</time>
      </trkpt>
      <trkpt lat="43.5994" lon="6.2508">
        <ele>458.21</ele>
        <time>2015-02-19T15:17:13Z</time>
      </trkpt>
      <trkpt lat="43.5994" lon="6.2508">
        <ele>458.21</ele>
        <time>2015-02-19T15:17:42Z</time>
      </trkpt>
    </trkseg>
  </trk>
  <rte>
    <name><![CDATA[Chemin à Chemin]]></name>
      <rtept lat="43.62011" lon="6.26273">
        <ele>602.0234375</ele>
        <name><![CDATA[Chemin]]></name>
      </rtept>
    </rte>
  <rte>
    <name><![CDATA[Fleuve1 à Fleuve1]]></name>
      <rtept lat="43.59914" lon="6.25174">
        <ele>461.50390625</ele>
        <name><![CDATA[Fleuve1]]></name>
      </rtept>
    </rte>
</gpx>